[[{"header":{"parameterUnit":"m.s-1","parameterCategory":1,"la1":30.6,"la2":29.2853,"lo1":-89.7004,"lo2":-87.6739,"dy":0.0162,"dx":0.0183,"nx":112,"ny":82,"refTime":"2024-02-14T06:00:00:Z","depth":0,"parameterNumber":2,"parameterNumberName":"U-component_of_WINDS"},"data":[0.0,0.0,0.0,0.0,0.0,0.0,0.0,0.0,0.0,0.0,0.0,0.0,0.0,0.0,0.0,0.0,0.0,0.0,0.0,0.0,0.0,0.0,0.0,0.0,0.0,0.0,0.0,0.0,0.0,0.0,0.0,0.0,0.0,0.0,0.0,0.0,0.0,0.0,0.0,0.0,0.0,0.0,0.0,0.0,0.0,0.0,0.0,0.0,0.0,0.0,0.0,0.0,0.0,0.0,0.0,0.0,0.0,0.0,0.0,0.0,0.0,0.0,0.0,0.0,0.0,0.0,0.0,0.0,0.0,0.0,0.0,0.0,0.0,0.0,0.0,0.0,0.0,0.0,0.0,0.0,0.0,0.0,0.0,0.0,0.0,0.0,0.0,0.0,0.0,0.0,2.0,1.9854,2.1244,2.2261,2.2413,2.1923,2.0975,1.9545,0.0,0.0,0.0,0.0,0.0,0.0,0.0,0.0,0.0,0.0,0.0,0.0,0.0,0.0,0.0,0.0,0.0,0.0,0.0,0.0,0.0,0.0,0.0,0.0,0.0,0.0,0.0,0.0,0.0,0.0,0.0,0.0,0.0,0.0,0.0,0.0,0.0,0.0,0.0,0.0,0.0,0.0,0.0,0.0,0.0,0.0,0.0,0.0,0.0,0.0,0.0,0.0,0.0,0.0,0.0,0.0,0.0,0.0,0.0,0.0,0.0,0.0,0.0,0.0,0.0,0.0,0.0,0.0,0.0,0.0,0.0,0.0,0.0,0.0,0.0,0.0,0.0,0.0,0.0,0.0,0.0,0.0,0.0,0.0,0.0,0.0,0.0,0.0,0.0,0.0,0.0,0.0,0.0,0.0,0.0,0.0,0.0,0.0,0.0,0.0,0.0,0.0,0.0,0.0,2.0079,2.0879,2.1408,2.1578,2.1271,2.036,1.9752,1.9661,0.0,0.0,0.0,0.0,0.0,0.0,0.0,0.0,0.0,0.0,0.0,0.0,0.0,0.0,0.0,0.0,0.0,0.0,0.0,0.0,0.0,0.0,0.0,0.0,0.0,0.0,0.0,0.0,0.0,0.0,0.0,0.0,0.0,0.0,0.0,0.0,0.0,0.0,0.0,0.0,0.0,0.0,0.0,0.0,0.0,0.0,0.0,0.0,0.0,0.0,0.0,0.0,0.0,0.0,0.0,0.0,0.0,0.0,0.0,0.0,0.0,0.0,0.0,0.0,0.0,0.0,0.0,0.0,0.0,0.0,0.0,0.0,0.0,0.0,0.0,0.0,0.0,0.0,0.0,0.0,0.0,0.0,0.0,0.0,0.0,0.0,0.0,0.0,0.0,0.0,0.0,0.0,0.0,0.0,0.0,0.0,0.0,0.0,0.0,0.0,0.0,0.0,0.0,2.008,2.0147,2.1296,2.1333,2.1102,2.0649,2.0176,1.9716,1.9293,1.9836,0.0,0.0,0.0,0.0,0.0,0.0,0.0,0.0,0.0,0.0,0.0,0.0,0.0,0.0,0.0,0.0,0.0,0.0,0.0,0.0,0.0,0.0,0.0,0.0,0.0,0.0,0.0,0.0,0.0,0.0,0.0,0.0,0.0,0.0,0.0,0.0,0.0,0.0,0.0,0.0,0.0,0.0,0.0,0.0,0.0,0.0,0.0,0.0,0.0,0.0,0.0,0.0,0.0,0.0,0.0,0.0,0.0,0.0,0.0,0.0,0.0,0.0,0.0,0.0,0.0,0.0,0.0,0.0,0.0,0.0,0.0,0.0,0.0,0.0,0.0,0.0,0.0,0.0,0.0,0.0,0.0,0.0,0.0,0.0,0.0,0.0,0.0,0.0,0.0,0.0,0.0,0.0,0.0,0.0,0.0,0.0,0.0,0.0,0.0,0.0,0.0,0.0,2.0503,2.0098,2.1336,2.107,2.0682,2.0331,2.0073,1.9636,1.8944,1.9249,0.0,0.0,0.0,0.0,0.0,0.0,0.0,0.0,0.0,0.0,0.0,0.0,0.0,0.0,0.0,0.0,0.0,0.0,0.0,0.0,0.0,0.0,0.0,0.0,0.0,0.0,0.0,0.0,0.0,0.0,0.0,0.0,0.0,0.0,0.0,0.0,0.0,0.0,0.0,0.0,0.0,0.0,0.0,0.0,0.0,0.0,0.0,0.0,0.0,0.0,0.0,0.0,0.0,0.0,0.0,0.0,0.0,0.0,0.0,0.0,0.0,0.0,0.0,0.0,0.0,0.0,0.0,0.0,0.0,0.0,0.0,0.0,0.0,0.0,0.0,0.0,0.0,0.0,0.0,0.0,0.0,0.0,0.0,0.0,0.0,0.0,0.0,0.0,0.0,0.0,0.0,0.0,0.0,0.0,0.0,0.0,0.0,0.0,0.0,0.0,0.0,0.0,2.0063,1.9838,2.0926,2.0625,2.034,2.0306,1.9385,1.885,1.8897,1.8827,0.0,0.0,0.0,0.0,0.0,0.0,0.0,0.0,0.0,0.0,0.0,0.0,0.0,0.0,0.0,0.0,0.0,0.0,0.0,0.0,0.0,0.0,0.0,0.0,0.0,0.0,0.0,0.0,0.0,0.0,0.0,0.0,0.0,0.0,0.0,0.0,0.0,0.0,0.0,0.0,0.0,0.0,0.0,0.0,0.0,0.0,0.0,0.0,0.0,0.0,0.0,0.0,0.0,0.0,0.0,0.0,0.0,0.0,0.0,0.0,0.0,0.0,0.0,0.0,0.0,0.0,0.0,0.0,0.0,0.0,0.0,0.0,0.0,0.0,0.0,0.0,0.0,0.0,0.0,0.0,0.0,0.0,0.0,0.0,0.0,0.0,0.0,0.0,0.0,0.0,0.0,0.0,0.0,0.0,0.0,0.0,0.0,0.0,0.0,0.0,0.0,0.0,2.0613,2.0438,0.0,2.0176,1.9936,1.9936,1.9181,1.8762,1.8887,0.0,0.0,0.0,0.0,0.0,0.0,0.0,0.0,0.0,0.0,0.0,0.0,0.0,0.0,0.0,0.0,0.0,0.0,0.0,0.0,0.0,0.0,0.0,0.0,0.0,0.0,0.0,0.0,0.0,0.0,0.0,0.0,0.0,0.0,0.0,0.0,0.0,0.0,0.0,0.0,0.0,0.0,0.0,0.0,0.0,0.0,0.0,0.0,0.0,0.0,0.0,0.0,0.0,0.0,0.0,0.0,0.0,0.0,0.0,0.0,0.0,0.0,0.0,0.0,0.0,0.0,0.0,0.0,0.0,0.0,0.0,0.0,0.0,0.0,0.0,0.0,0.0,0.0,0.0,0.0,0.0,0.0,0.0,0.0,0.0,0.0,0.0,0.0,0.0,0.0,0.0,0.0,0.0,0.0,0.0,0.0,0.0,0.0,0.0,0.0,0.0,0.0,2.0952,2.0633,2.0355,0.0,1.9865,1.9708,1.9708,1.9091,1.8762,1.8887,0.0,0.0,0.0,0.0,0.0,0.0,0.0,0.0,0.0,0.0,0.0,0.0,0.0,0.0,0.0,0.0,0.0,0.0,0.0,0.0,0.0,0.0,0.0,0.0,0.0,0.0,0.0,0.0,0.0,0.0,0.0,0.0,0.0,0.0,0.0,0.0,0.0,0.0,0.0,0.0,0.0,0.0,0.0,0.0,0.0,0.0,0.0,0.0,0.0,0.0,0.0,0.0,0.0,0.0,0.0,0.0,0.0,0.0,0.0,0.0,0.0,0.0,0.0,0.0,0.0,0.0,0.0,0.0,0.0,0.0,0.0,0.0,0.0,0.0,0.0,0.0,0.0,0.0,0.0,0.0,0.0,0.0,0.0,0.0,0.0,0.0,0.0,0.0,0.0,0.0,0.0,0.0,0.0,0.0,0.0,0.0,0.0,0.0,0.0,0.0,0.0,0.0,2.0902,1.9954,1.9336,1.9669,1.9708,1.9708,1.9708,1.9091,1.8762,0.0,0.0,0.0,0.0,0.0,0.0,0.0,0.0,0.0,0.0,0.0,0.0,0.0,0.0,0.0,0.0,0.0,0.0,0.0,0.0,0.0,0.0,0.0,0.0,0.0,0.0,0.0,0.0,0.0,0.0,0.0,0.0,0.0,0.0,0.0,0.0,0.0,0.0,0.0,0.0,0.0,0.0,0.0,0.0,0.0,0.0,0.0,0.0,0.0,0.0,0.0,0.0,0.0,0.0,0.0,0.0,0.0,0.0,0.0,0.0,0.0,0.0,0.0,0.0,0.0,0.0,0.0,0.0,0.0,0.0,0.0,0.0,0.0,0.0,0.0,0.0,0.0,0.0,0.0,0.0,0.0,0.0,0.0,0.0,0.0,0.0,0.0,0.0,0.0,0.0,0.0,0.0,0.0,0.0,0.0,0.0,0.0,0.0,0.0,0.0,0.0,0.0,0.0,2.0974,2.0034,1.9435,1.9678,1.9708,1.9708,1.9708,1.9091,1.8926,1.9425,0.0,0.0,0.0,0.0,0.0,0.0,0.0,0.0,0.0,0.0,0.0,0.0,0.0,0.0,0.0,0.0,0.0,0.0,0.0,0.0,0.0,0.0,0.0,0.0,0.0,0.0,0.0,0.0,0.0,0.0,0.0,0.0,0.0,0.0,0.0,0.0,0.0,0.0,0.0,0.0,0.0,0.0,0.0,0.0,0.0,0.0,0.0,0.0,0.0,0.0,0.0,0.0,0.0,0.0,0.0,0.0,0.0,0.0,0.0,0.0,0.0,0.0,0.0,0.0,0.0,0.0,0.0,0.0,0.0,0.0,0.0,0.0,0.0,0.0,0.0,0.0,0.0,0.0,0.0,0.0,0.0,0.0,0.0,0.0,0.0,0.0,0.0,0.0,0.0,0.0,0.0,0.0,0.0,0.0,0.0,0.0,0.0,0.0,0.0,0.0,0.0,0.0,2.0742,2.0022,1.9571,1.969,1.9708,1.9708,1.9708,1.9324,1.928,1.9669,0.0,0.0,0.0,0.0,0.0,0.0,0.0,0.0,0.0,0.0,0.0,0.0,0.0,0.0,0.0,0.0,0.0,0.0,0.0,0.0,0.0,0.0,0.0,0.0,0.0,0.0,0.0,0.0,0.0,0.0,0.0,0.0,0.0,0.0,0.0,0.0,0.0,0.0,0.0,0.0,0.0,0.0,0.0,0.0,0.0,0.0,0.0,0.0,0.0,0.0,0.0,0.0,0.0,0.0,0.0,0.0,0.0,0.0,0.0,0.0,0.0,0.0,0.0,0.0,0.0,0.0,0.0,0.0,0.0,0.0,0.0,0.0,0.0,0.0,0.0,0.0,0.0,0.0,0.0,0.0,0.0,0.0,0.0,0.0,0.0,0.0,0.0,0.0,0.0,0.0,0.0,0.0,0.0,0.0,0.0,0.0,0.0,0.0,0.0,0.0,0.0,0.0,2.0341,1.9893,1.9633,1.9693,1.9708,1.969,1.963,1.9681,1.969,1.963,0.0,0.0,0.0,0.0,0.0,0.0,0.0,0.0,0.0,0.0,0.0,0.0,0.0,0.0,0.0,0.0,0.0,0.0,0.0,0.0,0.0,0.0,0.0,0.0,0.0,0.0,0.0,0.0,0.0,0.0,0.0,0.0,0.0,0.0,0.0,0.0,0.0,0.0,0.0,0.0,0.0,0.0,0.0,0.0,0.0,0.0,0.0,0.0,0.0,0.0,0.0,0.0,0.0,0.0,0.0,0.0,0.0,0.0,0.0,0.0,1.9365,0.0,0.0,0.0,0.0,0.0,0.0,0.0,0.0,0.0,0.0,0.0,0.0,0.0,0.0,0.0,0.0,0.0,0.0,0.0,0.0,0.0,0.0,0.0,0.0,0.0,0.0,0.0,0.0,0.0,0.0,0.0,0.0,0.0,0.0,0.0,0.0,0.0,0.0,0.0,0.0,0.0,2.0252,1.9483,1.9115,1.9648,1.9708,1.9539,1.9114,1.946,1.953,1.9104,1.947,0.0,0.0,0.0,0.0,0.0,0.0,0.0,0.0,0.0,0.0,0.0,0.0,0.0,0.0,0.0,0.0,0.0,0.0,0.0,0.0,0.0,0.0,0.0,0.0,0.0,0.0,0.0,0.0,0.0,0.0,0.0,0.0,0.0,0.0,0.0,0.0,0.0,0.0,0.0,0.0,0.0,0.0,0.0,0.0,0.0,0.0,0.0,0.0,0.0,0.0,0.0,0.0,0.0,0.0,0.0,0.0,0.0,0.0,0.0,0.0,1.9989,0.0,0.0,0.0,0.0,0.0,0.0,0.0,0.0,0.0,0.0,0.0,0.0,0.0,0.0,0.0,0.0,0.0,0.0,0.0,0.0,0.0,0.0,0.0,0.0,0.0,0.0,0.0,0.0,0.0,0.0,0.0,0.0,0.0,0.0,0.0,0.0,0.0,0.0,0.0,0.0,1.9998,1.9534,1.931,1.9654,1.9708,1.9479,1.8949,1.9387,1.947,1.893,1.9396,0.0,0.0,0.0,0.0,0.0,0.0,0.0,0.0,0.0,0.0,0.0,0.0,0.0,0.0,0.0,0.0,0.0,0.0,0.0,0.0,0.0,0.0,0.0,0.0,0.0,0.0,0.0,0.0,0.0,0.0,0.0,0.0,0.0,0.0,0.0,0.0,0.0,0.0,0.0,0.0,0.0,0.0,0.0,0.0,0.0,0.0,0.0,0.0,0.0,0.0,0.0,0.0,0.0,2.5237,2.4019,2.3486,2.2672,2.1671,2.0576,2.0745,2.044,1.9907,2.059,0.0,0.0,0.0,0.0,0.0,0.0,0.0,0.0,0.0,0.0,0.0,0.0,0.0,0.0,0.0,0.0,0.0,0.0,0.0,0.0,0.0,0.0,0.0,0.0,2.1181,2.0958,0.0,0.0,0.0,0.0,0.0,0.0,0.0,0.0,0.0,0.0,0.0,0.0,1.9738,1.9708,1.9657,1.9575,1.9566,1.9314,1.8669,1.9197,1.9332,1.8798,1.935,1.9708,0.0,0.0,0.0,0.0,0.0,0.0,0.0,0.0,0.0,0.0,0.0,0.0,0.0,0.0,0.0,0.0,0.0,0.0,0.0,0.0,0.0,0.0,0.0,0.0,0.0,0.0,0.0,0.0,0.0,0.0,0.0,0.0,1.8,1.9528,0.0,0.0,0.0,0.0,0.0,0.0,0.0,0.0,0.0,0.0,0.0,0.0,0.0,2.364,2.481,2.1764,2.2124,2.5857,2.6689,2.5851,2.3551,2.217,2.1435,2.1269,2.1297,0.0,2.0547,2.1277,0.0,0.0,0.0,0.0,0.0,0.0,0.0,0.0,0.0,0.0,0.0,0.0,0.0,0.0,0.0,0.0,0.0,0.0,0.0,0.0,0.0,0.0,2.1469,2.1609,2.196,2.2279,0.0,2.1918,2.1287,2.0608,2.1206,0.0,0.0,0.0,0.0,0.0,0.0,0.0,1.9717,1.9708,1.953,1.9052,1.9006,1.8602,1.7595,1.8429,1.8788,1.8243,1.9151,1.9708,1.9708,2.0258,0.0,0.0,0.0,0.0,0.0,0.0,0.0,0.0,0.0,0.0,0.0,0.0,0.0,0.0,0.0,0.0,0.0,0.0,0.0,0.0,0.0,0.0,0.0,0.0,0.0,0.0,0.0,0.0,0.0,1.7746,1.9393,2.163,2.0597,1.9708,0.0,0.0,0.0,0.0,0.0,0.0,0.0,0.0,0.0,2.36,2.3618,2.5304,2.888,2.6867,2.5925,2.6115,2.689,2.6992,2.6438,2.5812,2.5053,2.427,2.427,2.3767,2.295,2.2831,2.2308,2.1515,0.0,0.0,0.0,0.0,2.1496,2.1761,2.2475,2.2379,0.0,2.263,0.0,0.0,0.0,0.0,0.0,0.0,0.0,0.0,0.0,0.0,2.1586,2.1992,2.2593,2.3086,2.3146,2.3159,2.2696,0.0,2.1718,2.2183,2.1405,0.0,0.0,0.0,0.0,1.9588,1.9288,1.9243,1.9034,1.8505,1.8448,1.8145,1.7374,1.8017,1.8351,1.8116,1.8826,1.954,2.0234,2.0548,2.0742,0.0,0.0,0.0,0.0,0.0,0.0,0.0,0.0,0.0,0.0,0.0,0.0,0.0,0.0,0.0,0.0,0.0,0.0,0.0,0.0,0.0,0.0,0.0,0.0,0.0,0.0,0.0,0.0,1.8039,1.9951,2.3305,2.2521,2.1315,0.0,0.0,0.0,0.0,0.0,0.0,2.576,2.4641,2.4655,2.6287,2.5349,2.6876,3.1231,3.0986,2.9805,2.7772,2.7746,2.8163,2.8993,2.8993,2.8377,2.7341,2.7341,2.6871,2.5979,2.4673,2.3786,2.3102,2.1983,2.2057,2.2794,2.2794,2.2794,2.294,2.3888,2.3596,2.2856,2.3246,0.0,2.1849,2.1292,0.0,0.0,0.0,0.0,2.1373,2.1894,2.184,2.1805,2.2486,2.3179,2.3703,2.372,2.4314,2.4246,0.0,2.2567,2.2817,2.1762,0.0,0.0,0.0,0.0,1.9761,1.9205,1.8998,1.869,1.8184,1.7993,1.7676,1.7136,1.7733,1.8129,1.8129,1.8897,1.9764,2.0661,2.1024,2.1365,2.168,0.0,0.0,0.0,0.0,0.0,0.0,0.0,0.0,0.0,0.0,0.0,0.0,0.0,0.0,0.0,0.0,0.0,0.0,0.0,0.0,0.0,0.0,0.0,0.0,0.0,0.0,0.0,0.0,0.0,2.3336,2.59,0.0,0.0,0.0,0.0,1.9887,2.2529,2.4967,2.6549,2.5968,2.5528,2.5368,2.712,2.8888,3.062,3.1177,3.1396,3.1234,3.0166,2.9694,2.9731,2.9731,2.9693,2.9628,2.9628,2.9591,2.9347,2.668,2.5642,2.5537,2.3705,2.3021,2.3088,2.3088,2.3088,2.3088,2.3143,2.3129,2.33,2.4708,2.5243,2.5098,2.3754,2.291,0.0,0.0,2.1414,2.141,2.1517,2.1891,2.2442,2.3171,2.3823,2.4273,2.4339,2.4927,2.5064,0.0,2.3376,2.3267,2.3205,0.0,2.1997,2.1425,2.094,2.0425,1.9838,1.9243,1.8722,1.8245,1.7687,1.7115,1.6584,1.7564,1.8191,1.8191,1.9716,2.0641,2.0701,2.1927,2.2328,2.171,2.2328,0.0,0.0,0.0,0.0,0.0,0.0,0.0,0.0,0.0,0.0,0.0,0.0,0.0,0.0,0.0,0.0,0.0,0.0,0.0,0.0,0.0,0.0,0.0,0.0,0.0,0.0,0.0,0.0,2.8896,2.7925,0.0,2.6245,2.3874,2.3238,2.5331,2.7298,2.8579,2.8983,2.7592,2.7323,2.8481,2.8287,2.8799,3.0067,3.0303,3.0409,3.0405,2.999,2.9792,2.9792,2.9792,2.9792,2.9792,2.9792,2.9792,2.973,2.8726,2.7541,2.6219,2.5544,2.5397,2.5499,2.5104,2.543,2.6068,2.6113,2.5882,2.5432,2.475,2.428,2.3901,2.3386,2.3078,2.2919,2.3088,2.3085,2.3103,2.3568,2.3804,2.3987,2.4239,2.4559,2.4825,2.4847,2.5436,2.5713,2.4921,2.4423,2.3842,2.2936,2.2585,2.2196,2.1504,2.096,2.0432,1.9872,1.931,1.8642,1.7776,1.7806,1.7653,1.7121,1.777,1.8349,1.8687,1.9284,1.9954,2.0728,2.121,2.1555,2.1701,2.2786,2.2801,0.0,0.0,0.0,0.0,0.0,0.0,0.0,0.0,0.0,0.0,0.0,0.0,0.0,0.0,0.0,0.0,0.0,0.0,0.0,0.0,0.0,0.0,0.0,0.0,0.0,0.0,2.6261,2.9606,2.8382,2.7319,2.7404,2.5452,2.5433,2.8503,2.9959,3.069,3.068,2.9329,2.9052,3.0087,2.9184,2.9038,2.9779,2.9792,2.9792,2.9792,2.9792,2.9792,2.9792,2.9792,2.9792,2.9792,2.9792,2.9792,2.9792,2.9792,2.8944,2.7568,2.7065,2.7057,2.7261,2.6863,2.7192,2.7835,2.7887,2.7563,2.6935,2.569,2.4892,2.4368,2.4119,2.405,2.4102,2.4287,2.4261,2.4304,2.4741,2.4823,2.4804,2.4804,2.4899,2.5008,2.5008,2.5578,2.5994,2.5644,2.5302,2.4651,2.3354,2.3104,2.2836,2.2153,2.1572,2.1016,2.0449,1.9737,1.8932,1.8041,1.8103,1.8053,1.7701,1.8166,1.8611,1.8989,1.9565,2.0262,2.1033,2.1301,2.162,2.2002,2.3117,2.347,2.3016,0.0,0.0,0.0,0.0,0.0,0.0,0.0,0.0,0.0,0.0,0.0,0.0,0.0,0.0,0.0,0.0,0.0,0.0,0.0,0.0,0.0,0.0,0.0,2.3225,2.4742,2.567,2.5126,2.7436,2.8023,2.5354,2.7499,2.9007,2.8869,3.0139,3.1067,3.1373,3.1105,3.0577,2.9817,2.9792,2.9792,2.9792,2.9792,2.9792,2.9792,2.9867,2.9867,2.9792,2.9792,2.9792,2.9792,2.9792,2.9792,2.9792,2.9792,2.9792,2.9654,2.8234,2.7851,2.8122,2.8091,2.8109,2.8134,2.8134,2.7907,2.7633,2.762,2.7349,2.6888,2.6197,2.5965,2.5822,2.5105,2.4904,2.4904,2.4892,2.4879,2.4863,2.4854,2.4842,2.4813,2.4813,2.5389,2.5886,2.586,2.5955,2.568,2.4627,2.4326,2.4028,2.3417,2.2795,0.0,2.1589,2.0526,1.9622,1.9108,1.8594,1.8279,1.8254,1.8744,1.9045,1.9033,2.0697,2.1651,2.1614,2.2315,2.2703,2.2705,2.3387,2.4361,2.5618,0.0,0.0,0.0,0.0,0.0,0.0,0.0,0.0,0.0,0.0,0.0,0.0,0.0,0.0,0.0,0.0,0.0,0.0,0.0,0.0,0.0,0.0,2.5998,2.5998,2.799,2.9251,2.8673,2.9878,3.0444,2.9694,3.0088,3.0368,3.0342,3.0918,3.1306,3.1406,3.1298,3.0796,2.9829,2.9792,2.9792,2.9792,2.9792,2.9792,2.9817,3.1432,3.1356,2.9792,2.9792,2.9792,2.9792,2.9792,2.9792,2.9792,2.9792,2.9792,2.9754,2.9359,2.8913,2.8499,2.821,2.8342,2.8681,2.8681,2.8628,2.8488,2.8081,2.7884,2.7755,2.7554,2.7502,2.7449,2.7246,2.7188,2.71,2.6703,2.6603,2.6502,2.6118,2.5703,2.5385,2.5385,2.5541,2.5577,2.5179,2.5787,2.6188,2.5589,2.5133,2.4603,2.3909,2.2963,0.0,2.2098,2.113,2.0402,2.0251,2.0101,1.9836,1.9397,1.9899,2.005,1.961,2.0463,2.1212,2.173,2.2304,2.3328,2.4812,2.4566,2.5055,0.0,0.0,0.0,0.0,0.0,0.0,0.0,0.0,0.0,0.0,0.0,0.0,0.0,0.0,0.0,0.0,0.0,0.0,0.0,0.0,0.0,0.0,2.7278,2.8225,2.8673,3.0013,3.0842,3.0612,3.1063,3.1406,3.1406,3.1105,3.103,3.1344,3.1394,3.162,3.2097,3.2123,3.1834,3.1205,3.118,3.0753,2.9804,2.9792,3.0276,3.1205,3.2487,3.2424,3.1155,3.0218,2.9792,0.0,2.9792,2.9792,2.9792,2.9792,2.9792,0.0,0.0,0.0,0.0,0.0,2.9013,2.927,2.927,2.912,2.8838,2.8543,2.8279,2.8109,2.8109,2.8109,2.8109,2.8109,2.8109,2.7984,2.7437,2.7298,2.7223,2.6914,2.657,2.6302,2.6302,2.6302,2.6138,2.5611,2.6059,0.0,2.619,2.5494,2.4823,2.4394,2.3374,2.2646,2.2646,2.1895,2.1281,2.1069,2.1043,2.0892,2.0539,2.0829,0.0,0.0,0.0,2.1759,2.2516,2.3095,0.0,0.0,0.0,2.6136,2.7452,0.0,0.0,0.0,2.5919,2.6185,0.0,0.0,0.0,0.0,0.0,0.0,0.0,0.0,0.0,0.0,0.0,0.0,0.0,0.0,0.0,0.0,2.9014,2.9901,3.1135,3.1201,3.1255,3.1551,3.1587,3.1633,3.1721,3.1381,3.1419,3.2072,3.1796,3.2035,3.3052,0.0,0.0,0.0,0.0,3.216,3.0181,3.0168,3.1168,3.3102,3.3102,3.3027,3.2839,3.0879,2.9905,2.9792,2.9792,2.9792,2.9804,2.993,2.9905,2.9792,2.9792,2.9792,2.9792,2.9792,2.9792,2.9792,2.9792,0.0,0.0,2.9007,2.8681,2.8298,2.8298,2.8298,2.8298,2.8298,2.8298,2.8172,2.7607,2.7487,2.7474,2.7412,2.7386,2.7386,2.7386,2.7386,2.7248,2.6776,2.6688,2.6663,2.66,2.5636,2.4892,2.4892,2.3923,2.3195,2.3195,2.2671,2.2146,2.1719,0.0,0.0,2.1595,2.1595,2.1556,2.1507,2.2224,2.2991,2.377,2.456,2.5545,2.6806,2.6906,2.7489,2.8607,2.8682,2.8366,2.7687,2.6913,2.719,0.0,0.0,0.0,0.0,0.0,0.0,0.0,0.0,0.0,0.0,0.0,0.0,0.0,0.0,0.0,2.9853,3.0084,3.0657,3.2876,3.2476,3.2163,3.2709,3.2776,3.3002,3.3592,3.3065,3.2738,3.2876,3.2813,3.2876,3.309,3.3102,3.3102,3.3102,3.3102,3.2889,3.2474,3.2462,3.2675,3.3102,0.0,0.0,3.17,3.1293,3.0628,2.9792,2.9792,2.9792,2.9867,3.0721,3.057,2.9792,2.9792,2.9792,2.9792,2.9792,2.9792,2.9792,2.9792,2.9716,2.9628,2.9628,2.9553,2.9465,2.9465,2.9465,0.0,2.9465,2.9465,2.934,2.8743,2.8593,2.848,2.8059,2.7946,2.7946,2.7946,2.7946,2.7908,2.7808,2.7783,2.7645,2.7223,2.6189,2.5448,2.5448,2.4519,2.3841,2.3841,2.2922,2.2433,2.2757,2.2408,2.2159,2.2159,2.2159,2.197,2.1532,2.3123,2.438,2.5039,2.6821,2.7948,2.8213,2.8747,2.8875,2.8607,2.9144,2.9054,2.8382,2.7685,2.778,0.0,0.0,0.0,0.0,0.0,0.0,0.0,0.0,0.0,0.0,0.0,2.5536,2.6993,0.0,2.895,3.1059,3.1803,3.2296,3.2872,3.3085,3.319,3.3102,3.3102,3.3241,3.3605,3.3316,3.3102,3.3102,3.3102,3.3102,3.3102,3.3102,3.3102,3.3102,3.3102,3.3102,3.3102,3.3102,3.3102,3.3102,3.3102,3.2801,3.2248,3.2248,3.1959,3.1457,3.1457,3.1457,3.1469,3.1633,3.1281,3.057,3.0306,3.0043,2.9792,2.9792,2.9792,2.9792,2.9792,2.9792,2.9792,2.9792,2.9792,2.9792,2.9792,2.9792,2.9792,2.9792,2.9792,2.9666,2.9057,2.8888,2.8825,2.8568,2.8493,2.8493,2.8493,2.8493,2.8417,2.8141,2.8109,2.8009,2.7745,2.7231,2.6565,2.5724,2.4921,2.439,2.439,2.3901,2.3549,2.3549,2.3311,2.3022,2.2734,2.2694,2.2596,2.232,2.3967,2.5246,2.5868,2.7641,2.8906,2.9535,2.9879,2.9879,2.9549,2.9879,2.9728,2.9099,2.8768,2.8605,0.0,0.0,0.0,0.0,0.0,0.0,0.0,0.0,2.3985,2.5219,2.65,2.8007,2.9828,3.0013,3.044,3.2137,3.3197,3.353,3.2704,3.3404,3.3844,3.3467,3.3228,3.3266,3.3693,3.3354,3.3278,3.3705,3.2753,3.2629,3.3687,3.3743,3.3542,3.3115,3.3517,3.3743,3.3743,3.3252,3.2937,3.2844,3.2598,3.2711,3.3102,3.3102,3.2568,3.1723,3.2677,3.3102,3.304,3.2298,3.1834,3.1512,3.1085,3.0381,2.9632,2.9771,2.9792,2.9792,2.9792,2.9792,2.9792,2.9792,2.9792,2.9792,2.9792,2.9792,2.9792,2.9792,2.9792,2.9691,2.9195,2.907,2.907,2.907,2.907,2.907,2.907,2.907,2.8944,2.8511,2.8436,2.8398,2.8285,2.826,2.777,2.6302,2.5548,2.513,2.513,2.4942,2.4628,2.4205,2.4155,2.3951,2.3471,2.3434,2.3384,2.3283,2.4834,2.5951,2.6382,2.8048,2.946,3.0477,3.0628,3.0628,3.0507,3.0628,3.0372,2.9773,2.9922,2.9609,2.178,2.1708,2.2203,2.2966,2.3281,2.4148,0.0,0.0,2.7329,2.831,2.9529,3.0566,3.1044,3.1392,3.219,3.392,3.3192,3.2792,3.3831,3.3542,3.3555,3.4414,3.3671,3.3869,3.5852,3.4246,3.3906,3.5866,3.1556,3.0951,3.577,3.604,3.5125,3.3153,3.5022,3.604,3.604,3.3801,3.2394,3.184,3.0835,3.1301,3.3102,3.3102,3.0687,2.6768,3.119,3.3102,3.304,3.2298,3.2039,3.2093,3.2031,3.0787,2.9076,2.961,2.9792,2.9792,2.9792,2.9792,2.9792,2.9792,2.9792,2.9792,2.9792,2.9792,2.9792,2.9792,2.9792,2.9779,2.9716,2.9691,2.9691,2.9691,2.9691,2.9691,2.9691,2.9691,2.9679,2.9616,2.9603,2.944,2.8907,2.8819,2.8593,2.7934,2.6959,2.6311,2.6311,2.5423,2.4779,2.4729,2.4716,2.4691,2.4628,2.46,2.4402,2.3941,2.5852,2.6822,2.6423,2.8893,3.0357,3.0507,3.1077,3.1092,3.0507,3.1092,3.1046,3.0417,3.1017,3.0927,2.4067,2.4262,2.4593,0.0,2.5644,2.6721,2.7547,2.8358,2.9117,2.9743,3.1171,3.2382,3.2648,3.3086,3.3481,0.0,3.3676,3.3646,3.3567,3.3822,3.3972,3.3784,3.3379,3.3454,3.4384,3.4798,3.5389,3.6342,3.4289,3.4008,3.6287,3.3405,3.126,3.0338,3.1206,3.2431,3.3995,3.2355,3.0894,2.9722,2.9516,2.9192,2.8832,3.0305,2.9039,2.5893,2.943,3.1201,3.1709,3.2375,3.2246,3.1588,3.1272,3.0155,2.8848,2.9885,2.9638,2.8917,2.9573,2.9792,2.9792,2.9792,2.9792,2.9792,2.9792,2.9792,2.9792,2.9792,2.9792,2.9792,2.9792,2.9792,2.9792,2.9792,2.9792,2.9792,2.9792,2.9792,2.9792,2.9792,2.9792,2.9716,2.9478,2.9428,2.9352,2.9126,2.8134,2.7437,2.7437,2.6741,2.6,2.5347,2.4992,2.4804,2.4804,2.4804,2.4704,2.4478,2.5708,2.6755,2.742,2.8958,3.0203,3.1077,3.1361,3.1361,3.1091,3.1361,3.1361,3.1091,3.1376,3.1346,2.501,0.0,0.0,2.6302,2.7768,2.9079,2.845,2.961,3.0927,3.1317,3.2461,3.3444,3.3507,3.3856,3.3993,3.36,3.3947,3.4098,3.3608,3.396,3.3746,3.2361,3.1089,3.0527,3.102,3.4304,3.6405,3.6405,3.5017,3.4167,3.4167,3.0447,2.8291,2.8291,2.8777,2.999,3.1927,3.1031,2.9937,2.8694,2.8659,2.7737,2.6118,2.817,2.7845,2.5854,2.8332,2.9738,3.0372,3.1821,3.1733,3.0663,3.0289,2.9304,2.8299,2.9575,2.9401,2.8613,2.929,2.9738,2.9993,2.9842,2.9792,2.9792,2.9792,2.9792,2.9792,2.9792,2.9792,2.9792,2.9792,2.9792,2.9792,2.9792,2.9792,2.9792,2.9792,2.9792,2.9792,2.9792,2.9792,2.9792,2.9792,2.9792,2.9792,2.9792,2.9101,2.8511,2.8329,2.7846,2.7193,2.6377,2.5933,2.5707,2.5707,2.5569,2.5435,2.5285,2.62,2.7188,2.8167,2.9299,3.0411,3.1481,3.1511,3.1511,3.1511,3.1511,3.1511,3.1511,3.1511,3.1511,0.0,0.0,2.611,2.7652,2.944,3.0917,3.1284,3.2315,3.3271,3.3556,3.3653,3.3565,3.3186,3.312,3.3463,3.45,3.3809,3.3504,3.4502,3.3771,3.2336,3.0163,2.6052,2.407,0.0,3.2272,3.6405,3.6405,3.152,2.8548,2.8548,2.8398,2.8291,2.8291,3.0005,3.0968,3.1045,3.056,3.0102,2.9641,2.8344,2.748,2.6976,2.7911,2.7356,2.5854,2.8332,2.9407,2.9487,3.0327,3.0192,2.9453,2.9442,2.841,2.7082,2.8242,2.9044,2.9504,2.8994,2.9598,3.0487,2.9967,2.9792,2.9792,2.9792,2.9792,2.9792,2.9792,2.9792,2.9792,2.9792,2.9792,2.9792,2.9792,2.9792,2.9792,2.9792,2.9792,2.9792,2.9792,2.9792,2.9792,2.9792,2.9792,2.9792,2.9792,2.9767,2.9541,2.8957,2.8405,2.8059,2.8034,2.8009,2.8009,2.8009,2.7519,2.6997,2.6474,2.7998,2.8685,2.821,3.0294,3.1452,3.1511,3.1511,3.1511,3.1511,3.1511,3.1511,3.1511,3.1511,3.1511,2.3312,0.0,2.8464,2.9448,3.1101,3.2471,3.2385,3.2993,3.3304,3.2371,3.2781,3.3102,3.2487,3.2374,3.265,3.3495,3.3341,3.3065,3.2918,3.3027,3.2286,3.0055,2.8462,0.0,0.0,0.0,0.0,3.1204,2.9329,2.8291,2.8291,2.8291,2.8291,2.8291,2.89,2.9207,2.9207,2.9049,2.8899,2.8759,2.8305,2.8034,2.7871,2.8164,2.7559,2.6403,2.8311,2.8934,2.8612,2.8902,2.8844,2.8566,2.8319,2.7343,2.6159,2.652,2.7359,2.8374,2.9073,2.9364,2.9505,3.0124,3.0331,3.0269,2.9905,3.0313,3.0783,3.0432,3.0583,3.0846,3.0846,3.0846,3.0846,3.0846,3.0846,3.0846,3.0846,3.0583,3.0331,3.0331,3.0043,2.9792,2.9792,2.9792,2.9792,2.9792,2.9792,2.9578,2.8982,2.8743,2.8493,2.8147,2.8109,2.8109,2.8109,2.7934,2.7595,2.706,2.8054,2.8693,2.8742,2.9988,3.0955,3.1496,3.1511,3.1511,3.1511,3.1511,3.1511,3.1511,3.1511,3.1511,2.5096,2.7616,3.0063,3.106,3.2391,3.33,3.271,3.2898,3.2947,3.2159,3.2386,3.2399,3.1406,3.1218,3.1494,3.2349,3.2839,3.3203,3.353,3.3303,3.2575,3.1155,3.0287,2.8948,0.0,0.0,0.0,2.7497,2.7949,2.8291,2.8291,2.8291,2.8291,2.8291,2.8291,2.8291,2.8291,2.8291,2.8291,2.8291,2.8291,2.8291,2.8291,2.8291,2.7773,2.6967,2.8336,2.8442,2.7657,2.7888,2.7828,2.7523,2.7092,2.6528,2.5923,2.5767,2.6321,2.7372,2.8755,2.9289,2.9478,3.0057,3.0233,3.0171,2.9834,3.0204,3.0774,3.0863,3.1135,3.1406,3.1406,3.1406,3.1406,3.1406,3.1406,3.1406,3.1406,3.1135,3.0896,3.0896,3.0457,3.0093,3.0093,2.993,2.9792,2.9792,2.9792,2.9654,2.927,2.922,2.9082,2.875,2.8712,2.8712,2.8712,2.8505,2.8381,2.8411,2.8767,2.9203,2.9764,3.0385,3.097,3.1496,3.1511,3.1511,3.1511,3.1511,3.1511,3.1511,3.175,3.1854,2.8368,2.997,3.0856,3.2423,3.3257,3.3413,3.2411,3.219,3.2315,3.2876,3.2399,3.1469,0.0,0.0,2.9967,3.1067,3.2248,3.3793,3.5916,3.4447,3.314,0.0,0.0,0.0,0.0,0.0,0.0,2.5737,0.0,2.8291,2.8291,2.8291,2.8291,2.8291,2.8291,2.8291,2.8291,2.8291,2.8291,2.8291,2.8291,2.8291,2.8291,2.8291,2.7978,2.7464,2.8359,2.7928,2.6649,2.7283,2.7107,2.6357,2.5884,2.5962,2.6309,2.5893,2.6001,2.6567,2.8045,2.929,3.0139,2.9685,2.9553,2.9541,2.9517,2.9595,2.9905,3.1022,3.1408,3.1494,3.1494,3.1494,3.1494,3.1494,3.1494,3.1494,3.1494,3.1449,3.1436,3.1436,3.0997,3.06,3.06,3.0156,2.9792,2.9792,2.9792,2.9792,2.9792,2.9792,2.9792,2.9792,2.9792,2.9792,2.9792,2.927,2.935,3.0344,3.0072,3.0296,3.1147,3.1427,3.154,3.1511,3.1511,3.1511,3.1511,3.154,3.1555,3.157,3.2243,3.2542,2.8642,3.0361,3.195,3.2801,3.3132,3.3068,3.2344,3.1888,3.1574,3.1482,3.0859,3.0263,0.0,0.0,0.0,2.8762,3.0809,0.0,3.3781,3.3919,0.0,3.3165,0.0,3.0696,2.9721,2.8029,0.0,0.0,2.7793,2.8291,2.8291,2.8291,2.8291,2.8291,2.8291,2.8291,2.8291,2.8291,2.8291,2.8291,2.8291,2.8291,2.8291,2.8291,2.8037,2.7614,2.7718,2.7317,2.6603,2.677,2.673,2.65,2.5923,2.5776,2.5913,2.624,2.6162,2.6079,2.74,2.7761,2.7791,2.8589,2.8853,2.8763,2.8312,2.9398,3.0757,3.0689,3.1622,3.2675,3.2675,3.2675,3.2675,3.2675,3.2675,3.2675,3.2675,3.2303,3.2001,3.2001,3.1248,3.06,3.06,3.0156,2.9792,2.9792,2.9792,2.9792,2.9792,2.9792,2.9792,2.9792,2.9792,2.9792,2.9792,2.9654,2.9801,3.0352,3.0862,3.116,3.119,3.187,3.2004,3.1511,3.1511,3.1511,3.1511,3.1989,3.2258,3.2258,3.2931,3.3245,3.0407,3.1825,3.3031,3.3379,3.3278,3.3014,3.2667,3.1984,3.1494,3.1808,3.0746,0.0,0.0,0.0,0.0,0.0,0.0,0.0,3.4346,3.4334,3.4158,0.0,3.3234,0.0,3.0839,3.0112,2.9172,0.0,2.834,2.8758,2.8875,2.8885,2.8826,2.8709,2.8428,2.8291,2.8291,2.8291,2.8291,2.8291,2.8291,2.8291,2.8291,2.8291,2.8018,2.7585,0.0,2.7305,2.6924,2.6636,2.6627,2.6689,2.5981,2.5835,2.601,2.6162,2.6133,2.6094,2.6595,2.6533,2.6462,2.7759,2.8162,2.8095,2.7768,2.8574,2.9772,3.0524,3.1482,3.2392,3.2961,3.3102,3.3102,3.3102,3.3102,3.3102,3.3102,3.2839,3.2516,3.2244,3.1704,3.1152,3.0676,3.0337,3.0068,2.9849,2.9792,2.9792,2.9792,2.9792,2.9792,2.9792,2.9792,2.9792,2.9792,2.9792,3.0246,3.1299,3.1512,3.1775,3.2198,3.2391,3.2168,3.1511,3.1795,3.1795,3.1511,3.2467,3.2781,3.2527,3.3484,3.3934,3.2675,3.363,3.401,3.401,3.3555,3.3052,3.2914,3.1771,3.1117,3.2399,0.0,2.8072,2.3873,2.3108,2.4578,2.9063,0.0,3.3793,3.5803,3.495,3.44,3.5162,3.4379,3.317,3.1667,3.1618,3.0793,2.8724,2.9051,2.9364,2.9422,2.9647,2.9608,2.9256,2.8613,2.8291,2.8291,2.8291,2.8291,2.8291,2.8291,2.8291,2.8291,2.8291,2.8008,2.7539,2.7712,0.0,2.748,2.6768,2.6689,2.6898,2.605,2.5942,2.626,2.5854,2.5952,2.625,2.5845,2.5693,2.5878,2.6993,2.7363,2.7363,2.7363,2.7471,2.8062,3.0339,3.1089,3.15,3.2776,3.3102,3.3115,3.319,3.3203,3.3228,3.3303,3.3266,3.304,3.2441,3.2244,3.1893,3.0964,3.0751,3.0557,3.008,2.9942,2.9905,2.9905,2.9842,2.9792,2.9792,2.9792,2.9792,2.9792,2.9914,3.0727,3.25,3.2162,3.2423,3.3587,3.2991,3.2362,3.178,3.2258,3.2258,3.1765,3.3021,3.3335,3.2796,3.4054,3.4622,3.3567,3.4274,3.4552,3.4552,3.3822,3.2851,3.1922,2.9434,0.0,0.0,2.8605,2.6256,2.3584,2.3108,2.4578,2.9063,0.0,0.0,0.0,0.0,3.3983,0.0,0.0,0.0,0.0,0.0,0.0,0.0,0.0,2.958,2.8591,2.9883,3.0331,2.9549,2.8748,2.8291,2.8291,2.8291,2.8291,2.8291,2.8291,2.8291,2.8291,2.8291,2.8232,2.8144,2.8174,0.0,2.8076,2.7246,2.6943,2.6898,2.605,2.5757,2.5815,2.5713,2.5757,2.5815,2.5737,2.5693,2.5742,2.5965,2.6038,2.6038,2.6038,2.6754,2.7908,2.9315,3.0429,3.15,3.2776,3.3102,3.3215,3.3668,3.3759,3.3884,3.4336,3.4073,3.3596,3.3052,3.2541,3.2131,3.1943,3.1549,3.1223,3.1155,3.0746,3.045,3.045,3.0068,2.9792,2.9792,2.9792,2.9792,2.9792,3.0501,3.1439,3.2522,3.3229,3.3812,3.4322,3.3679,3.3275,3.3155,3.2721,3.2721,3.3155,3.3934,3.4263,3.4173,3.4951,3.5325,3.3793,3.4886,3.5441,3.4841,3.3884,3.2952,3.2411,0.0,0.0,0.0,2.3756,2.2688,2.158,0.0,0.0,0.0,0.0,0.0,0.0,0.0,0.0,0.0,0.0,0.0,0.0,0.0,0.0,0.0,0.0,3.0293,2.9678,2.9891,2.9686,2.8963,2.8826,2.863,2.8301,2.8621,2.8621,2.8291,2.8291,2.8291,2.8291,2.8291,2.8291,2.8291,2.8291,0.0,2.8223,2.7373,2.6986,2.6898,2.605,2.5693,2.5693,2.5693,2.5693,2.5693,2.5693,2.5693,2.5693,2.5693,2.5693,2.5693,2.5693,2.6135,2.7006,2.8878,2.9818,3.0698,3.2612,3.3102,3.3241,3.3771,3.4123,3.4377,3.464,3.4286,3.3822,3.358,3.3056,3.2566,3.2244,3.1989,3.1725,3.1436,3.1173,3.0922,3.0638,3.0382,3.0118,2.9829,2.9792,2.9792,2.9792,3.0658,3.1609,3.254,3.3467,3.4153,3.4486,3.4188,3.3859,3.3499,3.3529,3.3529,3.3499,3.4517,3.4847,3.4518,3.519,3.5504,3.422,3.5525,3.618,3.529,3.3709,3.2148,3.118,2.5172,0.0,0.0,1.9798,1.9798,1.9798,0.0,2.3687,0.0,2.5744,0.0,0.0,0.0,0.0,0.0,0.0,0.0,0.0,0.0,0.0,0.0,0.0,0.0,3.0713,2.9637,2.8904,2.8662,2.8894,2.8846,2.8513,2.8836,2.8777,2.8291,2.8291,2.8291,2.8291,2.8291,2.8291,2.8291,2.8291,0.0,0.0,2.7393,2.7031,2.6836,2.602,2.5693,2.5693,2.5693,2.5693,2.5693,2.5693,2.5693,2.5693,2.5693,2.5693,2.5693,2.5693,2.5693,2.6221,2.8693,2.9407,2.9977,3.246,3.3102,3.3266,3.3922,3.4477,3.4879,3.4879,3.4439,3.4035,3.3922,3.3479,3.2952,3.2478,3.239,3.2252,3.1834,3.165,3.1373,3.0846,3.0663,3.0387,2.9854,2.9792,2.9876,3.0075,3.0964,3.1906,3.2837,3.3791,3.444,3.4695,3.4578,3.4323,3.3933,3.4293,3.4308,3.3933,3.4996,3.5235,3.4727,3.525,3.5504,3.5625,3.6304,3.638,3.6279,3.3153,2.9026,2.4954,0.0,0.0,1.9798,1.9798,1.9798,1.9798,0.0,0.0,0.0,0.0,2.5581,0.0,0.0,0.0,0.0,0.0,0.0,0.0,0.0,0.0,0.0,0.0,0.0,3.0098,2.9004,2.8828,2.9796,2.8887,2.863,2.9109,2.864,2.834,2.8291,2.8291,2.8291,2.8291,2.8291,2.8291,2.8291,2.8291,0.0,0.0,2.7471,2.708,2.6578,2.5942,2.5693,2.5693,2.5693,2.5693,2.5693,2.5693,2.5693,2.5693,2.5693,2.5693,2.5693,2.5693,2.5693,2.6221,2.8693,2.9407,2.9977,3.246,3.3102,3.3366,3.4377,3.5042,3.542,3.542,3.5017,3.4477,3.3997,3.3479,3.3077,3.3027,3.3027,3.3002,3.2952,3.2478,3.1938,3.1406,3.0909,3.0387,2.9854,2.9792,3.0139,3.1007,3.1924,3.2873,3.3808,3.4806,3.5377,3.5415,3.4817,3.4757,3.531,3.4772,3.4772,3.5325,3.5444,3.5474,3.5415,3.5474,3.5504,3.46,3.5879,3.6091,3.4736,3.2085,2.8624,2.4123,0.0,0.0,1.9798,1.9798,1.9798,1.9798,2.1617,0.0,0.0,0.0,0.0,2.5223,0.0,0.0,0.0,0.0,0.0,0.0,0.0,0.0,0.0,0.0,0.0,2.9785,2.9551,2.9414,2.9328,2.916,2.907,2.9014,2.8789,2.8545,2.8291,2.8291,2.8291,2.8291,2.8291,2.8291,2.8291,2.8291,0.0,0.0,2.7217,2.6793,2.6539,2.5932,2.5923,2.623,2.6162,2.6172,2.623,2.6152,2.6133,2.6059,2.5796,2.5693,2.5693,2.5693,2.5693,2.6221,2.8693,2.9407,2.9977,3.246,3.3341,3.3684,3.4123,3.4879,3.5495,3.5495,3.532,3.513,3.4916,3.4173,3.3571,3.3571,3.3316,3.3102,3.3102,3.2901,3.2528,3.1964,3.1411,3.0884,3.0344,2.9993,2.9953,3.0336,3.1737,3.2767,3.3136,3.4624,3.5504,3.5504,3.5235,3.522,3.5488,3.5235,3.5235,3.5504,3.5504,3.5504,3.5504,3.5504,3.5504,3.2608,3.3834,3.3906,3.1695,3.0477,2.8448,0.0,0.0,0.0,1.8957,1.9346,1.9798,1.9798,2.1065,2.2594,2.4061,0.0,2.4871,2.6259,2.5013,0.0,0.0,0.0,0.0,0.0,0.0,0.0,0.0,0.0,0.0,2.9823,3.0039,2.9805,2.8918,2.9101,2.9101,2.8889,2.8762,2.8584,2.8291,2.8291,2.8291,2.8291,2.8291,2.8291,2.8291,2.8291,0.0,0.0,2.7018,2.65,2.6279,2.5864,2.5952,2.6309,2.623,2.625,2.6328,2.6367,2.6309,2.6172,2.5962,2.5815,2.5693,2.5693,2.5693,2.6221,2.8693,2.9931,3.0901,3.2646,3.3391,3.3696,3.3859,3.459,3.5307,3.547,3.537,3.5307,3.547,3.4502,3.3709,3.3872,3.3467,3.3102,3.3102,3.3102,3.2889,3.229,3.1876,3.1373,3.0663,3.0518,3.0497,3.0621,3.1829,3.2855,3.3411,3.4739,3.5504,3.5504,3.5504,3.5504,3.5504,3.5504,3.5504,3.5504,3.5504,3.5504,3.5504,3.5504,3.5504,2.9829,2.9854,2.9346,2.7115,2.819,2.8047,0.0,0.0,0.0,1.6988,1.828,1.9798,1.9798,1.9823,2.0551,2.2757,2.4992,0.0,2.4261,2.5947,0.0,0.0,0.0,0.0,0.0,0.0,0.0,0.0,0.0,0.0,3.0215,3.0195,2.9805,2.8918,2.8525,2.8506,2.8889,2.8506,2.8301,2.8291,2.8291,2.8291,2.8291,2.8291,2.8291,0.0,0.0,0.0,0.0,2.69,2.624,2.5718,2.5693,2.5693,2.5718,2.5718,2.5718,2.5786,2.624,2.6103,2.5786,2.624,2.6084,2.5693,2.5693,2.5693,2.6221,2.8693,3.1168,3.3068,3.309,3.3102,3.3241,3.3771,3.4301,3.4853,3.5382,3.5069,3.4879,3.5395,3.4211,3.3278,3.3809,3.3467,3.3102,3.3102,3.3102,3.2889,3.229,3.2202,3.1767,3.0713,3.1423,3.2145,3.2541,3.2575,3.3411,3.5343,3.5488,3.5504,3.5504,3.5504,3.5504,3.5504,3.5504,3.5504,3.5504,3.5504,3.5504,3.5504,3.5504,3.5504,2.8549,2.5347,2.0538,1.9849,2.1907,2.3379,2.0464,0.0,0.0,1.6638,1.7063,1.8004,1.9522,1.9798,2.0513,2.2744,2.5008,0.0,0.0,0.0,0.0,0.0,0.0,0.0,0.0,0.0,0.0,0.0,0.0,0.0,2.9823,2.9482,2.9336,2.9393,2.8945,2.8779,2.8889,2.8506,2.8291,2.8291,2.8291,2.8291,2.8291,2.8291,2.8291,0.0,0.0,0.0,0.0,2.6338,2.5874,2.5693,2.5693,2.5693,2.5747,2.605,2.6182,2.6201,2.6338,2.6299,2.6162,2.5971,2.5825,2.5693,2.5693,2.6318,2.7518,2.9943,3.1833,3.3102,3.3102,3.3102,3.314,3.3316,3.3759,3.4289,3.4841,3.5117,3.5431,3.5994,3.5378,3.4678,3.4477,3.401,3.3508,3.3153,3.3102,3.3027,3.2851,3.2453,3.2355,3.2733,3.2312,3.1895,3.1649,3.282,3.3808,3.4428,3.5116,3.5504,3.5504,3.5504,3.5504,3.5504,3.5504,3.5504,3.5504,3.5504,3.5504,3.5504,3.5504,3.5504,0.0,2.1943,1.8594,1.6914,2.0602,0.0,0.0,0.0,0.0,0.0,1.65,1.7176,1.9397,1.9798,2.0401,2.2207,2.3862,2.4869,0.0,0.0,0.0,0.0,0.0,0.0,0.0,0.0,0.0,0.0,0.0,0.0,2.9618,2.915,2.9043,2.9316,2.8906,2.8682,2.8682,2.8428,2.8291,2.8291,2.8291,2.8174,2.7969,2.8027,2.7927,0.0,0.0,0.0,0.0,2.6245,2.5962,2.5942,2.5776,2.5693,2.5747,2.602,2.6143,2.6162,2.6328,2.6279,2.6133,2.5991,2.5845,2.5878,2.6815,2.7649,2.868,3.0653,3.2118,3.3102,3.3102,3.3102,3.3102,3.3102,3.3517,3.4048,3.4577,3.4966,3.5443,3.623,3.5755,3.5167,3.5006,3.4377,3.3784,3.3454,3.3228,3.3102,3.3102,3.2767,3.2701,3.3149,3.3218,3.2922,3.209,3.3245,3.416,3.4543,3.5149,3.5504,3.5504,3.5504,3.5504,3.5504,3.5504,3.5504,3.5504,3.5504,3.5504,3.5504,3.5504,3.5504,0.0,1.9661,2.1739,1.7551,2.2736,2.8329,0.0,0.0,0.0,0.0,0.0,1.7176,1.9397,1.9798,2.0175,2.1319,2.2129,2.2798,0.0,0.0,0.0,0.0,0.0,0.0,0.0,0.0,0.0,0.0,0.0,0.0,2.9569,2.9111,2.885,2.885,2.8496,2.8291,2.8291,2.8291,2.8291,2.8291,2.8291,2.7978,2.7396,2.7516,2.7184,0.0,0.0,0.0,0.0,2.6504,2.6338,2.6299,2.5874,2.5693,2.5693,2.5693,2.5693,2.5767,2.6201,2.605,2.5776,2.6211,2.6074,2.6173,2.8657,2.9407,2.9681,3.0966,3.2196,3.3102,3.3102,3.3102,3.3102,3.3102,3.347,3.401,3.4577,3.4665,3.5002,3.6155,3.5504,3.4929,3.5408,3.464,3.3935,3.3909,3.3454,3.3102,3.3102,3.3102,3.291,3.2433,3.4067,3.4771,3.3726,3.3973,3.4553,3.5439,3.5504,3.5504,3.5504,3.5504,3.5504,3.5504,3.5504,3.5504,3.5504,3.5504,3.5504,3.5504,3.5504,3.5504,1.9071,0.0,1.8826,1.6955,1.8079,1.9484,0.0,0.0,0.0,0.0,0.0,1.7176,1.9397,1.9798,2.0175,2.1319,2.376,2.5697,2.6241,0.0,0.0,0.0,0.0,0.0,0.0,0.0,0.0,0.0,0.0,2.9142,2.9082,2.8672,2.8437,2.8437,2.834,2.8291,2.8291,2.8291,2.8291,2.8291,2.8291,2.7978,2.7367,2.6547,2.6069,0.0,0.0,0.0,2.6001,2.5903,2.5864,2.5854,2.5732,2.5693,2.5693,2.5693,2.5693,2.5728,2.5835,2.5796,2.5728,2.5835,2.5796,2.6173,2.8657,2.9407,2.9841,3.2042,3.2862,3.3102,3.3102,3.3102,3.3102,3.3102,3.3203,3.3555,3.449,3.4377,3.4537,3.6116,3.5818,3.5345,3.547,3.4954,3.4364,3.396,3.3454,3.3102,3.3102,3.3102,3.3369,3.4038,3.409,3.4611,3.5889,3.5947,3.5798,3.5518,3.5504,3.5504,3.5504,3.5504,3.5504,3.5504,3.5504,3.5504,3.5504,3.5504,3.5504,3.5504,3.5504,3.5504,1.9708,1.8564,1.7229,1.6648,1.65,1.65,1.65,0.0,0.0,0.0,0.0,0.0,1.8067,1.9949,0.0,2.0778,2.3957,0.0,0.0,0.0,0.0,0.0,0.0,0.0,0.0,0.0,0.0,0.0,0.0,2.8811,2.8643,2.8418,2.823,2.8044,2.8034,2.8096,2.8291,2.8291,2.8291,2.8291,2.8291,2.792,2.7217,2.6576,2.6089,0.0,0.0,0.0,2.5693,2.5693,2.5693,2.5693,2.5693,2.5693,2.5693,2.5693,2.5693,2.5693,2.5693,2.5693,2.5679,2.5474,2.5542,2.6133,2.8418,2.925,2.9909,3.2404,3.3102,3.3102,3.3102,3.3102,3.3165,3.3416,3.3479,3.3759,3.4841,3.464,3.4688,3.6105,3.5918,3.5583,3.5881,3.523,3.4603,3.4324,3.3596,3.3102,3.3102,3.3102,3.3313,3.389,3.4071,3.4493,3.5317,3.614,3.6552,3.6384,3.6372,3.6372,3.6372,3.6103,3.5804,3.5504,3.5504,3.5504,3.5504,3.5504,3.5504,3.5504,3.5504,3.5504,1.9708,1.837,1.6909,1.6573,1.6752,1.6898,0.0,0.0,0.0,0.0,0.0,0.0,0.0,0.0,0.0,0.0,0.0,0.0,0.0,0.0,0.0,0.0,0.0,0.0,0.0,0.0,0.0,0.0,0.0,2.8672,2.831,2.8232,2.8093,2.78,2.7721,2.7858,2.822,2.822,2.8232,2.8291,2.8232,2.7783,2.6986,2.6943,2.6459,2.5693,0.0,0.0,2.5693,2.5693,2.5693,2.5693,2.5693,2.5693,2.5693,2.5693,2.5693,2.5693,2.5693,2.5669,2.5542,2.5219,2.5322,2.6004,2.8147,2.9071,2.9909,3.2404,3.3102,3.3102,3.3102,3.3102,3.3241,3.3771,3.3897,3.4176,3.5257,3.5092,3.5052,3.6168,3.5918,3.5694,3.6293,3.5516,3.4791,3.4715,3.3859,3.319,3.3102,3.3102,3.3102,3.3102,3.3911,3.4294,3.3876,3.562,3.691,3.7424,3.7423,3.736,3.727,3.6851,3.6267,3.5519,3.5609,3.5609,3.5504,3.5504,3.5504,3.5504,3.5504,3.5504,1.9708,1.946,1.8765,1.6951,1.7877,1.8727,0.0,0.0,0.0,0.0,0.0,0.0,0.0,0.0,0.0,0.0,0.0,0.0,0.0,0.0,0.0,0.0,0.0,0.0,0.0,0.0,0.0,0.0,0.0,2.8359,2.8301,2.7985,2.7917,2.8193,2.7878,2.7721,2.779,2.779,2.7966,2.8291,2.7956,2.75,2.6976,2.665,2.6211,2.5693,0.0,2.5693,2.5693,2.5693,2.5693,2.5693,2.5693,2.5693,2.5693,2.5693,2.5693,2.5693,2.5693,2.5488,2.518,2.5112,2.5141,2.5634,2.806,2.9071,2.9909,3.2404,3.3102,3.3102,3.3102,3.3102,3.3241,3.3771,3.3897,3.4176,3.5257,3.5092,3.5052,3.6168,3.5918,3.5694,3.6293,3.583,3.5207,3.4778,3.4173,3.3608,3.3153,3.3102,3.3102,3.3102,3.3261,3.3674,3.4483,3.5632,3.6708,3.7672,3.7529,3.718,3.6673,3.7045,3.6716,3.5534,3.6058,3.6058,3.5504,3.5504,3.5504,3.5504,3.5504,3.5504,1.9318,1.9708,2.0151,2.2019,2.1079,0.0,0.0,0.0,0.0,0.0,0.0,0.0,0.0,0.0,0.0,0.0,0.0,0.0,0.0,0.0,0.0,0.0,0.0,0.0,0.0,0.0,0.0,0.0,0.0,0.0,2.7995,2.78,2.7673,2.7598,2.7197,2.7106,2.7314,2.7115,2.7213,2.7598,2.7673,2.734,2.667,2.6475,2.6152,2.5693,0.0,2.5693,2.5693,2.5693,2.5693,2.5693,2.5693,2.5693,2.5693,2.5693,2.5693,2.5693,2.5693,2.5439,2.5053,2.4795,2.5322,2.637,2.7944,2.9349,3.0743,3.259,3.3102,3.3102,3.3102,3.3102,3.3316,3.4135,3.4327,3.465,3.5742,3.5531,3.538,3.623,3.5918,3.5694,3.6293,3.5667,3.4969,3.4741,3.3997,3.3391,3.3128,3.3102,3.3215,3.3504,3.352,3.3725,3.4225,3.5217,3.6644,3.8542,3.8219,3.7808,3.7541,3.7449,3.6971,3.6058,3.6344,3.6163,3.5504,3.5504,3.5504,3.5504,3.5504,3.5504,1.8989,1.9708,2.0666,2.4739,0.0,0.0,0.0,0.0,0.0,0.0,0.0,0.0,0.0,0.0,0.0,0.0,0.0,0.0,0.0,0.0,0.0,0.0,0.0,0.0,0.0,0.0,0.0,0.0,0.0,0.0,2.7555,2.7448,2.7256,2.7021,2.6602,2.6543,2.6865,2.665,2.6699,2.6986,2.7282,2.7047,2.6412,2.6279,2.6055,2.5693,2.5693,2.5693,2.5693,2.5693,2.5693,2.5698,2.5601,2.5562,2.5571,2.5679,2.5693,2.5693,2.5693,2.5439,2.5033,2.4678,2.5626,2.7064,2.7988,2.9634,3.1478,3.2754,3.3102,3.3102,3.3102,3.3102,3.3341,3.4299,3.4502,3.4803,3.5954,3.582,3.5682,3.6281,3.6031,3.5807,3.6143,3.5479,3.4803,3.454,3.3809,3.3241,3.3115,3.3102,3.3316,3.3847,3.3784,3.3805,3.4076,3.4842,3.6374,3.8881,3.8545,3.8296,3.8392,3.8063,3.7509,3.6733,3.6868,3.6553,3.5729,3.5729,3.5654,3.5504,3.5504,3.5504,1.8989,1.9708,1.9789,2.0163,0.0,0.0,0.0,0.0,0.0,0.0,0.0,0.0,0.0,0.0,0.0,0.0,0.0,0.0,0.0,0.0,0.0,0.0,0.0,0.0,0.0,0.0,0.0,0.0,0.0,0.0,2.706,2.6689,2.665,2.6976,2.6602,2.6406,2.6435,2.6787,2.6957,2.7012,2.665,2.647,2.6402,2.5942,2.5713,2.5693,2.5693,2.5693,2.5693,2.5693,2.5693,2.5645,2.5283,2.5141,2.519,2.5562,2.5693,2.5693,2.5693,2.5439,2.5082,2.5053,2.5889,2.7128,2.8377,2.9889,3.1478,3.2754,3.3102,3.3102,3.3102,3.3102,3.3241,3.3822,3.396,3.4261,3.532,3.552,3.5682,3.6281,3.6367,3.618,3.5656,3.5495,3.5094,3.411,3.3884,3.3658,3.3165,3.3102,3.3316,3.3847,3.3454,3.3556,3.4556,3.4709,3.5655,3.7772,3.7861,3.8014,3.8372,3.896,3.8644,3.736,3.7943,3.7661,3.6434,3.6434,3.6103,3.5504,3.5504,3.5504,1.9438,1.9708,1.9708,1.9708,0.0,0.0,0.0,0.0,0.0,0.0,0.0,0.0,0.0,0.0,0.0,0.0,0.0,0.0,0.0,0.0,0.0,0.0,0.0,0.0,0.0,0.0,0.0,0.0,0.0,0.0,2.8391,2.8548,2.8208,2.7276,2.6887,2.647,2.5962,2.5571,2.5376,2.5386,2.6074,2.625,2.5952,2.5786,2.5693,2.5693,2.5693,2.5693,2.5693,2.5693,2.5552,2.5273,2.4834,2.4668,2.4717,2.5156,2.5322,2.5322,2.5322,2.5491,2.5747,2.5818,2.7144,2.8857,2.9682,3.1071,3.2469,3.2961,3.3102,3.3102,3.3102,3.3102,3.3241,3.3771,3.4161,3.459,3.5332,3.5782,3.6019,3.5881,3.5832,3.5656,3.5104,3.4728,3.4374,3.396,3.3608,3.3454,3.3571,3.3605,3.3796,3.4327,3.4223,3.4123,3.4212,3.4796,3.5661,3.6744,3.7035,3.7736,3.8967,3.8871,3.8347,3.7419,3.8063,3.7569,3.5878,3.6314,3.6164,3.5519,3.5923,3.5893,1.9708,1.9708,2.0103,0.0,0.0,0.0,0.0,0.0,0.0,0.0,0.0,0.0,0.0,0.0,0.0,0.0,0.0,0.0,0.0,0.0,0.0,0.0,0.0,0.0,0.0,0.0,0.0,0.0,0.0,0.0,0.0,2.9258,2.8934,2.7555,2.727,2.6904,2.634,2.5407,2.4933,2.4943,2.5499,2.5605,2.5298,2.5435,2.5425,2.5298,2.5298,2.5298,2.5298,2.5298,2.5238,2.5185,2.4992,2.506,2.5274,2.5374,2.5627,2.5908,2.5908,2.6229,2.663,2.6719,2.8091,2.9836,3.036,3.1602,3.2864,3.3052,3.3102,3.3102,3.3102,3.3102,3.319,3.3558,3.3922,3.4327,3.4879,3.5316,3.5552,3.5293,3.5245,3.5092,3.454,3.4276,3.4098,3.3922,3.3721,3.3734,3.411,3.4161,3.4236,3.4427,3.4439,3.4236,3.3684,3.4628,3.5516,3.6146,3.6784,3.7809,3.934,3.896,3.8497,3.803,3.8272,3.7749,3.6417,3.6462,3.6357,3.6118,3.6372,3.6254,1.9711,1.9702,0.0,0.0,0.0,0.0,0.0,0.0,0.0,0.0,0.0,0.0,0.0,0.0,0.0,0.0,0.0,0.0,0.0,0.0,0.0,0.0,0.0,0.0,0.0,0.0,0.0,0.0,0.0,0.0,0.0,2.8299,2.8344,2.7721,2.771,2.771,2.7677,2.6641,2.6104,2.6081,2.4945,2.4414,2.4424,2.4887,2.4848,2.4437,2.4437,2.4437,2.4437,2.4437,2.4821,2.5466,2.5915,2.6507,2.7011,2.6348,2.6786,2.7677,2.7677,2.7699,2.771,2.771,2.8587,2.9718,3.0262,3.1269,3.234,3.2939,3.3102,3.3102,3.3102,3.3102,3.3102,3.3102,3.3102,3.3266,3.3796,3.3909,3.4073,3.459,3.469,3.4515,3.3985,3.4327,3.4502,3.3985,3.4374,3.4703,3.4703,3.4703,3.449,3.396,3.3897,3.3671,3.3153,3.41,3.5163,3.6152,3.7228,3.829,3.9355,3.9406,3.9406,3.9391,3.8736,3.8409,3.8395,3.7137,3.6821,3.7404,3.6791,3.6508,2.1197,2.0624,0.0,0.0,0.0,0.0,0.0,0.0,0.0,0.0,0.0,0.0,0.0,0.0,0.0,0.0,0.0,0.0,0.0,0.0,0.0,0.0,0.0,0.0,0.0,0.0,0.0,0.0,0.0,0.0,0.0,3.0269,2.9927,2.8524,2.8533,2.8144,2.7295,2.6675,2.5979,2.5185,2.5136,2.5288,2.5606,2.5739,2.6139,2.6731,2.6731,2.6731,2.6709,2.6431,2.6422,2.6582,2.6438,2.6505,2.6689,2.6765,2.7006,2.7273,2.7273,2.7806,2.8491,2.8521,2.9606,3.0968,3.1491,3.2203,3.2876,3.3052,3.3102,3.3102,3.3102,3.3102,3.3203,3.3558,3.3947,3.4274,3.4427,3.4753,3.4853,3.4261,3.4148,3.3972,3.3442,3.3771,3.4085,3.3922,3.4374,3.4703,3.4703,3.4703,3.449,3.396,3.3897,3.3671,3.3153,3.5116,3.6319,3.6206,3.7909,3.9068,3.9388,3.9406,3.9167,3.8706,3.8958,3.8646,3.7704,3.7778,3.7689,3.7402,3.7689,3.7569,2.2012,0.0,0.0,0.0,0.0,0.0,0.0,0.0,0.0,0.0,0.0,0.0,0.0,0.0,0.0,0.0,0.0,0.0,0.0,0.0,0.0,0.0,0.0,0.0,0.0,0.0,0.0,0.0,0.0,0.0,0.0,3.0796,3.0487,2.9237,2.9233,2.8919,2.8184,2.7481,2.6584,2.5462,2.5252,2.5538,2.6259,2.5969,2.6333,2.7218,2.7218,2.7218,2.7238,2.7419,2.7502,2.7467,2.7242,2.7412,2.7794,2.7563,2.7782,2.8163,2.8163,2.8624,2.9193,2.9253,2.9927,3.0859,3.1411,3.1825,3.221,3.2616,3.2729,3.2801,3.304,3.3102,3.3178,3.3517,3.3822,3.4073,3.4073,3.4477,3.4603,3.3746,3.3746,3.3721,3.319,3.3533,3.3972,3.4198,3.4678,3.4941,3.4728,3.4502,3.4274,3.3935,3.3709,3.3454,3.3128,3.4959,3.6164,3.6206,3.7814,3.8962,3.9388,3.9406,3.9212,3.8811,3.8931,3.8751,3.8195,3.8078,3.8078,3.8195,3.8332,3.8182,0.0,0.0,0.0,0.0,0.0,0.0,0.0,0.0,0.0,0.0,0.0,0.0,0.0,0.0,0.0,0.0,0.0,0.0,0.0,0.0,0.0,0.0,0.0,0.0,0.0,0.0,0.0,0.0,0.0,0.0,0.0,3.0269,3.0306,2.9817,2.9792,2.9792,2.9792,2.8767,2.7715,2.6637,2.5609,2.5651,2.6618,2.584,2.5968,2.6812,2.6812,2.6812,2.6894,2.7855,2.8255,2.8255,2.8255,2.8897,2.9663,2.8636,2.8917,2.9792,2.9792,2.9792,2.9792,2.9792,2.9829,2.9955,3.045,3.0625,3.0884,3.1842,3.2139,3.2265,3.2864,3.3027,3.3027,3.309,3.314,3.3178,3.3178,3.3567,3.3734,3.3203,3.3483,3.3671,3.319,3.3533,3.4085,3.4615,3.5107,3.5219,3.4703,3.4211,3.3884,3.3834,3.3391,3.3102,3.3102,3.4066,3.5088,3.6013,3.706,3.8088,3.9071,3.9301,3.9406,3.9406,3.8796,3.8796,3.9406,3.818,3.821,3.9391,3.8781,3.8482,0.0,0.0,0.0,0.0,0.0,0.0,0.0,0.0,0.0,0.0,0.0,0.0,0.0,0.0,0.0,0.0,0.0,0.0,0.0,0.0,0.0,0.0,0.0,0.0,0.0,0.0,0.0,0.0,0.0,0.0,2.9804,2.9905,2.9917,2.9792,2.9792,2.9792,2.9792,2.9566,2.8878,0.0,2.751,2.751,2.7735,2.6729,2.7304,2.9079,2.9079,2.9079,2.9111,2.9346,2.9424,2.9424,2.9424,2.9573,2.9772,2.9514,2.9585,2.9792,2.9792,2.9792,2.9792,2.9792,3.008,3.0437,3.0563,3.0896,3.1273,3.1499,3.1574,3.17,3.2252,3.2403,3.2516,3.2989,3.3429,3.3721,3.3721,3.3822,3.3734,3.3203,3.319,3.3241,3.3115,3.3533,3.4085,3.4615,3.4803,3.4678,3.4148,3.3972,3.3734,3.3329,3.3178,3.3102,3.3102,3.4066,3.4787,3.502,3.5987,3.6643,3.6877,3.8513,3.9406,3.9406,3.9257,3.9257,3.9406,3.9107,3.9122,3.9406,3.9257,3.9182,0.0,0.0,0.0,0.0,0.0,0.0,0.0,0.0,0.0,0.0,0.0,0.0,0.0,0.0,0.0,0.0,0.0,0.0,0.0,0.0,0.0,0.0,0.0,0.0,0.0,0.0,0.0,0.0,0.0,2.9792,2.9792,2.9792,2.9792,2.9792,2.9792,2.9792,2.9792,2.9792,2.9236,2.8096,2.7834,2.7577,2.7343,2.7854,2.8712,2.9792,2.9792,2.9792,2.9792,2.9792,2.9792,2.9792,2.9792,2.9792,2.9792,2.9792,2.9792,2.9792,2.9792,2.9792,2.9792,2.9792,2.9993,3.0218,3.0218,3.0407,3.0683,3.0947,3.1022,3.1198,3.198,3.2194,3.2353,3.2964,3.3316,3.353,3.353,3.3709,3.3734,3.3203,3.3316,3.3404,3.314,3.3533,3.3909,3.3935,3.4161,3.4123,3.3583,3.353,3.3416,3.3128,3.3102,3.3102,3.3102,3.362,3.415,3.4664,3.519,3.5708,3.6178,3.7257,3.8111,3.862,3.9141,3.9406,3.9406,3.9406,3.9406,3.9406,3.9406,3.9406,0.0,0.0,0.0,0.0,0.0,0.0,0.0,0.0,0.0,0.0,0.0,0.0,0.0,0.0,0.0,0.0,0.0,0.0,0.0,0.0,0.0,0.0,0.0,0.0,0.0,0.0,0.0,0.0,0.0,2.9741,2.9641,2.9741,2.9704,2.9503,2.9691,2.9741,2.9641,2.9741,2.9326,2.8386,2.7846,2.7292,2.6836,2.8672,2.9553,2.9641,2.9741,2.9792,2.9792,2.9792,2.9792,2.9792,2.9792,2.9792,2.9792,2.9792,2.9792,2.9792,2.9792,2.9792,2.9792,2.9792,2.9792,2.9792,2.9792,2.9792,2.9892,3.0344,3.045,3.0701,3.1767,3.2056,3.224,3.2939,3.3102,3.3102,3.3102,3.3454,3.3621,3.319,3.3467,3.3608,3.3178,3.3479,3.3608,3.3165,3.3492,3.3596,3.3153,3.3102,3.3102,3.3102,3.3102,3.3102,3.3102,3.3102,3.3471,3.4366,3.4428,3.4794,3.5634,3.5854,3.6363,3.7261,3.849,3.9123,3.9123,3.9301,3.9406,3.9406,3.9406,3.9406,0.0,0.0,0.0,0.0,0.0,0.0,0.0,0.0,0.0,0.0,0.0,0.0,0.0,0.0,0.0,0.0,0.0,0.0,0.0,0.0,0.0,0.0,0.0,0.0,0.0,0.0,0.0,0.0,2.9503,2.9578,2.9045,2.9515,2.9352,2.836,2.9277,2.9553,2.9032,2.9541,2.9721,2.9573,2.8961,2.84,2.7895,2.8186,2.8568,2.9057,2.9578,2.9792,2.9792,2.9792,2.9792,2.9792,2.9792,2.9792,2.9792,2.9792,2.9792,2.9792,2.9792,2.9792,2.9792,2.9792,2.9792,2.9792,2.9792,2.9792,2.9804,2.988,2.9905,3.0143,3.1223,3.152,3.1783,3.2851,3.3102,3.3102,3.3102,3.3153,3.319,3.3115,3.3153,3.319,3.3115,3.3153,3.3178,3.3102,3.3165,3.3178,3.3102,3.3102,3.3102,3.3102,3.3102,3.3102,3.3102,3.3102,3.3154,3.3292,3.3313,3.3377,3.3513,3.4408,3.4979,3.5102,3.7016,3.8013,3.8013,3.8943,3.9406,3.9406,3.9406,3.9406,0.0,0.0,0.0,0.0,0.0,0.0,0.0,0.0,0.0,0.0,0.0,0.0,0.0,0.0,0.0,0.0,0.0,0.0,0.0,0.0,0.0,0.0,0.0,0.0,0.0,0.0,0.0,0.0,2.8699,2.8737,2.8467,2.8712,2.8624,2.8122,2.8586,2.8725,2.8442,2.8712,2.8699,2.8404,2.8122,2.772,2.7211,2.7507,2.7946,2.8467,2.8737,2.885,2.885,2.885,2.885,2.8875,2.9189,2.9296,2.9333,2.9679,2.9792,2.9792,2.9792,2.9792,2.9792,2.9792,2.9792,2.9792,2.9792,2.9792,2.9792,2.9792,2.9792,2.998,3.0746,3.0959,3.1235,3.2328,3.2591,3.2679,3.3027,3.3102,3.3102,3.3102,3.3102,3.3102,3.3102,3.3102,3.3102,3.3102,3.3102,3.3102,3.3102,3.3102,3.3102,3.3102,3.3102,3.3102,3.3102,3.3102,3.3102,3.3102,3.3102,3.3102,3.3102,3.3556,3.3797,3.3797,3.5828,3.6891,3.691,3.7979,3.8509,3.8527,3.9123,3.9406,0.0,0.0,0.0,0.0,0.0,0.0,0.0,0.0,0.0,0.0,0.0,0.0,0.0,0.0,0.0,0.0,0.0,0.0,0.0,0.0,0.0,0.0,0.0,0.0,0.0,0.0,0.0,0.0,2.8021,2.8047,2.7896,2.8034,2.7971,2.7695,2.7959,2.8034,2.7896,2.7896,2.7713,2.7298,2.716,2.6889,2.6512,2.6896,2.7311,2.7708,2.7984,2.8109,2.8109,2.8109,2.8109,2.8147,2.8543,2.8781,2.8938,2.9415,2.9666,2.9792,2.9792,2.9792,2.9792,2.9792,2.9792,2.9792,2.9792,2.9792,2.9792,2.9792,2.9792,2.9917,3.045,3.06,3.0839,3.1775,3.2001,3.2202,3.2939,3.3102,3.3102,3.3102,3.3102,3.3102,3.3102,3.3102,3.3102,3.3102,3.3102,3.3102,3.3102,3.3102,3.3102,3.3102,3.3102,3.3102,3.3102,3.3102,3.3102,3.3102,3.3102,3.3102,3.3102,3.3102,3.3102,3.3102,3.463,3.5547,3.5814,3.7151,3.7791,3.7829,3.8907,3.9406,0.0,0.0,0.0,0.0,0.0,0.0,0.0,0.0,0.0,0.0,0.0,0.0,0.0,0.0,0.0,0.0,0.0,0.0,0.0,0.0,0.0,0.0,0.0,0.0,0.0,0.0,0.0,0.0,2.7808,2.7871,2.7374,2.7821,2.762,2.6612,2.7557,2.7858,2.7349,2.7336,2.7324,2.7286,2.6788,2.6524,2.6499,2.6524,2.6549,2.6637,2.7657,2.8109,2.8109,2.8109,2.8109,2.8109,2.8134,2.8442,2.8888,2.8944,2.9296,2.9792,2.9792,2.9792,2.9792,2.9792,2.9792,2.9792,2.9792,2.9792,2.9792,2.9792,2.9792,2.9917,3.045,3.06,3.0738,3.1298,3.1436,3.1758,3.2864,3.3102,3.3102,3.3102,3.3102,3.3102,3.3102,3.3102,3.3102,3.3102,3.3102,3.3102,3.3102,3.3102,3.3102,3.3102,3.3102,3.3102,3.3102,3.3102,3.3102,3.3102,3.3102,3.3102,3.3102,3.3102,3.3102,3.3102,3.3219,3.3755,3.4787,3.6802,3.7791,3.7829,3.8907,3.9406,0.0,0.0,0.0,0.0,0.0,0.0,0.0,0.0,0.0,0.0,0.0,0.0,0.0,0.0,0.0,0.0,0.0,0.0,0.0,0.0,0.0,0.0,0.0,0.0,0.0,0.0,0.0,0.0,0.0,2.6821,2.6243,2.6389,2.6163,2.5435,2.577,2.5883,2.5711,2.5711,2.5711,2.5711,2.5837,2.5917,2.5929,2.6323,2.6499,2.6499,2.6507,2.6721,2.7072,2.7072,2.7072,2.7097,2.7462,2.7908,2.843,2.8781,2.927,2.9792,2.9792,2.9792,2.9792,2.9792,2.9792,2.9792,2.9792,2.9792,2.9792,2.9792,2.9792,2.9842,3.0043,3.0093,3.0306,3.1205,3.1662,3.2127,3.2927,3.3102,3.3102,3.3102,3.3102,3.3102,3.3102,3.3102,3.3102,3.3102,3.3102,3.3102,3.3102,3.3102,3.3102,3.3102,3.3102,3.3102,3.3102,3.3102,3.3102,3.3102,3.3102,3.3102,3.3102,3.3102,3.3102,3.3102,3.3102,3.3304,3.367,3.5102,3.614,3.6794,3.7866,3.8745,0.0,0.0,0.0,0.0,0.0,0.0,0.0,0.0,0.0,0.0,0.0,0.0,0.0,0.0,0.0,0.0,0.0,0.0,0.0,0.0,0.0,0.0,0.0,0.0,0.0,0.0,0.0,0.0,0.0,0.0,2.536,2.5335,2.5172,2.4816,2.4804,2.4804,2.4804,2.4628,2.4628,2.4804,2.4983,2.5159,2.5347,2.5753,2.5929,2.5917,2.5703,2.5829,2.6197,2.6197,2.6197,2.626,2.6809,2.7361,2.7896,2.843,2.8994,2.9528,2.9729,2.9792,2.9792,2.9792,2.9792,2.9792,2.9792,2.9792,2.9792,2.9792,2.9792,2.9792,2.9792,2.9792,2.9967,3.0683,3.1273,3.1775,3.2164,3.27,3.304,3.2851,3.2964,3.304,3.2839,3.2977,3.3102,3.3102,3.3102,3.3102,3.3102,3.3102,3.3102,3.3102,3.3102,3.3102,3.3102,3.3102,3.3102,3.3102,3.3102,3.3102,3.3102,3.3102,3.3102,3.3102,3.3102,3.3102,3.3102,3.417,3.5231,3.6231,3.7305,3.8364,0.0,0.0,0.0,0.0,0.0,0.0,2.2014,0.0,2.3062,0.0,0.0,0.0,0.0,0.0,0.0,0.0,0.0,0.0,0.0,0.0,0.0,0.0,0.0,0.0,0.0,0.0,0.0,0.0,2.4804,2.4791,2.4779,2.4766,2.4741,2.4729,2.4729,2.4729,2.4704,2.4192,2.4205,2.4729,2.4202,2.4268,2.4779,2.4791,2.4804,2.4829,2.5335,2.5548,2.5548,2.5598,2.5624,2.5674,2.6273,2.6839,2.7361,2.7883,2.843,2.8982,2.9566,2.9798,2.9792,2.9792,2.9792,2.9792,2.9792,2.9792,2.9792,2.9792,2.9792,2.9792,2.9792,2.9792,2.9792,2.9817,3.0231,3.06,3.0613,3.1901,3.2889,3.2303,3.2641,3.2876,3.2303,3.2679,3.3077,3.3102,3.3102,3.3102,3.3102,3.3102,3.3102,3.3102,3.3102,3.3102,3.3102,3.3102,3.3102,3.3102,3.3102,3.3102,3.3102,3.3102,3.3102,3.3102,3.3102,3.3102,3.3102,3.415,3.519,3.6231,3.7324,3.8401,2.2558,0.0,0.0,0.0,0.0,0.0,2.0113,2.0684,2.1248,0.0,0.0,0.0,0.0,0.0,0.0,0.0,0.0,0.0,0.0,0.0,0.0,0.0,0.0,0.0,0.0,0.0,0.0,0.0,2.4804,2.4628,2.4243,2.3813,2.3384,2.301,2.2985,2.2809,2.241,2.2273,2.246,2.2985,2.3236,2.3662,2.4243,2.4628,2.4804,2.4791,2.4556,2.4443,2.4531,2.5741,2.6248,2.6273,2.6436,2.6839,2.7324,2.7474,2.8109,2.8913,2.9095,2.944,2.9792,2.9792,2.9792,2.9792,2.9792,2.9792,2.9792,2.9792,2.9792,2.9792,2.9792,2.9792,2.9892,3.0294,3.0487,3.0701,3.1097,3.1537,3.1834,3.165,3.175,3.1938,3.2156,3.234,3.2591,3.304,3.3102,3.3102,3.3102,3.3102,3.3102,3.3102,3.3102,3.3102,3.3102,3.3102,3.3102,3.3102,3.3102,3.3102,3.3102,3.3102,3.3102,3.3102,3.3102,3.3102,3.3102,3.3398,3.4457,3.6237,3.8092,3.9123,0.0,0.0,0.0,0.0,0.0,0.0,1.9809,2.0109,2.0448,0.0,2.0499,0.0,0.0,0.0,0.0,0.0,0.0,0.0,0.0,0.0,0.0,0.0,0.0,0.0,0.0,2.3138,2.3088,2.3401,2.3411,2.3288,2.2962,2.2621,2.2282,2.1983,2.197,2.182,2.1507,2.1507,2.1656,2.197,2.2282,2.2623,2.299,2.3512,2.3763,2.3775,2.3941,2.4004,2.4092,2.5301,2.5653,2.5477,2.5703,2.6118,2.662,2.6871,2.7512,2.8254,2.8493,2.8812,2.9126,2.9352,2.9428,2.9478,2.9716,2.9792,2.9792,2.9792,2.9792,2.9792,2.9792,2.9792,2.988,3.0193,3.0269,3.0462,3.1161,3.1014,3.0796,3.1022,3.1248,3.1486,3.1813,3.2051,3.2403,3.3014,3.3102,3.3014,3.2776,3.2952,3.3002,3.2742,3.2952,3.3102,3.3102,3.3102,3.3102,3.3102,3.3102,3.3102,3.3102,3.3102,3.3102,3.3102,3.3102,3.3215,3.342,3.3215,3.4178,3.6271,3.8683,3.9828,0.0,0.0,0.0,0.0,0.0,0.0,2.0432,2.0311,2.0371,2.0611,2.0162,0.0,0.0,0.0,0.0,0.0,0.0,0.0,0.0,0.0,0.0,0.0,0.0,0.0,2.1319,2.1319,2.1319,2.1319,2.1319,2.1344,2.1407,2.1407,2.1407,2.1407,2.1407,2.1382,2.1319,2.1256,2.1294,2.1407,2.1344,2.1382,2.152,2.1995,2.2207,2.227,2.3288,2.3753,2.3853,2.4327,2.4352,2.4142,2.4616,2.513,2.5649,2.621,2.6788,2.7374,2.7846,2.8097,2.8267,2.8756,2.8957,2.9095,2.9641,2.9792,2.9792,2.9792,2.9792,2.9792,2.9792,2.9792,2.9792,2.9792,2.9876,3.0177,3.1026,3.0633,3.0253,3.0729,3.1111,3.1352,3.1319,3.1833,3.2416,3.286,3.2964,3.2856,3.2432,3.2845,3.3005,3.2529,3.2946,3.324,3.3124,3.3102,3.3102,3.3102,3.3102,3.3102,3.3102,3.3102,3.3102,3.3102,3.3102,3.3366,3.3897,3.3676,3.4546,3.6478,3.9228,4.0502,0.0,0.0,0.0,0.0,0.0,0.0,2.0619,2.0369,2.0302,0.0,2.002,0.0,0.0,0.0,0.0,0.0,0.0,0.0,0.0,0.0,0.0,0.0,0.0,0.0,2.0164,2.0125,2.0125,2.0125,2.0125,2.0338,2.083,2.0855,2.0855,2.0855,2.0855,2.0615,2.0137,1.9698,1.9949,2.0842,2.0364,2.0614,2.1507,2.1606,2.1656,2.167,2.1897,2.2234,2.2633,2.2734,2.3524,2.4653,2.4766,2.513,2.5611,2.5724,2.6419,2.7311,2.7424,2.8021,2.8769,2.8881,2.9233,2.9641,2.9754,2.9792,2.9792,2.9792,2.9792,2.9792,2.9792,2.9792,2.9792,2.9792,3.0381,3.097,3.1161,3.1646,3.2092,3.2196,3.1673,3.1144,3.081,3.1823,3.247,3.1844,3.2102,3.2629,3.3388,3.3589,3.3798,3.4177,3.4321,3.4037,3.3176,3.3102,3.3102,3.3102,3.3102,3.3102,3.3102,3.3102,3.3102,3.3102,3.3102,3.3366,3.3897,3.5571,3.6853,3.7792,4.0125,4.1209,0.0,0.0,0.0,2.1837,0.0,0.0,0.0,2.1,2.0878,2.0691,2.049,2.0193,0.0,0.0,0.0,0.0,0.0,0.0,0.0,0.0,0.0,0.0,0.0,0.0,1.9435,1.9638,1.9699,1.941,1.9155,1.9258,1.9823,1.9598,1.9698,2.0226,1.9723,1.9447,1.9397,1.887,1.8894,1.9447,1.9145,1.9447,2.025,2.0526,2.0816,2.1119,2.1382,2.1794,2.2295,2.2295,2.296,2.3948,2.3948,2.4449,2.5193,2.5193,2.5912,2.6901,2.6901,2.7248,2.7745,2.8021,2.8499,2.9001,2.9277,2.9566,2.9792,2.9792,2.9792,2.9792,2.9792,2.9792,2.9914,3.0381,3.0852,3.1462,3.2393,3.2593,3.2749,3.3206,3.2925,3.2477,3.2072,3.2619,3.3034,3.2869,3.3074,3.3337,3.3563,3.4164,3.4549,3.4549,3.4653,3.4491,3.3932,3.342,3.3102,3.3102,3.3102,3.3102,3.3102,3.3102,3.3228,3.3483,3.3504,3.3884,3.469,3.6435,3.7526,3.8111,4.071,4.1897,0.0,0.0,0.0,0.0,0.0,2.2281,0.0,0.0,0.0,2.1289,0.0,0.0,0.0,0.0,0.0,0.0,0.0,0.0,0.0,0.0,0.0,0.0,0.0,0.0,0.0,1.922,1.9296,1.8859,1.8335,1.828,1.8826,1.8339,1.8493,1.9459,1.8644,1.8405,1.8845,1.8305,1.8103,1.8204,1.8103,1.838,1.9008,1.9447,1.9962,2.0553,2.098,2.1481,2.1995,2.2108,2.2458,2.2957,2.3058,2.3735,2.4653,2.4766,2.5448,2.6348,2.6461,2.6562,2.6738,2.7273,2.7914,2.8511,2.8944,2.9396,2.9792,2.9792,2.9792,2.985,3.0017,3.0075,3.0317,3.1254,3.1609,3.2159,3.3671,3.3567,3.3377,3.4143,3.4279,3.4066,3.3369,3.3495,3.3753,3.3937,3.4064,3.4029,3.3742,3.4618,3.5132,3.4891,3.5012,3.5069,3.5007,3.4016,3.342,3.342,3.3219,3.3102,3.3102,3.3102,3.3462,3.4188,3.4007,3.4427,3.5495,3.6718,3.7665,3.8421,4.1046,4.2365,0.0,0.0,0.0,0.0,2.2484,0.0,0.0,0.0,2.2389,2.2044,0.0,0.0,0.0,0.0,0.0,0.0,0.0,0.0,0.0,0.0,0.0,0.0,0.0,0.0,0.0,1.8263,1.8273,1.8213,1.7704,1.7657,1.8249,1.7782,1.7763,1.8367,1.8255,1.823,1.828,1.7763,1.7726,1.8191,1.7726,1.8028,1.9008,1.9058,1.9397,1.9911,1.9962,2.0339,2.0918,2.1394,2.1907,2.2433,2.2907,2.3512,2.4155,2.4628,2.518,2.5791,2.6311,2.6813,2.7298,2.7833,2.8725,2.9616,2.9679,2.9741,2.9792,2.9792,2.9792,2.9979,3.0814,3.1044,3.1291,3.2231,3.3084,3.3739,3.3959,3.4624,3.5197,3.531,3.5326,3.4769,3.3005,3.3818,3.4292,3.2991,3.3197,3.3825,3.47,3.4938,3.5422,3.6417,3.6553,3.6419,3.6058,3.5109,3.4532,3.4532,3.3641,3.3102,3.3102,3.3102,3.3802,3.5301,3.4385,3.4427,3.5495,3.6718,3.8116,3.9713,4.1047,4.2213,0.0,0.0,0.0,0.0,0.0,0.0,2.265,0.0,2.2669,0.0,0.0,0.0,0.0,0.0,0.0,0.0,1.9539,0.0,0.0,0.0,0.0,0.0,0.0,0.0,0.0,0.0,0.0,0.0,1.8076,1.7894,1.8183,1.7657,1.7608,1.8179,1.7565,1.7377,1.7727,1.7173,1.7174,1.7727,1.7511,1.7801,1.8543,1.8857,1.9121,1.9346,1.966,2.0138,2.0729,2.1268,2.182,2.2357,2.2895,2.3474,2.4067,2.4603,2.513,2.5686,2.6298,2.665,2.6989,2.7821,2.821,2.8542,2.9503,2.9566,2.9346,2.9691,2.9792,3.0017,3.0951,3.1199,3.1573,3.3066,3.3705,3.416,3.4741,3.5213,3.5504,3.5504,3.5504,3.523,3.4409,3.4825,3.5028,3.4385,3.4474,3.4784,3.5219,3.5625,3.62,3.7063,3.6943,3.689,3.7099,3.6166,3.5567,3.5567,3.4602,3.4037,3.4037,3.4037,3.4774,3.6393,3.5672,3.5661,3.6438,3.6659,3.7851,3.9921,4.1063,4.2208,2.2296,0.0,0.0,0.0,0.0,0.0,0.0,0.0,0.0,0.0,0.0,0.0,0.0,0.0,0.0,0.0,0.0,1.8988,0.0,0.0,0.0,0.0,0.0,0.0,0.0,0.0,0.0,0.0,0.0,1.8153,1.8373,1.785,1.7718,1.8167,1.7368,1.7085,1.7368,1.6937,1.6874,1.7149,1.7149,1.7513,1.8205,1.8606,1.8945,1.9233,1.9622,2.005,2.0515,2.1206,2.1732,2.2159,2.2832,2.3474,2.4054,2.444,2.4917,2.546,2.6042,2.6461,2.6851,2.762,2.7821,2.7959,2.9176,2.9346,2.929,2.9986,3.0177,3.0457,3.1664,3.1979,3.2393,3.401,3.4411,3.461,3.5343,3.5504,3.5504,3.5504,3.5504,3.5504,3.5504,3.5504,3.5504,3.5504,3.5504,3.5504,3.5504,3.5923,3.6522,3.733,3.7131,3.7317,3.8161,3.7252,3.6507,3.6217,3.5507,3.5231,3.5534,3.5271,3.5886,3.75,3.6868,3.6865,3.759,3.7234,3.821,4.0382,4.0894,4.1906,0.0,0.0,0.0,2.2615,0.0,0.0,0.0,0.0,2.4069,0.0,0.0,0.0,0.0,0.0,0.0,0.0,0.0,0.0,0.0,0.0,0.0,0.0,0.0,0.0,0.0,0.0,0.0,0.0,0.0,0.0,1.8831,1.8375,1.808,1.8101,1.807,1.7807,1.7307,1.7284,1.7026,1.6536,1.6536,1.7113,1.8204,1.8229,1.8794,1.9773,1.9798,1.9811,1.9911,2.1042,2.1507,2.1633,2.2696,2.3474,2.4004,2.4017,2.4365,2.4904,2.5435,2.6356,2.7286,2.7311,2.8021,2.8869,2.8919,2.9321,2.9954,3.0895,3.1161,3.1591,3.3432,3.391,3.4177,3.5213,3.5441,3.5455,3.5488,3.5504,3.5504,3.5504,3.5504,3.5504,3.5504,3.5504,3.5504,3.5504,3.5504,3.5504,3.5504,3.5534,3.6013,3.7285,3.74,3.7921,3.9233,3.8364,3.7305,3.6271,3.6158,3.6624,3.7658,3.6702,3.6937,3.8614,3.7622,3.7655,3.884,3.8825,3.9746,4.1525,4.0447,4.1162,0.0,0.0,2.2314,2.2412,0.0,0.0,0.0,0.0,0.0,0.0,0.0,0.0,0.0,0.0,0.0,0.0,0.0,0.0,0.0,0.0,0.0,0.0,0.0,0.0,0.0,0.0,0.0,0.0,1.9192,0.0,0.0,1.8727,1.8467,1.8116,1.8106,1.8017,1.7837,1.7473,1.7405,1.7631,1.7631,1.784,1.8217,1.8945,1.9258,1.9284,1.966,1.9798,1.9886,2.1029,2.1507,2.1608,2.2681,2.3221,2.3461,2.3838,2.4343,2.4879,2.541,2.6118,2.6851,2.7341,2.7399,2.7499,2.8473,2.8473,2.8492,3.0192,3.0675,3.1177,3.3419,3.401,3.4245,3.5262,3.5504,3.5504,3.5504,3.5504,3.5504,3.5504,3.5504,3.5504,3.5504,3.5504,3.5504,3.5504,3.5878,3.5998,3.5564,3.5893,3.6148,3.6148,3.6894,3.7941,3.9287,3.9068,3.8401,3.7324,3.7266,3.742,3.7791,3.7453,3.7858,3.9143,3.8491,3.8555,3.9357,3.9047,3.9838,4.1587,4.1211,4.1844,2.2296,2.2296,0.0,2.2419,2.2436,0.0,2.2804,0.0,0.0,0.0,0.0,0.0,0.0,0.0,0.0,0.0,0.0,0.0,0.0,1.8472,0.0,0.0,0.0,0.0,0.0,0.0,0.0,1.9138,1.9558,0.0,0.0,0.0,1.9231,1.8891,1.8741,1.8583,1.839,1.8046,1.7976,1.8201,1.7974,1.8088,1.8506,1.8995,1.9246,1.9296,1.966,1.9798,1.9874,2.0829,2.1319,2.1595,2.247,2.3058,2.3474,2.3866,2.4469,2.5155,2.5741,2.6168,2.6575,2.7052,2.7052,2.7014,2.77,2.7675,2.7903,3.0246,3.0909,3.1455,3.39,3.4543,3.461,3.4889,3.5246,3.5392,3.5036,3.5246,3.5504,3.5504,3.5504,3.5504,3.5504,3.5504,3.5504,3.5504,3.5863,3.5983,3.5564,3.6088,3.6254,3.5579,3.6789,3.812,3.9302,3.9406,3.9104,3.8401,3.8364,3.8364,3.8364,3.8364,3.8811,3.975,3.9223,3.9396,4.0237,3.9943,4.0514,4.1878,4.1878,4.2388]},{"header":{"parameterUnit":"m.s-1","parameterCategory":1,"la1":30.6,"la2":29.2853,"lo1":-89.7004,"lo2":-87.6739,"dy":0.0162,"dx":0.0183,"nx":112,"ny":82,"refTime":"2024-02-14T06:00:00:Z","depth":0,"parameterNumber":3,"parameterNumberName":"V-component_of_WINDS"},"data":[0.0,0.0,0.0,0.0,0.0,0.0,0.0,0.0,0.0,0.0,0.0,0.0,0.0,0.0,0.0,0.0,0.0,0.0,0.0,0.0,0.0,0.0,0.0,0.0,0.0,0.0,0.0,0.0,0.0,0.0,0.0,0.0,0.0,0.0,0.0,0.0,0.0,0.0,0.0,0.0,0.0,0.0,0.0,0.0,0.0,0.0,0.0,0.0,0.0,0.0,0.0,0.0,0.0,0.0,0.0,0.0,0.0,0.0,0.0,0.0,0.0,0.0,0.0,0.0,0.0,0.0,0.0,0.0,0.0,0.0,0.0,0.0,0.0,0.0,0.0,0.0,0.0,0.0,0.0,0.0,0.0,0.0,0.0,0.0,0.0,0.0,0.0,0.0,0.0,0.0,0.8957,0.9818,1.1791,1.3425,1.4365,1.5032,1.5291,1.5082,0.0,0.0,0.0,0.0,0.0,0.0,0.0,0.0,0.0,0.0,0.0,0.0,0.0,0.0,0.0,0.0,0.0,0.0,0.0,0.0,0.0,0.0,0.0,0.0,0.0,0.0,0.0,0.0,0.0,0.0,0.0,0.0,0.0,0.0,0.0,0.0,0.0,0.0,0.0,0.0,0.0,0.0,0.0,0.0,0.0,0.0,0.0,0.0,0.0,0.0,0.0,0.0,0.0,0.0,0.0,0.0,0.0,0.0,0.0,0.0,0.0,0.0,0.0,0.0,0.0,0.0,0.0,0.0,0.0,0.0,0.0,0.0,0.0,0.0,0.0,0.0,0.0,0.0,0.0,0.0,0.0,0.0,0.0,0.0,0.0,0.0,0.0,0.0,0.0,0.0,0.0,0.0,0.0,0.0,0.0,0.0,0.0,0.0,0.0,0.0,0.0,0.0,0.0,0.0,0.9847,1.1603,1.2911,1.3929,1.4602,1.4809,1.5293,1.6189,0.0,0.0,0.0,0.0,0.0,0.0,0.0,0.0,0.0,0.0,0.0,0.0,0.0,0.0,0.0,0.0,0.0,0.0,0.0,0.0,0.0,0.0,0.0,0.0,0.0,0.0,0.0,0.0,0.0,0.0,0.0,0.0,0.0,0.0,0.0,0.0,0.0,0.0,0.0,0.0,0.0,0.0,0.0,0.0,0.0,0.0,0.0,0.0,0.0,0.0,0.0,0.0,0.0,0.0,0.0,0.0,0.0,0.0,0.0,0.0,0.0,0.0,0.0,0.0,0.0,0.0,0.0,0.0,0.0,0.0,0.0,0.0,0.0,0.0,0.0,0.0,0.0,0.0,0.0,0.0,0.0,0.0,0.0,0.0,0.0,0.0,0.0,0.0,0.0,0.0,0.0,0.0,0.0,0.0,0.0,0.0,0.0,0.0,0.0,0.0,0.0,0.0,0.0,1.0107,1.1312,1.2907,1.3804,1.4537,1.5141,1.5221,1.5718,1.6864,1.6923,0.0,0.0,0.0,0.0,0.0,0.0,0.0,0.0,0.0,0.0,0.0,0.0,0.0,0.0,0.0,0.0,0.0,0.0,0.0,0.0,0.0,0.0,0.0,0.0,0.0,0.0,0.0,0.0,0.0,0.0,0.0,0.0,0.0,0.0,0.0,0.0,0.0,0.0,0.0,0.0,0.0,0.0,0.0,0.0,0.0,0.0,0.0,0.0,0.0,0.0,0.0,0.0,0.0,0.0,0.0,0.0,0.0,0.0,0.0,0.0,0.0,0.0,0.0,0.0,0.0,0.0,0.0,0.0,0.0,0.0,0.0,0.0,0.0,0.0,0.0,0.0,0.0,0.0,0.0,0.0,0.0,0.0,0.0,0.0,0.0,0.0,0.0,0.0,0.0,0.0,0.0,0.0,0.0,0.0,0.0,0.0,0.0,0.0,0.0,0.0,0.0,0.0,1.1556,1.2544,1.3872,1.4549,1.5096,1.5565,1.5612,1.6097,1.7227,1.6677,0.0,0.0,0.0,0.0,0.0,0.0,0.0,0.0,0.0,0.0,0.0,0.0,0.0,0.0,0.0,0.0,0.0,0.0,0.0,0.0,0.0,0.0,0.0,0.0,0.0,0.0,0.0,0.0,0.0,0.0,0.0,0.0,0.0,0.0,0.0,0.0,0.0,0.0,0.0,0.0,0.0,0.0,0.0,0.0,0.0,0.0,0.0,0.0,0.0,0.0,0.0,0.0,0.0,0.0,0.0,0.0,0.0,0.0,0.0,0.0,0.0,0.0,0.0,0.0,0.0,0.0,0.0,0.0,0.0,0.0,0.0,0.0,0.0,0.0,0.0,0.0,0.0,0.0,0.0,0.0,0.0,0.0,0.0,0.0,0.0,0.0,0.0,0.0,0.0,0.0,0.0,0.0,0.0,0.0,0.0,0.0,0.0,0.0,0.0,0.0,0.0,0.0,1.234,1.3022,1.4483,1.5174,1.5554,1.5599,1.5663,1.6153,1.7221,1.633,0.0,0.0,0.0,0.0,0.0,0.0,0.0,0.0,0.0,0.0,0.0,0.0,0.0,0.0,0.0,0.0,0.0,0.0,0.0,0.0,0.0,0.0,0.0,0.0,0.0,0.0,0.0,0.0,0.0,0.0,0.0,0.0,0.0,0.0,0.0,0.0,0.0,0.0,0.0,0.0,0.0,0.0,0.0,0.0,0.0,0.0,0.0,0.0,0.0,0.0,0.0,0.0,0.0,0.0,0.0,0.0,0.0,0.0,0.0,0.0,0.0,0.0,0.0,0.0,0.0,0.0,0.0,0.0,0.0,0.0,0.0,0.0,0.0,0.0,0.0,0.0,0.0,0.0,0.0,0.0,0.0,0.0,0.0,0.0,0.0,0.0,0.0,0.0,0.0,0.0,0.0,0.0,0.0,0.0,0.0,0.0,0.0,0.0,0.0,0.0,0.0,0.0,1.3227,1.4228,0.0,1.5798,1.6162,1.6162,1.5882,1.6166,1.7231,0.0,0.0,0.0,0.0,0.0,0.0,0.0,0.0,0.0,0.0,0.0,0.0,0.0,0.0,0.0,0.0,0.0,0.0,0.0,0.0,0.0,0.0,0.0,0.0,0.0,0.0,0.0,0.0,0.0,0.0,0.0,0.0,0.0,0.0,0.0,0.0,0.0,0.0,0.0,0.0,0.0,0.0,0.0,0.0,0.0,0.0,0.0,0.0,0.0,0.0,0.0,0.0,0.0,0.0,0.0,0.0,0.0,0.0,0.0,0.0,0.0,0.0,0.0,0.0,0.0,0.0,0.0,0.0,0.0,0.0,0.0,0.0,0.0,0.0,0.0,0.0,0.0,0.0,0.0,0.0,0.0,0.0,0.0,0.0,0.0,0.0,0.0,0.0,0.0,0.0,0.0,0.0,0.0,0.0,0.0,0.0,0.0,0.0,0.0,0.0,0.0,0.0,1.2871,1.4082,1.5079,0.0,1.6249,1.65,1.65,1.6019,1.6166,1.7231,0.0,0.0,0.0,0.0,0.0,0.0,0.0,0.0,0.0,0.0,0.0,0.0,0.0,0.0,0.0,0.0,0.0,0.0,0.0,0.0,0.0,0.0,0.0,0.0,0.0,0.0,0.0,0.0,0.0,0.0,0.0,0.0,0.0,0.0,0.0,0.0,0.0,0.0,0.0,0.0,0.0,0.0,0.0,0.0,0.0,0.0,0.0,0.0,0.0,0.0,0.0,0.0,0.0,0.0,0.0,0.0,0.0,0.0,0.0,0.0,0.0,0.0,0.0,0.0,0.0,0.0,0.0,0.0,0.0,0.0,0.0,0.0,0.0,0.0,0.0,0.0,0.0,0.0,0.0,0.0,0.0,0.0,0.0,0.0,0.0,0.0,0.0,0.0,0.0,0.0,0.0,0.0,0.0,0.0,0.0,0.0,0.0,0.0,0.0,0.0,0.0,0.0,1.4449,1.4866,1.538,1.6395,1.65,1.65,1.65,1.6019,1.6166,0.0,0.0,0.0,0.0,0.0,0.0,0.0,0.0,0.0,0.0,0.0,0.0,0.0,0.0,0.0,0.0,0.0,0.0,0.0,0.0,0.0,0.0,0.0,0.0,0.0,0.0,0.0,0.0,0.0,0.0,0.0,0.0,0.0,0.0,0.0,0.0,0.0,0.0,0.0,0.0,0.0,0.0,0.0,0.0,0.0,0.0,0.0,0.0,0.0,0.0,0.0,0.0,0.0,0.0,0.0,0.0,0.0,0.0,0.0,0.0,0.0,0.0,0.0,0.0,0.0,0.0,0.0,0.0,0.0,0.0,0.0,0.0,0.0,0.0,0.0,0.0,0.0,0.0,0.0,0.0,0.0,0.0,0.0,0.0,0.0,0.0,0.0,0.0,0.0,0.0,0.0,0.0,0.0,0.0,0.0,0.0,0.0,0.0,0.0,0.0,0.0,0.0,0.0,1.4449,1.4791,1.5287,1.6384,1.65,1.65,1.65,1.6019,1.6004,1.6682,0.0,0.0,0.0,0.0,0.0,0.0,0.0,0.0,0.0,0.0,0.0,0.0,0.0,0.0,0.0,0.0,0.0,0.0,0.0,0.0,0.0,0.0,0.0,0.0,0.0,0.0,0.0,0.0,0.0,0.0,0.0,0.0,0.0,0.0,0.0,0.0,0.0,0.0,0.0,0.0,0.0,0.0,0.0,0.0,0.0,0.0,0.0,0.0,0.0,0.0,0.0,0.0,0.0,0.0,0.0,0.0,0.0,0.0,0.0,0.0,0.0,0.0,0.0,0.0,0.0,0.0,0.0,0.0,0.0,0.0,0.0,0.0,0.0,0.0,0.0,0.0,0.0,0.0,0.0,0.0,0.0,0.0,0.0,0.0,0.0,0.0,0.0,0.0,0.0,0.0,0.0,0.0,0.0,0.0,0.0,0.0,0.0,0.0,0.0,0.0,0.0,0.0,1.488,1.5294,1.5743,1.643,1.65,1.65,1.65,1.6197,1.616,1.6486,0.0,0.0,0.0,0.0,0.0,0.0,0.0,0.0,0.0,0.0,0.0,0.0,0.0,0.0,0.0,0.0,0.0,0.0,0.0,0.0,0.0,0.0,0.0,0.0,0.0,0.0,0.0,0.0,0.0,0.0,0.0,0.0,0.0,0.0,0.0,0.0,0.0,0.0,0.0,0.0,0.0,0.0,0.0,0.0,0.0,0.0,0.0,0.0,0.0,0.0,0.0,0.0,0.0,0.0,0.0,0.0,0.0,0.0,0.0,0.0,0.0,0.0,0.0,0.0,0.0,0.0,0.0,0.0,0.0,0.0,0.0,0.0,0.0,0.0,0.0,0.0,0.0,0.0,0.0,0.0,0.0,0.0,0.0,0.0,0.0,0.0,0.0,0.0,0.0,0.0,0.0,0.0,0.0,0.0,0.0,0.0,0.0,0.0,0.0,0.0,0.0,0.0,1.552,1.6091,1.6437,1.6488,1.65,1.6522,1.6563,1.6532,1.6522,1.6563,0.0,0.0,0.0,0.0,0.0,0.0,0.0,0.0,0.0,0.0,0.0,0.0,0.0,0.0,0.0,0.0,0.0,0.0,0.0,0.0,0.0,0.0,0.0,0.0,0.0,0.0,0.0,0.0,0.0,0.0,0.0,0.0,0.0,0.0,0.0,0.0,0.0,0.0,0.0,0.0,0.0,0.0,0.0,0.0,0.0,0.0,0.0,0.0,0.0,0.0,0.0,0.0,0.0,0.0,0.0,0.0,0.0,0.0,0.0,0.0,1.5438,0.0,0.0,0.0,0.0,0.0,0.0,0.0,0.0,0.0,0.0,0.0,0.0,0.0,0.0,0.0,0.0,0.0,0.0,0.0,0.0,0.0,0.0,0.0,0.0,0.0,0.0,0.0,0.0,0.0,0.0,0.0,0.0,0.0,0.0,0.0,0.0,0.0,0.0,0.0,0.0,0.0,1.554,1.5759,1.6022,1.645,1.65,1.6669,1.7097,1.6731,1.668,1.7107,1.6721,0.0,0.0,0.0,0.0,0.0,0.0,0.0,0.0,0.0,0.0,0.0,0.0,0.0,0.0,0.0,0.0,0.0,0.0,0.0,0.0,0.0,0.0,0.0,0.0,0.0,0.0,0.0,0.0,0.0,0.0,0.0,0.0,0.0,0.0,0.0,0.0,0.0,0.0,0.0,0.0,0.0,0.0,0.0,0.0,0.0,0.0,0.0,0.0,0.0,0.0,0.0,0.0,0.0,0.0,0.0,0.0,0.0,0.0,0.0,0.0,1.6313,0.0,0.0,0.0,0.0,0.0,0.0,0.0,0.0,0.0,0.0,0.0,0.0,0.0,0.0,0.0,0.0,0.0,0.0,0.0,0.0,0.0,0.0,0.0,0.0,0.0,0.0,0.0,0.0,0.0,0.0,0.0,0.0,0.0,0.0,0.0,0.0,0.0,0.0,0.0,0.0,1.596,1.6067,1.6185,1.6473,1.65,1.671,1.725,1.6816,1.6721,1.7271,1.6805,0.0,0.0,0.0,0.0,0.0,0.0,0.0,0.0,0.0,0.0,0.0,0.0,0.0,0.0,0.0,0.0,0.0,0.0,0.0,0.0,0.0,0.0,0.0,0.0,0.0,0.0,0.0,0.0,0.0,0.0,0.0,0.0,0.0,0.0,0.0,0.0,0.0,0.0,0.0,0.0,0.0,0.0,0.0,0.0,0.0,0.0,0.0,0.0,0.0,0.0,0.0,0.0,0.0,2.1153,2.0925,2.1925,2.1421,2.125,2.1237,1.9135,1.7749,1.7021,1.7393,0.0,0.0,0.0,0.0,0.0,0.0,0.0,0.0,0.0,0.0,0.0,0.0,0.0,0.0,0.0,0.0,0.0,0.0,0.0,0.0,0.0,0.0,0.0,0.0,1.7538,1.7684,0.0,0.0,0.0,0.0,0.0,0.0,0.0,0.0,0.0,0.0,0.0,0.0,1.6434,1.65,1.6531,1.6627,1.6637,1.69,1.7524,1.7003,1.6879,1.7415,1.6858,1.65,0.0,0.0,0.0,0.0,0.0,0.0,0.0,0.0,0.0,0.0,0.0,0.0,0.0,0.0,0.0,0.0,0.0,0.0,0.0,0.0,0.0,0.0,0.0,0.0,0.0,0.0,0.0,0.0,0.0,0.0,0.0,0.0,1.5071,1.635,0.0,0.0,0.0,0.0,0.0,0.0,0.0,0.0,0.0,0.0,0.0,0.0,0.0,1.9836,2.0841,1.8242,1.8543,2.1721,2.237,2.1788,2.0182,2.141,2.1955,2.1953,2.1625,0.0,1.8889,1.8333,0.0,0.0,0.0,0.0,0.0,0.0,0.0,0.0,0.0,0.0,0.0,0.0,0.0,0.0,0.0,0.0,0.0,0.0,0.0,0.0,0.0,0.0,1.9501,1.9521,2.0035,2.0149,0.0,1.7279,1.5986,1.5459,1.449,0.0,0.0,0.0,0.0,0.0,0.0,0.0,1.6489,1.65,1.668,1.7136,1.7188,1.7595,1.8602,1.7777,1.7425,1.7967,1.7055,1.65,1.65,1.6999,0.0,0.0,0.0,0.0,0.0,0.0,0.0,0.0,0.0,0.0,0.0,0.0,0.0,0.0,0.0,0.0,0.0,0.0,0.0,0.0,0.0,0.0,0.0,0.0,0.0,0.0,0.0,0.0,0.0,1.4858,1.6237,1.8129,1.7264,1.65,0.0,0.0,0.0,0.0,0.0,0.0,0.0,0.0,0.0,2.2741,2.0849,2.1256,2.4287,2.4539,2.5476,2.7102,2.5574,2.4951,2.5171,2.584,2.6603,2.7372,2.7372,2.6512,2.4773,2.0761,1.8719,1.8053,0.0,0.0,0.0,0.0,1.774,1.7602,1.824,1.7861,0.0,1.7701,0.0,0.0,0.0,0.0,0.0,0.0,0.0,0.0,0.0,0.0,2.1282,2.1565,2.1533,2.1293,2.0704,1.9649,1.8277,0.0,1.5563,1.4963,1.4404,0.0,0.0,0.0,0.0,1.7387,1.6989,1.7537,1.7906,1.7754,1.7757,1.8066,1.8836,1.8194,1.7857,1.8096,1.7384,1.6967,1.6997,1.7261,1.7424,0.0,0.0,0.0,0.0,0.0,0.0,0.0,0.0,0.0,0.0,0.0,0.0,0.0,0.0,0.0,0.0,0.0,0.0,0.0,0.0,0.0,0.0,0.0,0.0,0.0,0.0,0.0,0.0,1.5086,1.6909,2.0258,1.9192,1.7866,0.0,0.0,0.0,0.0,0.0,0.0,2.2967,2.346,2.4925,2.764,2.382,2.3621,2.7601,2.9117,2.9968,3.0209,2.911,2.9387,3.0888,3.0888,3.1481,3.2512,3.2512,3.1989,3.062,2.4326,2.116,2.0193,1.9513,1.9665,2.0277,2.0277,2.0277,2.0407,2.1251,2.0991,2.0266,2.0207,0.0,1.8293,1.7435,0.0,0.0,0.0,0.0,1.952,2.0194,2.158,2.2927,2.3438,2.328,2.2915,2.2559,2.1917,2.0571,0.0,1.6948,1.6444,1.5703,0.0,0.0,0.0,0.0,1.8387,1.8066,1.8649,1.8957,1.8605,1.841,1.8525,1.9052,1.8768,1.8549,1.8549,1.8051,1.7776,1.7822,1.7818,1.7928,1.8191,0.0,0.0,0.0,0.0,0.0,0.0,0.0,0.0,0.0,0.0,0.0,0.0,0.0,0.0,0.0,0.0,0.0,0.0,0.0,0.0,0.0,0.0,0.0,0.0,0.0,0.0,0.0,0.0,0.0,2.2169,2.2839,0.0,0.0,0.0,0.0,1.6651,2.0917,2.4723,2.7253,2.6891,2.696,2.7776,2.7239,2.8173,3.0754,2.8072,2.6726,2.6824,3.2384,3.5076,3.5198,3.5198,3.523,3.531,3.531,3.5265,3.4781,2.9276,2.6008,2.4446,2.3886,2.3709,2.3753,2.3753,2.3753,2.3753,2.3809,2.3795,2.371,2.3447,2.2431,2.1318,2.1459,2.1109,0.0,0.0,2.1839,2.217,2.3277,2.41,2.4788,2.5259,2.5828,2.5916,2.4633,2.3784,2.2543,0.0,1.874,1.7995,1.7947,0.0,1.74,1.7978,1.8629,1.9277,1.9881,1.9454,1.9281,1.9759,1.9238,1.9071,1.9612,1.9744,1.9809,1.9809,1.9311,1.9018,1.901,1.8956,1.8694,1.8216,1.8694,0.0,0.0,0.0,0.0,0.0,0.0,0.0,0.0,0.0,0.0,0.0,0.0,0.0,0.0,0.0,0.0,0.0,0.0,0.0,0.0,0.0,0.0,0.0,0.0,0.0,0.0,0.0,0.0,2.8583,2.7925,0.0,2.5456,2.1355,2.0424,2.4435,2.7061,2.9146,3.0709,2.9817,2.972,3.0777,3.1141,3.2125,3.3873,3.2817,3.2291,3.2321,3.4461,3.5504,3.5504,3.5504,3.5504,3.5504,3.5504,3.5504,3.5352,3.3411,3.1232,2.9087,2.8904,2.7776,2.6204,2.577,2.6162,2.6876,2.6805,2.6539,2.605,2.4831,2.3834,2.3132,2.3183,2.3078,2.307,2.3726,2.4486,2.5295,2.606,2.7054,2.793,2.8099,2.7637,2.7002,2.6529,2.5855,2.4939,2.3649,2.1442,1.9807,1.9938,1.9806,1.992,2.0609,2.119,2.1484,2.1287,2.1352,2.1164,2.0494,2.0597,2.06,2.0359,2.0783,2.09,2.0573,2.0365,2.0261,2.0259,2.0238,2.03,2.0459,2.0607,2.0239,0.0,0.0,0.0,0.0,0.0,0.0,0.0,0.0,0.0,0.0,0.0,0.0,0.0,0.0,0.0,0.0,0.0,0.0,0.0,0.0,0.0,0.0,0.0,0.0,0.0,0.0,2.6988,3.0491,3.0336,2.9618,2.8815,2.5038,2.4722,2.971,3.1883,3.331,3.4111,3.3223,3.2946,3.3489,3.3945,3.4607,3.5489,3.5504,3.5504,3.5504,3.5504,3.5504,3.5504,3.5504,3.5504,3.5504,3.5504,3.5504,3.5504,3.5504,3.4456,3.2781,3.2183,3.0955,2.9458,2.9028,2.9416,3.0178,3.0103,2.9364,2.8291,2.713,2.6002,2.5151,2.5416,2.5482,2.5621,2.6303,2.7092,2.7836,2.818,2.8936,2.9593,2.9593,2.8897,2.8205,2.8205,2.761,2.6947,2.6498,2.438,2.2563,2.2235,2.2214,2.249,2.3217,2.3413,2.3417,2.319,2.3058,2.2588,2.15,2.1575,2.1515,2.1071,2.165,2.1887,2.1534,2.1305,2.1376,2.1828,2.1208,2.1246,2.2026,2.1746,2.1249,2.0498,0.0,0.0,0.0,0.0,0.0,0.0,0.0,0.0,0.0,0.0,0.0,0.0,0.0,0.0,0.0,0.0,0.0,0.0,0.0,0.0,0.0,0.0,0.0,2.2873,2.4367,2.6036,2.7601,3.004,3.0615,2.8158,3.0141,3.1621,3.1747,3.4901,3.6984,3.7389,3.7028,3.64,3.5534,3.5504,3.5504,3.5504,3.5504,3.5504,3.5504,3.5594,3.5594,3.5504,3.5504,3.5504,3.5504,3.5504,3.5504,3.5504,3.5504,3.5504,3.534,3.3573,3.3155,3.3514,3.3515,3.3499,3.3529,3.3529,3.2209,3.0521,3.0507,2.9136,2.7631,2.834,2.8554,2.8709,2.9492,2.9713,2.9713,2.9698,2.9683,2.9696,2.9653,2.9638,2.9636,2.9636,2.9015,2.8467,2.8438,2.7471,2.6218,2.487,2.47,2.5018,2.5696,2.5206,0.0,2.5559,2.4462,2.3411,2.2823,2.2183,2.1784,2.1754,2.2363,2.2748,2.2733,2.2147,2.2371,2.3639,2.1905,2.1474,2.2705,2.2001,2.1601,2.152,0.0,0.0,0.0,0.0,0.0,0.0,0.0,0.0,0.0,0.0,0.0,0.0,0.0,0.0,0.0,0.0,0.0,0.0,0.0,0.0,0.0,0.0,2.4698,2.4698,2.982,3.3135,3.195,3.4144,3.5489,3.4768,3.5073,3.5322,3.537,3.6522,3.7268,3.7387,3.73,3.6701,3.5549,3.5504,3.5504,3.5504,3.5504,3.5504,3.5534,3.7417,3.7327,3.5504,3.5504,3.5504,3.5504,3.5504,3.5504,3.5504,3.5504,3.5504,3.5459,3.495,3.4457,3.3963,3.3619,3.3814,3.4218,3.4218,3.3854,3.3281,3.2806,3.2254,3.1823,3.2049,3.2094,3.2139,3.2363,3.2437,3.2332,3.1824,3.1704,3.1584,3.1091,3.0598,3.0253,3.0253,3.007,2.9782,2.9351,2.973,2.9535,2.7652,2.701,2.6967,2.7687,2.6827,0.0,2.6306,2.5154,2.4261,2.4107,2.3902,2.3614,2.3116,2.3689,2.3868,2.337,2.3644,2.374,2.3559,2.3504,2.3379,2.3137,2.2511,2.2143,0.0,0.0,0.0,0.0,0.0,0.0,0.0,0.0,0.0,0.0,0.0,0.0,0.0,0.0,0.0,0.0,0.0,0.0,0.0,0.0,0.0,0.0,2.516,2.7286,2.8862,3.2897,3.5558,3.5137,3.645,3.7387,3.7387,3.7028,3.6939,3.7313,3.7372,3.7642,3.821,3.824,3.7896,3.7148,3.7118,3.661,3.5519,3.5504,3.6041,3.7148,3.8673,3.8599,3.7088,3.6013,3.5504,0.0,3.5504,3.5504,3.5504,3.5504,3.5504,0.0,0.0,0.0,0.0,0.0,3.4577,3.4922,3.4922,3.4742,3.4444,3.4054,3.3739,3.3499,3.3499,3.3499,3.3499,3.3499,3.3499,3.335,3.2662,3.2497,3.2407,3.2004,3.163,3.1345,3.1345,3.1345,3.115,3.0522,3.0987,0.0,2.9897,2.8975,2.8524,2.8943,2.7887,2.7018,2.7018,2.6093,2.5334,2.5053,2.5023,2.487,2.4477,2.4795,0.0,0.0,0.0,2.4299,2.3572,2.4126,0.0,0.0,0.0,2.3073,2.301,0.0,0.0,0.0,2.1248,2.0573,0.0,0.0,0.0,0.0,0.0,0.0,0.0,0.0,0.0,0.0,0.0,0.0,0.0,0.0,0.0,0.0,2.7988,3.0394,3.4015,3.4615,3.5405,3.7393,3.7644,3.7656,3.7761,3.7357,3.7402,3.818,3.7851,3.8135,3.9346,0.0,0.0,0.0,0.0,3.8285,3.5968,3.5953,3.7103,3.9406,3.9406,3.9316,3.9092,3.6759,3.5639,3.5504,3.5504,3.5504,3.5519,3.5669,3.5639,3.5504,3.5504,3.5504,3.5504,3.5504,3.5504,3.5504,3.5504,0.0,0.0,3.4607,3.4218,3.3724,3.3724,3.3724,3.3724,3.3724,3.3724,3.3574,3.2901,3.2721,3.2706,3.2632,3.2602,3.2602,3.2602,3.2602,3.2437,3.1839,3.1735,3.1705,3.163,3.0552,2.9698,2.9698,2.8573,2.7705,2.7705,2.7048,2.6393,2.5884,0.0,0.0,2.5708,2.5708,2.5689,2.5603,2.5009,2.4413,2.3822,2.4162,2.4268,2.4083,2.4147,2.4107,2.4004,2.4067,2.3775,2.3155,2.1479,2.0582,0.0,0.0,0.0,0.0,0.0,0.0,0.0,0.0,0.0,0.0,0.0,0.0,0.0,0.0,0.0,2.7869,3.068,3.342,3.6075,3.7113,3.795,3.8895,3.9017,3.9287,3.9989,3.9361,3.8973,3.9137,3.9062,3.9137,3.9391,3.9406,3.9406,3.9406,3.9406,3.9152,3.8658,3.8644,3.8898,3.9406,0.0,0.0,3.7778,3.7253,3.646,3.5504,3.5504,3.5504,3.5594,3.6611,3.6432,3.5504,3.5504,3.5504,3.5504,3.5504,3.5504,3.5504,3.5504,3.5415,3.531,3.531,3.522,3.5115,3.5115,3.5115,0.0,3.5115,3.5115,3.4966,3.4293,3.4113,3.3979,3.344,3.3305,3.3305,3.3305,3.3305,3.326,3.314,3.311,3.2946,3.2407,3.121,3.0328,3.0328,2.922,2.8412,2.8412,2.7348,2.6764,2.718,2.6734,2.6408,2.6408,2.6408,2.6183,2.5633,2.4878,2.4647,2.5039,2.4416,2.4055,2.4016,2.4444,2.4444,2.4004,2.4428,2.4352,2.3816,2.2975,2.2798,0.0,0.0,0.0,0.0,0.0,0.0,0.0,0.0,0.0,0.0,0.0,2.1738,2.3961,0.0,2.811,3.1502,3.486,3.7193,3.7649,3.8781,3.9511,3.9406,3.9406,3.9571,4.0004,3.966,3.9406,3.9406,3.9406,3.9406,3.9406,3.9406,3.9406,3.9406,3.9406,3.9406,3.9406,3.9406,3.9406,3.9406,3.9406,3.9047,3.8389,3.8389,3.8045,3.7447,3.7447,3.7447,3.7462,3.7656,3.7238,3.6432,3.6118,3.5804,3.5504,3.5504,3.5504,3.5504,3.5504,3.5504,3.5504,3.5504,3.5504,3.5504,3.5504,3.5504,3.5504,3.5504,3.5504,3.5355,3.4667,3.4503,3.4429,3.4084,3.3994,3.3994,3.3994,3.3994,3.3904,3.3575,3.3499,3.338,3.3066,3.2452,3.1659,3.0657,2.9699,2.9099,2.9099,2.8515,2.8096,2.8096,2.7812,2.7467,2.7123,2.7106,2.6958,2.6629,2.5533,2.5163,2.5784,2.4643,2.4255,2.4782,2.5071,2.5071,2.4795,2.5071,2.4917,2.439,2.4086,2.3976,0.0,0.0,0.0,0.0,0.0,0.0,0.0,0.0,2.0215,2.1658,2.2834,2.4642,2.8152,2.9397,3.1179,3.511,3.8273,3.9915,3.8975,3.9765,4.0289,3.984,3.9556,3.9601,4.0109,3.9705,3.9616,4.0124,4.0855,4.0929,4.0191,4.0169,3.993,3.9421,3.99,4.0169,4.0169,4.0248,4.0178,3.9976,4.0076,3.9858,3.9406,3.9406,3.9773,4.0376,3.9684,3.9406,3.9331,3.8449,3.7896,3.7554,3.7045,3.6488,3.5866,3.5598,3.5504,3.5504,3.5504,3.5504,3.5504,3.5504,3.5504,3.5504,3.5504,3.5504,3.5504,3.5504,3.5504,3.5385,3.4832,3.4682,3.4682,3.4682,3.4682,3.4682,3.4682,3.4682,3.4533,3.3978,3.3888,3.3844,3.3709,3.3679,3.3095,3.1345,3.0447,2.9982,2.9982,2.9758,2.9383,2.8846,2.8786,2.8575,2.8034,2.7989,2.7929,2.7809,2.6515,2.5894,2.6181,2.4979,2.472,2.5573,2.5728,2.5728,2.5598,2.5728,2.5485,2.4954,2.508,2.4845,2.0941,1.9206,1.8631,1.9271,1.9535,2.0263,0.0,0.0,2.3367,2.5942,2.7357,2.8879,3.1214,3.3189,3.5168,3.7343,3.8225,3.908,4.0274,3.993,3.9945,4.1059,4.0127,4.0318,4.2632,4.0767,4.0363,4.2696,4.6021,4.643,4.3057,4.2856,4.1814,3.9466,4.1645,4.2856,4.2856,4.3214,4.294,4.2062,4.249,4.1538,3.9406,3.9406,4.1095,4.3841,4.074,3.9406,3.9331,3.8449,3.8182,3.829,3.8215,3.7849,3.7215,3.596,3.5504,3.5504,3.5504,3.5504,3.5504,3.5504,3.5504,3.5504,3.5504,3.5504,3.5504,3.5504,3.5504,3.5489,3.5415,3.5385,3.5385,3.5385,3.5385,3.5385,3.5385,3.5385,3.537,3.5295,3.528,3.5085,3.4488,3.4383,3.4113,3.329,3.2093,3.1286,3.1286,3.0298,2.9563,2.9503,2.9488,2.9458,2.9383,2.9382,2.9114,2.8532,2.7541,2.6763,2.6222,2.5704,2.5473,2.5598,2.6135,2.6147,2.5598,2.6147,2.608,2.5523,2.6055,2.5979,2.2789,2.13,2.0613,0.0,2.1518,2.2696,2.4425,2.5394,2.6622,2.8975,3.0699,3.2417,3.4555,3.5989,3.7266,0.0,3.9561,4.0098,3.996,4.0307,4.0487,4.0262,3.9735,3.9825,4.0932,4.1425,4.2128,4.3215,4.4787,4.4977,4.3389,4.5402,4.6128,4.5031,4.6047,4.6103,4.5011,4.438,4.4793,4.6208,4.4593,4.333,4.2395,4.1378,4.2252,4.4454,4.1981,4.0707,4.0313,3.9274,3.9204,3.9711,3.9314,3.9343,3.9298,3.6946,3.6114,3.607,3.5636,3.5504,3.5504,3.5504,3.5504,3.5504,3.5504,3.5504,3.5504,3.5504,3.5504,3.5504,3.5504,3.5504,3.5504,3.5504,3.5504,3.5504,3.5504,3.5504,3.5504,3.5504,3.5504,3.5415,3.513,3.507,3.4981,3.4711,3.3529,3.2662,3.2662,3.1869,3.0986,3.0208,2.9817,2.9593,2.9593,2.9593,2.9473,2.9204,2.8364,2.7706,2.727,2.668,2.6284,2.6135,2.6373,2.6373,2.6118,2.6373,2.6373,2.6118,2.6386,2.6361,2.3838,0.0,0.0,2.2764,2.4085,2.5671,2.6909,2.8438,3.0194,3.2288,3.3762,3.5281,3.7295,3.8058,3.8719,3.9778,4.0457,4.0636,4.0053,4.0472,4.0217,3.8524,3.9084,3.9919,4.0747,4.2314,4.329,4.329,4.427,4.4881,4.4881,4.7506,4.9001,4.9001,4.8672,4.7819,4.6454,4.5575,4.6209,4.829,4.6255,4.5263,4.5181,4.4325,4.4185,4.4499,4.2754,4.174,4.1281,4.0274,4.0343,4.1016,4.0516,4.0753,4.1031,3.8631,3.7505,3.7079,3.6372,3.5955,3.5744,3.5564,3.5504,3.5504,3.5504,3.5504,3.5504,3.5504,3.5504,3.5504,3.5504,3.5504,3.5504,3.5504,3.5504,3.5504,3.5504,3.5504,3.5504,3.5504,3.5504,3.5504,3.5504,3.5504,3.5504,3.5504,3.4681,3.3978,3.3799,3.3185,3.2407,3.1435,3.094,3.0671,3.0671,3.0506,3.0313,3.0133,2.913,2.8401,2.8014,2.7232,2.6699,2.6504,2.6499,2.6499,2.6499,2.6499,2.6499,2.6499,2.6499,2.6499,0.0,0.0,2.3717,2.5589,2.7424,2.9275,3.125,3.2705,3.4228,3.638,3.6847,3.7401,3.9028,3.934,3.9792,4.1115,4.0292,3.9885,4.1164,4.0247,3.8494,3.5907,3.8262,4.1221,0.0,4.3762,4.329,4.329,4.673,4.8829,4.8829,4.894,4.9001,4.9001,4.7786,4.7122,4.7071,4.7341,4.7194,4.6584,4.7407,4.7417,4.6783,4.8161,4.7263,4.4499,4.2754,4.1997,4.1917,4.1314,4.1413,4.1965,4.1949,4.202,4.2054,4.1189,3.9929,3.8538,3.7871,3.7126,3.6374,3.5714,3.5504,3.5504,3.5504,3.5504,3.5504,3.5504,3.5504,3.5504,3.5504,3.5504,3.5504,3.5504,3.5504,3.5504,3.5504,3.5504,3.5504,3.5504,3.5504,3.5504,3.5504,3.5504,3.5504,3.5504,3.5474,3.5205,3.4548,3.3889,3.344,3.341,3.338,3.338,3.338,3.2796,3.2138,3.1481,2.9893,2.8685,2.8026,2.7038,2.6508,2.6499,2.6499,2.6499,2.6499,2.6499,2.6499,2.6499,2.6499,2.6499,2.4889,0.0,2.8186,2.9192,3.0797,3.2577,3.4239,3.5303,3.6186,3.7075,3.7961,3.8587,3.8546,3.8539,3.8868,3.9918,3.969,3.9361,3.923,3.9316,3.8434,3.5818,3.643,0.0,0.0,0.0,0.0,4.6755,4.8273,4.9001,4.9001,4.9001,4.9001,4.9001,4.8576,4.837,4.837,4.8465,4.8395,4.816,4.8474,4.8496,4.8274,4.8781,4.7733,4.5445,4.412,4.315,4.2519,4.2299,4.2363,4.255,4.2785,4.3231,4.3753,4.3489,4.2688,4.143,3.9156,3.7881,3.7175,3.6422,3.6148,3.6073,3.5639,3.6086,3.6686,3.6267,3.6447,3.6761,3.6761,3.6761,3.6761,3.6761,3.6761,3.6761,3.6761,3.6447,3.6148,3.6148,3.5804,3.5504,3.5504,3.5504,3.5504,3.5504,3.5504,3.525,3.4578,3.4293,3.3994,3.3544,3.3499,3.3499,3.3499,3.329,3.2886,3.2213,3.1089,2.9907,2.871,2.7781,2.7057,2.6516,2.6499,2.6499,2.6499,2.6499,2.6499,2.6499,2.6499,2.6499,2.7628,2.9582,3.1542,3.2588,3.391,3.5283,3.6568,3.7184,3.761,3.803,3.8554,3.8569,3.7387,3.7163,3.7492,3.8509,3.9092,3.9526,3.9915,3.9645,3.8778,3.7088,3.6946,3.8811,0.0,0.0,0.0,4.7091,4.8409,4.9001,4.9001,4.9001,4.9001,4.9001,4.9001,4.9001,4.9001,4.9001,4.9001,4.9001,4.9001,4.9001,4.9001,4.9001,4.8105,4.6473,4.5237,4.443,4.3887,4.3253,4.3315,4.3833,4.378,4.426,4.4956,4.4685,4.4407,4.3698,4.0593,3.9044,3.8287,3.7534,3.7293,3.7217,3.676,3.7215,3.7708,3.7027,3.7105,3.7387,3.7387,3.7387,3.7387,3.7387,3.7387,3.7387,3.7387,3.7105,3.6821,3.6821,3.6297,3.5863,3.5863,3.5669,3.5504,3.5504,3.5504,3.534,3.4922,3.4862,3.4697,3.4262,3.4218,3.4218,3.4218,3.4009,3.3526,3.2755,3.1497,3.0175,2.8869,2.7812,2.704,2.6516,2.6499,2.6499,2.6499,2.6499,2.6499,2.6499,2.67,2.6788,3.1437,3.2778,3.3821,3.5695,3.6653,3.7354,3.8201,3.8362,3.8512,3.9137,3.8569,3.7462,0.0,0.0,3.5714,3.6984,3.8389,4.0229,4.2756,4.1006,3.9451,0.0,0.0,0.0,0.0,0.0,0.0,4.4635,0.0,4.9001,4.9001,4.9001,4.9001,4.9001,4.9001,4.9001,4.9001,4.9001,4.9001,4.9001,4.9001,4.9001,4.9001,4.9001,4.846,4.7449,4.6165,4.5742,4.5867,4.4143,4.4343,4.5652,4.4888,4.5024,4.5568,4.4905,4.5091,4.5214,4.2171,4.0547,3.9724,3.9038,3.882,3.8804,3.8773,3.8788,3.8623,3.7758,3.7514,3.7492,3.7492,3.7492,3.7492,3.7492,3.7492,3.7492,3.7492,3.7479,3.7464,3.7464,3.6941,3.6508,3.6508,3.5938,3.5504,3.5504,3.5504,3.5504,3.5504,3.5504,3.5504,3.5504,3.5504,3.5504,3.5504,3.4922,3.4137,3.3151,3.1209,2.961,2.8541,2.7229,2.6524,2.6499,2.6499,2.6499,2.6499,2.6524,2.6537,2.6549,2.7085,2.7336,3.3535,3.5431,3.7285,3.8278,3.8664,3.8718,3.8461,3.8003,3.7629,3.7477,3.6776,3.6026,0.0,0.0,0.0,3.4277,3.6716,0.0,4.0214,4.0378,0.0,3.9481,0.0,4.2639,4.4691,4.3628,0.0,0.0,4.8139,4.9001,4.9001,4.9001,4.9001,4.9001,4.9001,4.9001,4.9001,4.9001,4.9001,4.9001,4.9001,4.9001,4.9001,4.9001,4.8562,4.7768,4.7233,4.6608,4.5962,4.5502,4.5548,4.5841,4.4956,4.4702,4.4939,4.5449,4.5314,4.4662,4.3218,4.2241,4.1494,4.0687,4.0404,4.0324,3.983,3.9912,4.0038,3.9325,3.9007,3.8898,3.8898,3.8898,3.8898,3.8898,3.8898,3.8898,3.8898,3.8497,3.8138,3.8138,3.724,3.6508,3.6508,3.5938,3.5504,3.5504,3.5504,3.5504,3.5504,3.5504,3.5504,3.5504,3.5504,3.5504,3.5504,3.534,3.4624,3.3196,3.1994,3.0487,2.8581,2.7613,2.6914,2.6499,2.6499,2.6499,2.6499,2.6901,2.7097,2.7097,2.7663,2.7896,3.6237,3.7928,3.9364,3.9735,3.9616,3.9302,3.8931,3.8075,3.7492,3.7866,3.6641,0.0,0.0,0.0,0.0,0.0,0.0,0.0,4.0887,4.0872,4.0662,0.0,4.127,0.0,4.5187,4.4853,4.5516,0.0,4.9086,4.9747,4.995,4.9967,4.9865,4.9662,4.9238,4.9001,4.9001,4.9001,4.9001,4.9001,4.9001,4.9001,4.9001,4.9001,4.8528,4.7718,0.0,4.7293,4.6633,4.6078,4.6061,4.6227,4.5058,4.4804,4.5108,4.5314,4.5263,4.497,4.4152,4.3618,4.3181,4.2289,4.1998,4.1949,4.1557,4.1624,4.1595,4.0461,4.0069,3.9867,3.9499,3.9406,3.9406,3.9406,3.9406,3.9406,3.9406,3.9092,3.8751,3.8469,3.7826,3.7167,3.6598,3.6194,3.5833,3.5533,3.5504,3.5504,3.5504,3.5504,3.5504,3.5504,3.5504,3.5504,3.5504,3.5504,3.4756,3.2982,3.2207,3.0752,2.8424,2.7665,2.7052,2.6499,2.6738,2.6738,2.6499,2.7273,2.7537,2.7324,2.8097,2.8442,3.8898,4.0034,4.0531,4.0531,3.9945,3.9346,3.9182,3.7821,3.7043,3.8569,0.0,3.3455,2.8513,2.76,2.9324,3.4637,0.0,4.0229,4.2622,4.1884,4.1453,4.2419,4.2077,4.2839,4.5541,4.6546,4.7702,4.9315,5.0254,5.0795,5.0897,5.1286,5.1218,5.0609,4.956,4.9001,4.9001,4.9001,4.9001,4.9001,4.9001,4.9001,4.9001,4.9001,4.8511,4.7699,4.7938,0.0,4.7597,4.6363,4.6227,4.6648,4.5176,4.499,4.5483,4.4838,4.5007,4.5466,4.4821,4.4615,4.4485,4.3726,4.3472,4.3472,4.3472,4.3381,4.2955,4.1329,4.0792,4.05,3.9628,3.9406,3.9421,3.9511,3.9526,3.9556,3.9645,3.9601,3.9331,3.8661,3.8469,3.805,3.6943,3.6688,3.6417,3.5848,3.5684,3.5639,3.5639,3.5564,3.5504,3.5504,3.5504,3.5504,3.5504,3.5375,3.4541,3.2713,3.2057,3.0667,2.8308,2.7682,2.7185,2.6725,2.7097,2.7097,2.6713,2.7708,2.7971,2.755,2.8543,2.9019,3.996,4.0846,4.1224,4.1224,4.0307,3.9107,3.8,3.5039,0.0,0.0,3.4052,3.1256,2.8169,2.76,2.9324,3.4637,0.0,0.0,0.0,0.0,4.3741,0.0,0.0,0.0,0.0,0.0,0.0,0.0,0.0,5.1234,4.9459,5.1758,5.2469,5.1116,4.973,4.9001,4.9001,4.9001,4.9001,4.9001,4.9001,4.9001,4.9001,4.9001,4.89,4.8748,4.8798,0.0,4.8629,4.7192,4.6667,4.6648,4.5176,4.4668,4.477,4.4649,4.4668,4.477,4.4635,4.4615,4.4587,4.4412,4.4369,4.4369,4.4369,4.3873,4.3078,4.2062,4.1263,4.05,3.9628,3.9406,3.9541,4.0079,4.0232,4.0382,4.092,4.0606,4.0038,3.9346,3.8781,3.8335,3.811,3.7599,3.721,3.7088,3.6641,3.6329,3.6329,3.5833,3.5504,3.5504,3.5504,3.5504,3.5504,3.4741,3.3788,3.2664,3.1775,3.0545,2.8831,2.826,2.7921,2.7821,2.7487,2.7457,2.7821,2.8442,2.8718,2.8643,2.9327,2.9641,4.0229,4.153,4.2237,4.1568,4.0382,3.9227,3.8584,0.0,0.0,0.0,2.828,2.7009,2.5746,0.0,0.0,0.0,0.0,0.0,0.0,0.0,0.0,0.0,0.0,0.0,0.0,0.0,0.0,0.0,0.0,5.2469,5.1403,5.1708,5.1353,5.0102,4.9865,4.9527,4.9018,4.951,4.951,4.9001,4.9001,4.9001,4.9001,4.9001,4.9001,4.9001,4.9001,0.0,4.8883,4.7411,4.68,4.6648,4.5176,4.4615,4.4615,4.4615,4.4615,4.4615,4.4615,4.4615,4.4615,4.4615,4.4615,4.4615,4.4615,4.4312,4.3695,4.2363,4.1707,4.1063,3.9737,3.9406,3.9571,4.0247,4.0666,4.1014,4.1328,4.0861,4.0307,3.9975,3.9394,3.8811,3.8469,3.8123,3.7808,3.7464,3.715,3.6851,3.6553,3.6207,3.5893,3.5549,3.5504,3.5504,3.5504,3.4576,3.3602,3.2646,3.1724,3.0516,2.8969,2.8656,2.838,2.8109,2.8134,2.8134,2.8109,2.8963,2.9208,2.89,2.9528,2.9792,4.0737,4.2243,4.307,4.2058,4.0172,3.827,3.7118,2.9998,0.0,0.0,2.3595,2.3595,2.3595,0.0,2.8261,0.0,3.2803,0.0,0.0,0.0,0.0,0.0,0.0,0.0,0.0,0.0,0.0,0.0,0.0,0.0,5.3196,5.1269,5.0,4.9644,4.9984,4.9899,4.9324,4.9882,4.9781,4.9001,4.9001,4.9001,4.9001,4.9001,4.9001,4.9001,4.9001,0.0,0.0,4.7445,4.6819,4.6481,4.5125,4.4615,4.4615,4.4615,4.4615,4.4615,4.4615,4.4615,4.4615,4.4615,4.4615,4.4615,4.4615,4.4615,4.4239,4.2489,4.1997,4.1593,3.9862,3.9406,3.9601,4.0427,4.1134,4.1613,4.1613,4.1089,4.0561,4.0427,3.9855,3.9227,3.8706,3.8601,3.8437,3.7896,3.7719,3.7389,3.6761,3.6583,3.6254,3.5579,3.5504,3.5408,3.5213,3.4276,3.3293,3.2375,3.1407,3.037,2.9145,2.8982,2.8769,2.8473,2.8743,2.8756,2.8473,2.9365,2.9566,2.9107,2.9578,2.9792,4.2363,4.317,4.326,4.314,3.9466,3.4592,2.9773,0.0,0.0,2.3595,2.3595,2.3595,2.3595,0.0,0.0,0.0,0.0,3.3301,0.0,0.0,0.0,0.0,0.0,0.0,0.0,0.0,0.0,0.0,0.0,0.0,5.2198,5.0236,4.9932,5.1673,5.0033,4.9527,5.0356,4.9544,4.9086,4.9001,4.9001,4.9001,4.9001,4.9001,4.9001,4.9001,4.9001,0.0,0.0,4.7581,4.6904,4.5976,4.499,4.4615,4.4615,4.4615,4.4615,4.4615,4.4615,4.4615,4.4615,4.4615,4.4615,4.4615,4.4615,4.4615,4.4239,4.2489,4.1997,4.1593,3.9862,3.9406,3.972,4.1014,4.1807,4.2306,4.2306,4.1777,4.1134,4.0516,3.9855,3.9376,3.9316,3.9316,3.9287,3.9227,3.8706,3.8063,3.7387,3.6836,3.6254,3.5579,3.5504,3.5133,3.4211,3.3276,3.2339,3.1389,3.0457,2.9882,2.9716,2.9183,2.9132,2.9628,2.9145,2.9145,2.9641,2.9741,2.9767,2.9716,2.9767,2.9792,4.1235,4.2711,4.2916,4.135,3.8195,3.4113,2.8813,0.0,0.0,2.3595,2.3595,2.3595,2.3595,2.5791,0.0,0.0,0.0,0.0,3.6105,0.0,0.0,0.0,0.0,0.0,0.0,0.0,0.0,0.0,0.0,0.0,5.1589,5.1183,5.0947,5.0861,5.0507,5.0288,5.0253,4.9864,4.9441,4.9001,4.9001,4.9001,4.9001,4.9001,4.9001,4.9001,4.9001,0.0,0.0,4.7141,4.6348,4.5908,4.4973,4.4956,4.5432,4.5314,4.5331,4.5432,4.5297,4.5263,4.5193,4.4736,4.4615,4.4615,4.4615,4.4615,4.4239,4.2489,4.1997,4.1593,3.9862,3.969,4.0142,4.0666,4.1613,4.2396,4.2396,4.2186,4.1912,4.1658,4.0726,4.0008,4.0008,3.966,3.9406,3.9406,3.9167,3.8766,3.8093,3.7434,3.6806,3.6163,3.5744,3.5343,3.4937,3.3481,3.2446,3.2069,3.0633,2.9792,2.9792,2.9566,2.9553,2.9811,2.9566,2.9566,2.9792,2.9792,2.9792,2.9792,2.9792,2.9792,3.8903,4.0322,4.0363,3.7731,3.6281,3.3903,0.0,0.0,0.0,2.2618,2.3056,2.3595,2.3595,2.5132,2.6986,2.8738,0.0,3.3689,3.5772,3.797,0.0,0.0,0.0,0.0,0.0,0.0,0.0,0.0,0.0,0.0,5.159,5.2029,5.1623,5.015,5.0405,5.0405,5.01,4.988,4.9509,4.9001,4.9001,4.9001,4.9001,4.9001,4.9001,4.9001,4.9001,0.0,0.0,4.6737,4.5841,4.5517,4.4855,4.5007,4.5568,4.5432,4.5466,4.5602,4.5669,4.5568,4.5331,4.5024,4.477,4.4615,4.4615,4.4615,4.4239,4.2489,4.1625,4.096,3.9735,3.975,4.0157,4.0352,4.1268,4.2171,4.2366,4.2246,4.2171,4.2366,4.1164,4.0172,4.0367,3.984,3.9406,3.9406,3.9406,3.9152,3.8482,3.7988,3.7389,3.6583,3.5811,3.516,3.4687,3.3394,3.2357,3.181,3.0533,2.9792,2.9792,2.9792,2.9792,2.9792,2.9792,2.9792,2.9792,2.9792,2.9792,2.9792,2.9792,2.9792,3.5549,3.5579,3.4935,3.2243,3.3559,3.3425,0.0,0.0,0.0,2.0268,2.1809,2.3595,2.3595,2.3625,2.4519,2.718,2.9817,0.0,3.6829,3.9062,0.0,0.0,0.0,0.0,0.0,0.0,0.0,0.0,0.0,0.0,5.2334,5.23,5.1623,5.015,4.9407,4.9373,5.01,4.9373,4.9018,4.9001,4.9001,4.9001,4.9001,4.9001,4.9001,0.0,0.0,0.0,0.0,4.6534,4.5449,4.4601,4.4615,4.4615,4.4601,4.4601,4.4601,4.4719,4.5449,4.5213,4.4719,4.5449,4.5179,4.4615,4.4615,4.4615,4.4239,4.2489,4.0757,3.9409,3.9391,3.9406,3.9571,4.0247,4.0924,4.1583,4.2261,4.1886,4.1613,4.2276,4.0771,3.9616,4.0292,3.984,3.9406,3.9406,3.9406,3.9152,3.8482,3.8377,3.7901,3.6643,3.5595,3.4358,3.2755,3.2611,3.181,2.9953,2.9811,2.9792,2.9792,2.9792,2.9792,2.9792,2.9792,2.9792,2.9792,2.9792,2.9792,2.9792,2.9792,2.9792,3.4023,3.0208,2.4504,2.3655,2.6108,2.7831,2.4388,0.0,0.0,1.9872,2.0357,2.148,2.3266,2.3595,2.4474,2.7165,2.9804,0.0,0.0,0.0,0.0,0.0,0.0,0.0,0.0,0.0,0.0,0.0,0.0,0.0,5.159,5.1065,5.0811,5.0846,5.0135,4.9847,5.01,4.9373,4.9001,4.9001,4.9001,4.9001,4.9001,4.9001,4.9001,0.0,0.0,0.0,0.0,4.5618,4.4871,4.4615,4.4615,4.4615,4.4651,4.5176,4.5348,4.5382,4.5618,4.5551,4.5314,4.5041,4.4787,4.4615,4.4615,4.4181,4.3351,4.1593,4.0289,3.9406,3.9406,3.9406,3.9451,3.966,4.0232,4.0909,4.1568,4.1897,4.2271,4.2895,4.2162,4.1373,4.1134,4.0531,3.9933,3.9466,3.9406,3.9316,3.9107,3.8676,3.7966,3.6835,3.569,3.4617,3.3644,3.2393,3.1389,3.0796,3.0158,2.9792,2.9792,2.9792,2.9792,2.9792,2.9792,2.9792,2.9792,2.9792,2.9792,2.9792,2.9792,2.9792,0.0,2.618,2.2209,2.0202,2.4552,0.0,0.0,0.0,0.0,0.0,1.9708,2.0492,2.3116,2.3595,2.4313,2.6494,2.9206,3.1653,0.0,0.0,0.0,0.0,0.0,0.0,0.0,0.0,0.0,0.0,0.0,0.0,5.1235,5.049,5.0304,5.0777,5.0067,4.9678,4.9678,4.9238,4.9001,4.9001,4.9001,4.8798,4.8443,4.8545,4.831,0.0,0.0,0.0,0.0,4.5514,4.5024,4.499,4.4702,4.4615,4.4651,4.5125,4.528,4.5314,4.5602,4.5517,4.5263,4.5074,4.4821,4.4485,4.3812,4.3244,4.252,4.1097,4.0063,3.9406,3.9406,3.9406,3.9406,3.9406,3.99,4.0576,4.1254,4.1718,4.2286,4.313,4.2611,4.1957,4.1811,4.1014,4.0262,3.9825,3.9556,3.9406,3.9406,3.905,3.8415,3.751,3.6053,3.4807,3.3927,3.2209,3.1063,3.0696,3.012,2.9792,2.9792,2.9792,2.9792,2.9792,2.9792,2.9792,2.9792,2.9792,2.9792,2.9792,2.9792,2.9792,0.0,2.3122,2.5765,2.0917,2.7096,3.3723,0.0,0.0,0.0,0.0,0.0,2.0492,2.3116,2.3595,2.4044,2.5379,2.8292,3.1164,0.0,0.0,0.0,0.0,0.0,0.0,0.0,0.0,0.0,0.0,0.0,0.0,5.115,5.0422,5.0032,5.0032,4.9357,4.9001,4.9001,4.9001,4.9001,4.9001,4.9001,4.846,4.7511,4.7599,4.7024,0.0,0.0,0.0,0.0,4.5906,4.5618,4.5551,4.4871,4.4615,4.4615,4.4615,4.4615,4.4685,4.5382,4.5176,4.4702,4.5399,4.5162,4.4267,4.2536,4.1997,4.1804,4.0861,4.0025,3.9406,3.9406,3.9406,3.9406,3.9406,3.9888,4.0531,4.1254,4.1358,4.1713,4.304,4.2312,4.1673,4.2291,4.1328,4.0442,4.0412,3.9825,3.9406,3.9406,3.9406,3.9134,3.8438,3.6652,3.5,3.3726,3.2098,3.0772,2.9869,2.9792,2.9792,2.9792,2.9792,2.9792,2.9792,2.9792,2.9792,2.9792,2.9792,2.9792,2.9792,2.9792,2.9792,1.7115,0.0,2.0233,1.9808,2.157,2.3246,0.0,0.0,0.0,0.0,0.0,2.0492,2.3116,2.3595,2.4044,2.5379,2.8759,3.1591,3.2659,0.0,0.0,0.0,0.0,0.0,0.0,0.0,0.0,0.0,0.0,5.054,5.0371,4.9661,4.9255,4.9255,4.9086,4.9001,4.9001,4.9001,4.9001,4.9001,4.9001,4.846,4.746,4.6039,4.521,0.0,0.0,0.0,4.5091,4.4922,4.4855,4.4838,4.4682,4.4615,4.4615,4.4615,4.4615,4.4618,4.4804,4.4736,4.4618,4.4804,4.4736,4.4267,4.2536,4.1997,4.169,4.0148,3.9556,3.9406,3.9406,3.9406,3.9406,3.9406,3.9526,3.9945,4.1149,4.1014,4.116,4.2946,4.2686,4.2216,4.2366,4.1703,4.0999,4.0472,3.9825,3.9406,3.9406,3.9406,3.9027,3.8053,3.7162,3.584,3.3909,3.1909,3.0473,2.9836,2.9792,2.9792,2.9792,2.9792,2.9792,2.9792,2.9792,2.9792,2.9792,2.9792,2.9792,2.9792,2.9792,2.9792,1.65,1.7636,1.8968,1.9557,1.9708,1.9708,1.9708,0.0,0.0,0.0,0.0,0.0,2.1555,2.38,0.0,2.4762,2.8519,0.0,0.0,0.0,0.0,0.0,0.0,0.0,0.0,0.0,0.0,0.0,0.0,4.9964,4.961,4.9221,4.8834,4.8512,4.8496,4.8663,4.9001,4.9001,4.9001,4.9001,4.9001,4.8359,4.7141,4.609,4.5244,0.0,0.0,0.0,4.4615,4.4615,4.4615,4.4615,4.4615,4.4615,4.4615,4.4615,4.4615,4.4615,4.4615,4.4615,4.4533,4.4178,4.4296,4.42,4.2132,4.1726,4.1642,3.9882,3.9406,3.9406,3.9406,3.9406,3.9481,3.978,3.9855,4.0232,4.1568,4.1328,4.1339,4.298,4.2806,4.25,4.2761,4.2032,4.1283,4.0905,4.0038,3.9406,3.9406,3.9406,3.9177,3.8601,3.7839,3.6788,3.5394,3.3298,3.1634,3.0597,3.052,3.052,3.052,3.0294,3.0043,2.9792,2.9792,2.9792,2.9792,2.9792,2.9792,2.9792,2.9792,2.9792,1.65,1.7837,1.9281,1.9621,1.9442,1.929,0.0,0.0,0.0,0.0,0.0,0.0,0.0,0.0,0.0,0.0,0.0,0.0,0.0,0.0,0.0,0.0,0.0,0.0,0.0,0.0,0.0,0.0,0.0,4.9661,4.9035,4.89,4.8597,4.809,4.7954,4.8191,4.8817,4.8817,4.89,4.9001,4.89,4.8122,4.68,4.6667,4.5887,4.4615,0.0,0.0,4.4615,4.4615,4.4615,4.4615,4.4615,4.4615,4.4615,4.4615,4.4615,4.4615,4.4615,4.4516,4.4296,4.3626,4.3859,4.3981,4.1632,4.1422,4.1642,3.9882,3.9406,3.9406,3.9406,3.9406,3.9571,4.0247,4.0397,4.0775,4.2111,4.1867,4.1773,4.3055,4.2806,4.2586,4.3205,4.2327,4.1508,4.1418,4.0352,3.9511,3.9406,3.9406,3.9406,3.9406,3.8583,3.7796,3.7172,3.5311,3.3526,3.1998,3.1576,3.1348,3.1273,3.0922,3.0432,2.9804,2.988,2.988,2.9792,2.9792,2.9792,2.9792,2.9792,2.9792,1.65,1.6731,1.7422,1.9244,1.8331,1.7463,0.0,0.0,0.0,0.0,0.0,0.0,0.0,0.0,0.0,0.0,0.0,0.0,0.0,0.0,0.0,0.0,0.0,0.0,0.0,0.0,0.0,0.0,0.0,4.912,4.9018,4.8411,4.8293,4.8832,4.8225,4.7954,4.8073,4.8073,4.8377,4.9001,4.836,4.7631,4.6783,4.616,4.5399,4.4615,0.0,4.4615,4.4615,4.4615,4.4615,4.4615,4.4615,4.4615,4.4615,4.4615,4.4615,4.4615,4.4615,4.4147,4.3558,4.344,4.349,4.3247,4.1455,4.1422,4.1642,3.9882,3.9406,3.9406,3.9406,3.9406,3.9571,4.0247,4.0397,4.0775,4.2111,4.1867,4.1773,4.3055,4.2806,4.2586,4.3205,4.2701,4.2051,4.1493,4.0726,4.0053,3.9466,3.9406,3.9406,3.9406,3.9247,3.8738,3.7755,3.6537,3.5371,3.4256,3.2444,3.1198,3.0738,3.1085,3.0809,2.9817,3.0256,3.0256,2.9792,2.9792,2.9792,2.9792,2.9792,2.9792,1.6174,1.65,1.7306,2.0691,1.9001,0.0,0.0,0.0,0.0,0.0,0.0,0.0,0.0,0.0,0.0,0.0,0.0,0.0,0.0,0.0,0.0,0.0,0.0,0.0,0.0,0.0,0.0,0.0,0.0,0.0,4.8428,4.809,4.787,4.78,4.7107,4.6889,4.731,4.6906,4.7075,4.78,4.787,4.7295,4.6194,4.5855,4.5297,4.4615,0.0,4.4615,4.4615,4.4615,4.4615,4.4615,4.4615,4.4615,4.4615,4.4615,4.4615,4.4615,4.4615,4.4062,4.3338,4.2946,4.2774,4.2458,4.0801,4.0769,4.103,3.9755,3.9406,3.9406,3.9406,3.9406,3.966,4.0681,4.0954,4.1294,4.2596,4.2391,4.2211,4.313,4.2806,4.2586,4.3205,4.2506,4.1767,4.1448,4.0516,3.975,3.9436,3.9406,3.9541,3.9885,3.9948,3.975,3.9242,3.8222,3.6524,3.3987,3.257,3.1725,3.1466,3.1424,3.1022,3.0256,3.0462,3.0344,2.9792,2.9792,2.9792,2.9792,2.9792,2.9792,1.5898,1.65,1.7303,2.0713,0.0,0.0,0.0,0.0,0.0,0.0,0.0,0.0,0.0,0.0,0.0,0.0,0.0,0.0,0.0,0.0,0.0,0.0,0.0,0.0,0.0,0.0,0.0,0.0,0.0,0.0,4.7667,4.7481,4.7208,4.6802,4.6075,4.5974,4.6532,4.616,4.6244,4.68,4.7194,4.6788,4.5689,4.5517,4.5128,4.4615,4.4615,4.4615,4.4615,4.4615,4.4615,4.4567,4.4398,4.433,4.4347,4.4533,4.4615,4.4615,4.4615,4.4062,4.3304,4.2743,4.2387,4.1925,4.0486,4.0369,4.0518,3.9646,3.9406,3.9406,3.9406,3.9406,3.969,4.0876,4.1164,4.1523,4.2801,4.2735,4.2571,4.319,4.294,4.272,4.3025,4.2282,4.1523,4.1209,4.0292,3.9571,3.9421,3.9406,3.966,4.0337,4.0262,4.0065,3.981,3.9037,3.7095,3.3688,3.303,3.26,3.2215,3.1938,3.1474,3.0789,3.0901,3.0638,2.998,2.998,2.9917,2.9792,2.9792,2.9792,1.5898,1.65,1.6586,1.69,0.0,0.0,0.0,0.0,0.0,0.0,0.0,0.0,0.0,0.0,0.0,0.0,0.0,0.0,0.0,0.0,0.0,0.0,0.0,0.0,0.0,0.0,0.0,0.0,0.0,0.0,4.687,4.6227,4.616,4.6783,4.6075,4.5737,4.5788,4.6397,4.675,4.6786,4.616,4.579,4.5672,4.499,4.4649,4.4615,4.4615,4.4615,4.4615,4.4615,4.4615,4.453,4.3792,4.349,4.3575,4.433,4.4615,4.4615,4.4615,4.4062,4.3389,4.3338,4.2821,4.2024,4.1096,4.0763,4.0518,3.9646,3.9406,3.9406,3.9406,3.9406,3.9571,4.0307,4.0472,4.0831,4.2186,4.2425,4.2571,4.319,4.3245,4.307,4.2541,4.2396,4.1916,4.0651,4.0382,4.0113,3.9481,3.9406,3.966,4.0337,3.9825,3.9072,3.8085,3.792,3.6922,3.4725,3.4541,3.3817,3.2269,3.2692,3.2462,3.1348,3.1838,3.1566,3.0538,3.0538,3.0294,2.9792,2.9792,2.9792,1.6274,1.65,1.65,1.65,0.0,0.0,0.0,0.0,0.0,0.0,0.0,0.0,0.0,0.0,0.0,0.0,0.0,0.0,0.0,0.0,0.0,0.0,0.0,0.0,0.0,0.0,0.0,0.0,0.0,0.0,4.3928,4.4013,4.4278,4.4675,4.3929,4.3999,4.5024,4.4347,4.4009,4.4025,4.5162,4.5466,4.5007,4.4719,4.4615,4.4615,4.4615,4.4615,4.4615,4.4615,4.4313,4.3775,4.3014,4.2726,4.2811,4.3572,4.3859,4.3859,4.3859,4.306,4.2016,4.1926,4.101,3.9992,4.0067,3.9993,3.9829,3.9499,3.9406,3.9406,3.9406,3.9406,3.9571,4.0247,4.0711,4.1268,4.2201,4.269,4.2925,4.2761,4.275,4.2541,4.1882,4.1433,4.0965,4.0472,4.0053,3.9825,4.0008,4.0004,4.0277,4.0954,4.0786,4.0308,3.9487,3.8815,3.762,3.5755,3.4687,3.3718,3.2806,3.2616,3.2177,3.1399,3.1938,3.1524,3.0105,3.0437,3.0312,2.9804,3.0143,3.0118,1.65,1.65,1.685,0.0,0.0,0.0,0.0,0.0,0.0,0.0,0.0,0.0,0.0,0.0,0.0,0.0,0.0,0.0,0.0,0.0,0.0,0.0,0.0,0.0,0.0,0.0,0.0,0.0,0.0,0.0,0.0,4.2077,4.2396,4.2329,4.1792,4.2029,4.3141,4.2336,4.196,4.1977,4.3779,4.435,4.3873,4.411,4.4093,4.3873,4.3873,4.3873,4.3873,4.3873,4.3276,4.2332,4.2061,4.1656,4.1344,4.2333,4.2546,4.233,4.233,4.1671,4.0811,4.0705,3.9747,3.8751,3.9432,3.9375,3.9122,3.9346,3.9406,3.9406,3.9406,3.9406,3.9511,3.9993,4.0427,4.0954,4.1613,4.2087,4.2322,4.2107,4.2096,4.1867,4.1209,4.0894,4.0636,4.0427,4.0187,4.0202,4.0651,4.0711,4.0801,4.1074,4.1089,4.0801,4.0142,3.9096,3.7837,3.6304,3.4868,3.3783,3.312,3.2692,3.2303,3.1947,3.2114,3.1675,3.0557,3.0595,3.0507,3.0306,3.052,3.0387,1.6466,1.6477,0.0,0.0,0.0,0.0,0.0,0.0,0.0,0.0,0.0,0.0,0.0,0.0,0.0,0.0,0.0,0.0,0.0,0.0,0.0,0.0,0.0,0.0,0.0,0.0,0.0,0.0,0.0,0.0,0.0,4.0603,4.0667,4.0006,3.999,3.999,3.9989,4.078,4.1172,4.1187,4.193,4.2286,4.2303,4.3051,4.2983,4.2273,4.2273,4.2273,4.2273,4.2273,4.1412,4.0166,4.0875,4.0237,3.9072,4.0621,4.0662,3.9989,3.9989,3.9974,3.999,3.999,3.9392,3.8817,3.9483,3.9091,3.8542,3.9212,3.9406,3.9406,3.9406,3.9406,3.9406,3.9406,3.9406,3.9601,4.0277,4.0412,4.0606,4.1268,4.1388,4.1179,4.0502,4.0954,4.1164,4.0502,4.0965,4.1403,4.1403,4.1403,4.1149,4.0472,4.0397,4.0127,3.9466,3.8416,3.7338,3.6271,3.5251,3.4212,3.3133,3.3102,3.3102,3.309,3.2503,3.2194,3.2181,3.1127,3.0896,3.1386,3.0871,3.06,1.4433,1.5209,0.0,0.0,0.0,0.0,0.0,0.0,0.0,0.0,0.0,0.0,0.0,0.0,0.0,0.0,0.0,0.0,0.0,0.0,0.0,0.0,0.0,0.0,0.0,0.0,0.0,0.0,0.0,0.0,0.0,3.8139,3.8434,3.8372,3.8341,3.8603,3.9208,3.8948,3.9064,3.9581,4.0373,4.1014,4.153,4.1746,4.1427,4.0674,4.0674,4.0674,4.0642,4.0123,3.9637,3.9224,3.892,3.852,3.8249,3.9218,3.9432,3.9223,3.9223,3.8848,3.8372,3.8325,3.8065,3.7903,3.8585,3.8935,3.9137,3.9346,3.9406,3.9406,3.9406,3.9406,3.9526,3.9993,4.0457,4.0846,4.1074,4.1463,4.1583,4.0831,4.0696,4.0487,3.981,4.0247,4.0621,4.0427,4.0965,4.1403,4.1403,4.1403,4.1149,4.0472,4.0397,4.0127,3.9466,3.8155,3.7039,3.6245,3.4547,3.3441,3.3124,3.3102,3.2901,3.2478,3.2726,3.2428,3.1637,3.17,3.1625,3.1419,3.1625,3.1524,1.3308,0.0,0.0,0.0,0.0,0.0,0.0,0.0,0.0,0.0,0.0,0.0,0.0,0.0,0.0,0.0,0.0,0.0,0.0,0.0,0.0,0.0,0.0,0.0,0.0,0.0,0.0,0.0,0.0,0.0,0.0,3.6701,3.6984,3.6839,3.6792,3.7015,3.7529,3.7394,3.7703,3.8469,3.9259,3.9703,3.9862,4.047,4.0165,3.9143,3.9143,3.9143,3.9081,3.8308,3.7983,3.7936,3.7496,3.713,3.6967,3.7721,3.7803,3.7544,3.7544,3.7219,3.6824,3.6776,3.671,3.6776,3.7434,3.7928,3.8344,3.8871,3.9005,3.9047,3.9331,3.9406,3.9496,3.99,4.0307,4.0606,4.0606,4.1134,4.1283,4.0217,4.0217,4.0187,3.9511,3.9963,4.0487,4.0756,4.1373,4.1688,4.1433,4.1164,4.0846,4.0442,4.0172,3.9825,3.9436,3.8193,3.7082,3.6245,3.465,3.3535,3.3124,3.3102,3.2939,3.2566,3.2667,3.2516,3.2085,3.1951,3.1951,3.2085,3.2164,3.2039,0.0,0.0,0.0,0.0,0.0,0.0,0.0,0.0,0.0,0.0,0.0,0.0,0.0,0.0,0.0,0.0,0.0,0.0,0.0,0.0,0.0,0.0,0.0,0.0,0.0,0.0,0.0,0.0,0.0,0.0,0.0,3.6073,3.6118,3.5534,3.5504,3.5504,3.5504,3.6165,3.6904,3.769,3.8372,3.8344,3.7751,3.9226,3.9048,3.7589,3.7589,3.7589,3.7531,3.6798,3.6492,3.6492,3.6492,3.6086,3.5587,3.6244,3.607,3.5504,3.5504,3.5504,3.5504,3.5504,3.5549,3.5699,3.6329,3.6538,3.6806,3.799,3.8302,3.8452,3.9122,3.9316,3.9316,3.9391,3.9451,3.9496,3.9496,3.996,4.0202,3.9526,3.9903,4.0127,3.9511,3.9963,4.0621,4.1298,4.1931,4.2066,4.1403,4.0771,4.0382,4.0322,3.975,3.9406,3.9406,3.842,3.7381,3.6408,3.54,3.4408,3.3407,3.3197,3.3102,3.3102,3.2554,3.2554,3.3102,3.2072,3.2097,3.309,3.2541,3.229,0.0,0.0,0.0,0.0,0.0,0.0,0.0,0.0,0.0,0.0,0.0,0.0,0.0,0.0,0.0,0.0,0.0,0.0,0.0,0.0,0.0,0.0,0.0,0.0,0.0,0.0,0.0,0.0,0.0,0.0,3.5519,3.5639,3.5654,3.5504,3.5504,3.5504,3.5504,3.5667,3.6102,0.0,3.7008,3.7008,3.6889,3.7864,3.7451,3.599,3.599,3.599,3.5989,3.5798,3.5734,3.5734,3.5734,3.5636,3.5521,3.5685,3.5651,3.5504,3.5504,3.5504,3.5504,3.5504,3.5848,3.6314,3.6464,3.6821,3.727,3.7539,3.7629,3.7778,3.8437,3.8616,3.8751,3.9272,3.9795,4.0187,4.0187,4.0307,4.0202,3.9526,3.9511,3.9571,3.9421,3.9963,4.0621,4.1298,4.1523,4.1373,4.0696,4.0487,4.0202,3.9675,3.9496,3.9406,3.9406,3.842,3.7715,3.7472,3.6462,3.5774,3.5534,3.3961,3.3102,3.3102,3.2977,3.2977,3.3102,3.2851,3.2864,3.3102,3.2977,3.2914,0.0,0.0,0.0,0.0,0.0,0.0,0.0,0.0,0.0,0.0,0.0,0.0,0.0,0.0,0.0,0.0,0.0,0.0,0.0,0.0,0.0,0.0,0.0,0.0,0.0,0.0,0.0,0.0,0.0,3.5504,3.5504,3.5504,3.5504,3.5504,3.5504,3.5504,3.5504,3.5504,3.5863,3.6615,3.6274,3.5979,3.5715,3.6382,3.6258,3.5504,3.5504,3.5504,3.5504,3.5504,3.5504,3.5504,3.5504,3.5504,3.5504,3.5504,3.5504,3.5504,3.5504,3.5504,3.5504,3.5504,3.5744,3.6013,3.6013,3.6237,3.6567,3.6881,3.6971,3.718,3.8155,3.8409,3.8556,3.9242,3.966,3.9915,3.9915,4.0172,4.0202,3.9526,3.966,3.9765,3.9451,3.9963,4.0412,4.0442,4.0711,4.0666,4.0023,3.9915,3.978,3.9436,3.9406,3.9406,3.9406,3.8889,3.8345,3.7829,3.7286,3.6735,3.6217,3.5163,3.4353,3.3869,3.3356,3.3102,3.3102,3.3102,3.3102,3.3102,3.3102,3.3102,0.0,0.0,0.0,0.0,0.0,0.0,0.0,0.0,0.0,0.0,0.0,0.0,0.0,0.0,0.0,0.0,0.0,0.0,0.0,0.0,0.0,0.0,0.0,0.0,0.0,0.0,0.0,0.0,0.0,3.5444,3.5325,3.5444,3.54,3.516,3.5385,3.5444,3.5325,3.5444,3.5814,3.6415,3.5722,3.5089,3.4503,3.4936,3.522,3.5325,3.5444,3.5504,3.5504,3.5504,3.5504,3.5504,3.5504,3.5504,3.5504,3.5504,3.5504,3.5504,3.5504,3.5504,3.5504,3.5504,3.5504,3.5504,3.5504,3.5504,3.5624,3.6163,3.6329,3.6628,3.7901,3.8245,3.8422,3.9212,3.9406,3.9406,3.9406,3.9825,4.0068,3.9511,3.984,4.0053,3.9496,3.9855,4.0053,3.9481,3.987,4.0038,3.9466,3.9406,3.9406,3.9406,3.9406,3.9406,3.9406,3.9406,3.9017,3.8125,3.8069,3.7682,3.678,3.6565,3.6087,3.5244,3.4016,3.3377,3.3377,3.3197,3.3102,3.3102,3.3102,3.3102,0.0,0.0,0.0,0.0,0.0,0.0,0.0,0.0,0.0,0.0,0.0,0.0,0.0,0.0,0.0,0.0,0.0,0.0,0.0,0.0,0.0,0.0,0.0,0.0,0.0,0.0,0.0,0.0,3.516,3.525,3.4652,3.5175,3.4981,3.3799,3.4891,3.522,3.4637,3.5205,3.5538,3.5636,3.4976,3.4299,3.3652,3.3741,3.4084,3.4667,3.525,3.5504,3.5504,3.5504,3.5504,3.5504,3.5504,3.5504,3.5504,3.5504,3.5504,3.5504,3.5504,3.5504,3.5504,3.5504,3.5504,3.5504,3.5504,3.5504,3.5519,3.5609,3.5639,3.5923,3.721,3.7522,3.7836,3.9107,3.9406,3.9406,3.9406,3.9466,3.9511,3.9421,3.9466,3.9511,3.9421,3.9466,3.9496,3.9406,3.9481,3.9496,3.9406,3.9406,3.9406,3.9406,3.9406,3.9406,3.9406,3.9406,3.9337,3.9195,3.9177,3.9123,3.898,3.8088,3.751,3.7396,3.5474,3.4491,3.4491,3.3556,3.3102,3.3102,3.3102,3.3102,0.0,0.0,0.0,0.0,0.0,0.0,0.0,0.0,0.0,0.0,0.0,0.0,0.0,0.0,0.0,0.0,0.0,0.0,0.0,0.0,0.0,0.0,0.0,0.0,0.0,0.0,0.0,0.0,3.4203,3.4247,3.3964,3.4218,3.4113,3.3514,3.4068,3.4233,3.3934,3.4218,3.4203,3.3813,3.3514,3.3036,3.2392,3.2781,3.3305,3.3964,3.4247,3.4382,3.4382,3.4382,3.4382,3.4412,3.4786,3.4952,3.4997,3.537,3.5504,3.5504,3.5504,3.5504,3.5504,3.5504,3.5504,3.5504,3.5504,3.5504,3.5504,3.5504,3.5504,3.5729,3.6641,3.6896,3.7225,3.8527,3.8841,3.8945,3.9316,3.9406,3.9406,3.9406,3.9406,3.9406,3.9406,3.9406,3.9406,3.9406,3.9406,3.9406,3.9406,3.9406,3.9406,3.9406,3.9406,3.9406,3.9406,3.9406,3.9406,3.9406,3.9406,3.9406,3.9406,3.8943,3.8708,3.8708,3.6618,3.5547,3.5527,3.4498,3.3995,3.3974,3.3377,3.3102,0.0,0.0,0.0,0.0,0.0,0.0,0.0,0.0,0.0,0.0,0.0,0.0,0.0,0.0,0.0,0.0,0.0,0.0,0.0,0.0,0.0,0.0,0.0,0.0,0.0,0.0,0.0,0.0,3.3395,3.3425,3.3245,3.341,3.3335,3.3006,3.332,3.341,3.3245,3.3245,3.2991,3.2497,3.2333,3.1974,3.1525,3.2018,3.2512,3.3021,3.335,3.3499,3.3499,3.3499,3.3499,3.3544,3.4054,3.4338,3.4563,3.5055,3.5355,3.5504,3.5504,3.5504,3.5504,3.5504,3.5504,3.5504,3.5504,3.5504,3.5504,3.5504,3.5504,3.5654,3.6329,3.6508,3.6793,3.7868,3.8138,3.8377,3.9212,3.9406,3.9406,3.9406,3.9406,3.9406,3.9406,3.9406,3.9406,3.9406,3.9406,3.9406,3.9406,3.9406,3.9406,3.9406,3.9406,3.9406,3.9406,3.9406,3.9406,3.9406,3.9406,3.9406,3.9406,3.9406,3.9406,3.9406,3.7833,3.6891,3.6604,3.5332,3.4705,3.4664,3.3598,3.3102,0.0,0.0,0.0,0.0,0.0,0.0,0.0,0.0,0.0,0.0,0.0,0.0,0.0,0.0,0.0,0.0,0.0,0.0,0.0,0.0,0.0,0.0,0.0,0.0,0.0,0.0,0.0,0.0,3.314,3.3215,3.2587,3.3155,3.2916,3.1645,3.2841,3.32,3.2557,3.2542,3.2527,3.2482,3.1854,3.154,3.1511,3.154,3.157,3.1675,3.2961,3.3499,3.3499,3.3499,3.3499,3.3499,3.3529,3.3934,3.4503,3.4533,3.4952,3.5504,3.5504,3.5504,3.5504,3.5504,3.5504,3.5504,3.5504,3.5504,3.5504,3.5504,3.5504,3.5654,3.6329,3.6508,3.6673,3.73,3.7464,3.7806,3.9122,3.9406,3.9406,3.9406,3.9406,3.9406,3.9406,3.9406,3.9406,3.9406,3.9406,3.9406,3.9406,3.9406,3.9406,3.9406,3.9406,3.9406,3.9406,3.9406,3.9406,3.9406,3.9406,3.9406,3.9406,3.9406,3.9406,3.9406,3.9283,3.8745,3.7715,3.5695,3.4705,3.4664,3.3598,3.3102,0.0,0.0,0.0,0.0,0.0,0.0,0.0,0.0,0.0,0.0,0.0,0.0,0.0,0.0,0.0,0.0,0.0,0.0,0.0,0.0,0.0,0.0,0.0,0.0,0.0,0.0,0.0,0.0,0.0,3.1929,3.1241,3.145,3.118,3.0313,3.0746,3.088,3.0642,3.0642,3.0642,3.0642,3.0791,3.0852,3.0867,3.1301,3.1511,3.1511,3.1555,3.1809,3.2228,3.2228,3.2228,3.2258,3.2691,3.326,3.3919,3.4338,3.4922,3.5504,3.5504,3.5504,3.5504,3.5504,3.5504,3.5504,3.5504,3.5504,3.5504,3.5504,3.5504,3.5564,3.5804,3.5863,3.6118,3.7148,3.7734,3.8287,3.9197,3.9406,3.9406,3.9406,3.9406,3.9406,3.9406,3.9406,3.9406,3.9406,3.9406,3.9406,3.9406,3.9406,3.9406,3.9406,3.9406,3.9406,3.9406,3.9406,3.9406,3.9406,3.9406,3.9406,3.9406,3.9406,3.9406,3.9406,3.9406,3.921,3.8819,3.7396,3.6338,3.5648,3.4622,3.3755,0.0,0.0,0.0,0.0,0.0,0.0,0.0,0.0,0.0,0.0,0.0,0.0,0.0,0.0,0.0,0.0,0.0,0.0,0.0,0.0,0.0,0.0,0.0,0.0,0.0,0.0,0.0,0.0,0.0,0.0,3.0223,3.0193,2.9998,2.9608,2.9593,2.9593,2.9593,2.9383,2.9383,2.9593,2.9774,2.9983,3.0208,3.0658,3.0867,3.0852,3.0598,3.0747,3.1152,3.1152,3.1152,3.1227,3.1914,3.2572,3.3245,3.3919,3.4592,3.519,3.5429,3.5504,3.5504,3.5504,3.5504,3.5504,3.5504,3.5504,3.5504,3.5504,3.5504,3.5504,3.5504,3.5504,3.5714,3.6567,3.727,3.7868,3.8332,3.8928,3.9331,3.9107,3.9242,3.9331,3.9092,3.9257,3.9406,3.9406,3.9406,3.9406,3.9406,3.9406,3.9406,3.9406,3.9406,3.9406,3.9406,3.9406,3.9406,3.9406,3.9406,3.9406,3.9406,3.9406,3.9406,3.9406,3.9406,3.9406,3.9406,3.8327,3.7247,3.6192,3.517,3.4129,0.0,0.0,0.0,0.0,0.0,0.0,1.8431,0.0,1.9309,0.0,0.0,0.0,0.0,0.0,0.0,0.0,0.0,0.0,0.0,0.0,0.0,0.0,0.0,0.0,0.0,0.0,0.0,0.0,2.9593,2.9578,2.9563,2.9548,2.9518,2.9503,2.9503,2.9503,2.9473,2.8831,2.8846,2.9503,2.8874,2.8921,2.9563,2.9578,2.9593,2.9623,3.0193,3.0447,3.0447,3.0507,3.0537,3.0597,3.1241,3.1914,3.2572,3.323,3.3919,3.4578,3.5235,3.5473,3.5504,3.5504,3.5504,3.5504,3.5504,3.5504,3.5504,3.5504,3.5504,3.5504,3.5504,3.5504,3.5504,3.5534,3.6028,3.6508,3.6523,3.8018,3.9152,3.8497,3.8901,3.9137,3.8497,3.8945,3.9376,3.9406,3.9406,3.9406,3.9406,3.9406,3.9406,3.9406,3.9406,3.9406,3.9406,3.9406,3.9406,3.9406,3.9406,3.9406,3.9406,3.9406,3.9406,3.9406,3.9406,3.9406,3.9406,3.8345,3.7286,3.6192,3.5149,3.4087,1.236,0.0,0.0,0.0,0.0,0.0,1.6035,1.6975,1.8067,0.0,0.0,0.0,0.0,0.0,0.0,0.0,0.0,0.0,0.0,0.0,0.0,0.0,0.0,0.0,0.0,0.0,0.0,0.0,2.9593,2.9383,2.8891,2.841,2.7929,2.7452,2.7423,2.7213,2.6707,2.6515,2.6767,2.7423,2.7722,2.8231,2.8891,2.9383,2.9593,2.9578,2.9265,2.9131,2.9235,3.0643,3.1212,3.1241,3.1436,3.1914,3.2527,3.2706,3.3499,3.4533,3.4712,3.5085,3.5504,3.5504,3.5504,3.5504,3.5504,3.5504,3.5504,3.5504,3.5504,3.5504,3.5504,3.5504,3.5624,3.6103,3.6374,3.6628,3.706,3.7584,3.7896,3.7719,3.7838,3.8063,3.8365,3.8542,3.8841,3.9331,3.9406,3.9406,3.9406,3.9406,3.9406,3.9406,3.9406,3.9406,3.9406,3.9406,3.9406,3.9406,3.9406,3.9406,3.9406,3.9406,3.9406,3.9406,3.9406,3.9406,3.9406,3.9104,3.8017,3.6158,3.4374,3.3377,0.0,0.0,0.0,0.0,0.0,0.0,1.5251,1.5977,1.6893,0.0,1.8681,0.0,0.0,0.0,0.0,0.0,0.0,0.0,0.0,0.0,0.0,0.0,0.0,0.0,0.0,2.7575,2.7515,2.7889,2.7931,2.7754,2.7365,2.6988,2.6584,2.6198,2.6183,2.6004,2.5603,2.5603,2.5809,2.6183,2.6584,2.6961,2.7368,2.8051,2.8351,2.8366,2.8532,2.8607,2.8712,3.0119,3.0538,3.0329,3.0598,3.1091,3.1689,3.1989,3.2751,3.3709,3.3994,3.4337,3.4711,3.4981,3.507,3.513,3.5415,3.5504,3.5504,3.5504,3.5504,3.5504,3.5504,3.5504,3.5609,3.5983,3.6073,3.6063,3.6005,3.6312,3.6701,3.6971,3.724,3.7524,3.7913,3.8197,3.8616,3.9302,3.9406,3.9302,3.9017,3.9227,3.9287,3.902,3.9227,3.9406,3.9406,3.9406,3.9406,3.9406,3.9406,3.9406,3.9406,3.9406,3.9406,3.9406,3.9406,3.9541,3.9828,3.9541,3.8294,3.6152,3.4299,3.342,0.0,0.0,0.0,0.0,0.0,0.0,1.5205,1.5463,1.5897,1.6972,1.7681,0.0,0.0,0.0,0.0,0.0,0.0,0.0,0.0,0.0,0.0,0.0,0.0,0.0,2.5379,2.5379,2.5379,2.5379,2.5379,2.5408,2.5483,2.5483,2.5483,2.5483,2.5483,2.5453,2.5379,2.5304,2.5349,2.5483,2.5408,2.5453,2.5618,2.6213,2.6494,2.6569,2.7754,2.8308,2.8427,2.9024,2.9054,2.8771,2.9368,2.9982,3.0567,3.1167,3.1854,3.2587,3.3185,3.3484,3.3724,3.4308,3.4548,3.4712,3.5325,3.5504,3.5504,3.5504,3.5504,3.5504,3.5504,3.5504,3.5504,3.5504,3.5408,3.51,3.4194,3.4624,3.5344,3.5939,3.6588,3.7076,3.7283,3.7769,3.8376,3.9074,3.9242,3.9026,3.8311,3.8755,3.8901,3.8382,3.8874,3.9265,3.9388,3.9406,3.9406,3.9406,3.9406,3.9406,3.9406,3.9406,3.9406,3.9406,3.9406,3.972,4.0397,3.9561,3.8199,3.6359,3.4744,3.3985,0.0,0.0,0.0,0.0,0.0,0.0,1.3647,1.463,1.5667,0.0,1.643,0.0,0.0,0.0,0.0,0.0,0.0,0.0,0.0,0.0,0.0,0.0,0.0,0.0,2.3951,2.3984,2.3984,2.3984,2.3984,2.4238,2.4769,2.4799,2.4799,2.4799,2.4799,2.4541,2.3999,2.3501,2.3774,2.4784,2.4242,2.4567,2.5603,2.5749,2.5809,2.5797,2.6066,2.6497,2.7003,2.7123,2.8066,2.9413,2.9548,2.9982,3.0522,3.0657,3.145,3.2512,3.2647,3.3395,3.4323,3.4458,3.4877,3.5325,3.5459,3.5504,3.5504,3.5504,3.5504,3.5504,3.5504,3.5504,3.5504,3.5504,3.4872,3.4245,3.4044,3.3567,3.3196,3.334,3.4077,3.5086,3.6434,3.6568,3.6781,3.7657,3.8257,3.8246,3.7245,3.7222,3.7454,3.7875,3.8034,3.8472,3.9319,3.9406,3.9406,3.9406,3.9406,3.9406,3.9406,3.9406,3.9406,3.9406,3.9406,3.972,4.0397,3.848,3.7583,3.7586,3.5499,3.454,0.0,0.0,0.0,1.2607,0.0,0.0,0.0,1.4098,1.479,1.5084,1.5388,1.5776,0.0,0.0,0.0,0.0,0.0,0.0,0.0,0.0,0.0,0.0,0.0,0.0,2.2235,2.2003,2.1974,2.223,2.2502,2.2951,2.3625,2.333,2.3449,2.4077,2.3479,2.315,2.3141,2.2513,2.2517,2.315,2.2817,2.3176,2.4159,2.4462,2.478,2.5113,2.5453,2.5974,2.6599,2.6599,2.7393,2.8603,2.8603,2.9202,3.0057,3.0057,3.0881,3.1989,3.1989,3.2437,3.3066,3.3395,3.3963,3.4562,3.4891,3.5235,3.5504,3.5504,3.5504,3.5504,3.5504,3.5504,3.5375,3.4872,3.4377,3.3739,3.282,3.2593,3.2464,3.1997,3.2285,3.3121,3.4772,3.4904,3.5077,3.587,3.6292,3.6183,3.5329,3.5728,3.609,3.609,3.712,3.8013,3.8564,3.9086,3.9406,3.9406,3.9406,3.9406,3.9406,3.9406,3.9556,3.9903,3.9885,4.0382,4.1388,3.9675,3.8564,3.7986,3.6017,3.5117,0.0,0.0,0.0,0.0,0.0,1.2815,0.0,0.0,0.0,1.4192,0.0,0.0,0.0,0.0,0.0,0.0,0.0,0.0,0.0,0.0,0.0,0.0,0.0,0.0,0.0,1.9968,1.9894,2.0335,2.0861,2.1451,2.2115,2.1759,2.2039,2.3191,2.2243,2.1959,2.2508,2.1839,2.1575,2.1695,2.1575,2.1929,2.2728,2.3201,2.3789,2.444,2.4975,2.56,2.6213,2.6348,2.6794,2.742,2.754,2.8349,2.9413,2.9548,3.0328,3.1331,3.1466,3.1585,3.1795,3.2467,3.323,3.3978,3.4533,3.5071,3.5504,3.5504,3.5504,3.5455,3.5262,3.5213,3.4953,3.3959,3.3602,3.3049,3.1536,3.1646,3.1847,3.1082,3.0932,3.1455,3.3115,3.3349,3.3532,3.4122,3.4325,3.414,3.3376,3.413,3.4637,3.4325,3.5941,3.7158,3.7458,3.849,3.9086,3.9086,3.9283,3.9406,3.9406,3.9406,3.9614,4.0074,4.0304,4.1074,4.2396,4.1184,3.9864,3.8421,3.6756,3.5865,0.0,0.0,0.0,0.0,1.2415,0.0,0.0,0.0,1.214,1.2872,0.0,0.0,0.0,0.0,0.0,0.0,0.0,0.0,0.0,0.0,0.0,0.0,0.0,0.0,0.0,1.8363,1.8353,1.8413,1.8902,1.9503,2.0179,2.0592,2.1146,2.1889,2.1779,2.1749,2.1809,2.1146,2.1101,2.168,2.1101,2.1485,2.2703,2.2763,2.3141,2.3729,2.3789,2.4212,2.4874,2.5468,2.6108,2.6764,2.736,2.8051,2.8786,2.9383,3.0042,3.0702,3.1286,3.1884,3.2497,3.317,3.4233,3.5295,3.537,3.5444,3.5504,3.5504,3.5504,3.5295,3.4411,3.4177,3.3925,3.2978,3.2123,3.1462,3.1254,3.0633,3.0094,2.9991,2.9972,3.0558,3.2399,3.2515,3.2471,3.2775,3.3342,3.3349,3.2323,3.2296,3.2779,3.3774,3.4087,3.4826,3.6255,3.7362,3.7975,3.7975,3.887,3.9406,3.9406,3.9406,3.9273,3.8991,3.9905,4.1074,4.2396,4.1184,4.0298,3.967,3.8403,3.7265,0.0,0.0,0.0,0.0,0.0,0.0,1.1901,0.0,1.1738,0.0,0.0,0.0,0.0,0.0,0.0,0.0,1.4343,0.0,0.0,0.0,0.0,0.0,0.0,0.0,0.0,0.0,0.0,0.0,1.8135,1.8857,1.9843,1.974,2.0278,2.1665,2.0956,2.0732,2.1126,2.0443,2.0468,2.1126,2.0823,2.1191,2.2124,2.2523,2.2838,2.3107,2.3456,2.3973,2.4649,2.5319,2.6004,2.6674,2.7345,2.8006,2.8682,2.9353,2.9982,3.0612,3.1271,3.169,3.2093,3.3155,3.3619,3.3978,3.516,3.5235,3.5012,3.5385,3.5504,3.5262,3.4262,3.401,3.3636,3.2141,3.1499,3.1063,3.0501,3.0075,2.9792,2.9792,2.9792,3.0056,3.0846,3.0878,3.0854,3.096,3.1211,3.1217,3.0785,3.1003,3.1503,3.2325,3.3227,3.4212,3.5245,3.6285,3.6871,3.6871,3.7885,3.8472,3.8472,3.8472,3.8283,3.7893,3.9315,4.0529,4.1458,4.194,4.1398,3.9877,3.8671,3.7507,1.2905,0.0,0.0,0.0,0.0,0.0,0.0,0.0,0.0,0.0,0.0,0.0,0.0,0.0,0.0,0.0,0.0,1.3404,0.0,0.0,0.0,0.0,0.0,0.0,0.0,0.0,0.0,0.0,0.0,1.8114,1.9129,1.8872,1.9315,2.067,1.9761,1.9567,2.0201,1.9721,1.9801,2.0438,2.0438,2.0872,2.1719,2.2198,2.2628,2.2972,2.3411,2.3868,2.4395,2.5244,2.5899,2.6408,2.727,2.8006,2.8667,2.9159,2.9728,3.0342,3.1002,3.1466,3.1929,3.2916,3.3155,3.332,3.4771,3.5012,3.4829,3.5032,3.51,3.4806,3.355,3.3223,3.282,3.1199,3.0814,3.062,2.9953,2.9792,2.9792,2.9792,2.9792,2.9792,2.9792,2.9792,2.9792,2.9792,2.9792,2.9792,2.9792,3.0143,3.0645,3.1323,3.2456,3.3454,3.421,3.5197,3.5914,3.6178,3.693,3.7247,3.6958,3.7209,3.7161,3.677,3.8303,3.949,4.031,4.1535,4.12,3.9382,3.885,3.7815,0.0,0.0,0.0,1.2009,0.0,0.0,0.0,0.0,0.9074,0.0,0.0,0.0,0.0,0.0,0.0,0.0,0.0,0.0,0.0,0.0,0.0,0.0,0.0,0.0,0.0,0.0,0.0,0.0,0.0,0.0,1.735,1.7861,1.8159,1.822,1.8169,1.84,1.895,1.8945,1.9203,1.9729,1.9729,2.0417,2.1695,2.1724,2.2398,2.3565,2.3595,2.361,2.3729,2.5049,2.5603,2.5752,2.7078,2.8006,2.8607,2.8622,2.9069,2.9713,3.0313,3.1375,3.2482,3.2512,3.3395,3.4443,3.4503,3.4982,3.5265,3.4312,3.4044,3.3619,3.176,3.1278,3.1044,3.0075,2.9837,2.985,2.9811,2.9792,2.9792,2.9792,2.9792,2.9792,2.9792,2.9792,2.9792,2.9792,2.9792,2.9792,2.9792,2.9817,3.0218,3.1286,3.1452,3.1925,3.3066,3.4129,3.517,3.6152,3.6237,3.5794,3.4849,3.5714,3.6061,3.5656,3.6729,3.7861,3.9052,3.9122,3.8803,3.8175,3.9316,3.8595,0.0,0.0,1.2835,1.2584,0.0,0.0,0.0,0.0,0.0,0.0,0.0,0.0,0.0,0.0,0.0,0.0,0.0,0.0,0.0,0.0,0.0,0.0,0.0,0.0,0.0,0.0,0.0,0.0,1.5838,0.0,0.0,1.7463,1.7737,1.8096,1.8106,1.8194,1.837,1.8717,1.9204,1.9841,2.0644,2.1261,2.1734,2.2577,2.2977,2.3032,2.343,2.3595,2.3699,2.5061,2.5603,2.5722,2.7091,2.7735,2.7991,2.844,2.9011,2.9683,3.0283,3.1091,3.1929,3.2512,3.2617,3.2736,3.3933,3.3933,3.3508,3.3421,3.3403,3.307,3.1575,3.1199,3.097,3.0017,2.9792,2.9792,2.9792,2.9792,2.9792,2.9792,2.9792,2.9792,2.9792,2.9792,2.9792,2.9792,3.0105,3.0206,2.9842,3.0118,3.0331,3.0331,3.0992,3.1871,3.3002,3.3441,3.4087,3.5149,3.521,3.5047,3.4705,3.504,3.4805,3.3952,3.5386,3.6548,3.7349,3.8456,3.8681,3.8107,3.8514,3.7883,1.2905,1.2905,0.0,1.2571,1.2501,0.0,1.1603,0.0,0.0,0.0,0.0,0.0,0.0,0.0,0.0,0.0,0.0,0.0,0.0,1.1085,0.0,0.0,0.0,0.0,0.0,0.0,0.0,1.4969,1.4872,0.0,0.0,0.0,1.6847,1.7197,1.7419,1.7615,1.7817,1.8165,1.886,1.9906,2.045,2.1178,2.2079,2.2662,2.2962,2.3047,2.343,2.3595,2.3684,2.4795,2.5379,2.5708,2.6809,2.754,2.8006,2.8442,2.916,3.0012,3.0643,3.1151,3.16,3.2168,3.2168,3.2123,3.2976,3.2946,3.2599,3.2577,3.2571,3.2289,3.103,3.0696,3.062,3.0362,3.0037,2.9895,3.0222,3.0037,2.9792,2.9792,2.9792,2.9792,2.9792,2.9792,2.9792,2.9792,3.0093,3.0193,2.9842,3.0281,3.0387,2.9854,3.0904,3.2022,3.3014,3.3102,3.3398,3.4087,3.4129,3.4129,3.4129,3.4129,3.3887,3.3391,3.4247,3.5085,3.5873,3.6923,3.7369,3.7173,3.7173,3.6888]}]]